<?xml version="1.0" encoding="UTF-8" standalone="no" ?>
<gpx xmlns="http://www.topografix.com/GPX/1/1" xmlns:xsi="http://www.w3.org/2001/XMLSchema-instance" xsi:schemaLocation="http://www.topografix.com/GPX/1/1 http://www.topografix.com/GPX/1/1/gpx.xsd" version="1.1" creator="VisuGPX - https://www.visugpx.com">
  <metadata>
    <name>Villennes sur Seine - Bords de Seine</name>
  </metadata>
  <trk>
    <name><![CDATA[Villennes sur Seine - Bords de Seine_1]]></name>
    <extensions>
      <line xmlns="http://www.topografix.com/GPX/gpx_style/0/2">
        <color>0000FF</color>
        <width>4</width>
      </line>
    </extensions>
    <trkseg>
      <trkpt lat="48.94945" lon="1.99723">
        <ele>22.1</ele>
        <time>2022-06-21T07:48:19Z</time>
      </trkpt>
      <trkpt lat="48.9505" lon="1.99713">
        <ele>22.2</ele>
        <time>2022-06-21T07:48:23Z</time>
      </trkpt>
      <trkpt lat="48.95055" lon="1.99711">
        <ele>21</ele>
        <time>2022-06-21T07:48:26Z</time>
      </trkpt>
      <trkpt lat="48.95059" lon="1.99709">
        <ele>20.4</ele>
        <time>2022-06-21T07:48:30Z</time>
      </trkpt>
      <trkpt lat="48.95064" lon="1.99706">
        <ele>20.2</ele>
        <time>2022-06-21T07:48:34Z</time>
      </trkpt>
      <trkpt lat="48.9507" lon="1.99704">
        <ele>20.9</ele>
        <time>2022-06-21T07:48:38Z</time>
      </trkpt>
      <trkpt lat="48.95076" lon="1.99702">
        <ele>19.9</ele>
        <time>2022-06-21T07:48:43Z</time>
      </trkpt>
      <trkpt lat="48.95081" lon="1.99699">
        <ele>19.1</ele>
        <time>2022-06-21T07:48:47Z</time>
      </trkpt>
      <trkpt lat="48.95085" lon="1.99695">
        <ele>18.7</ele>
        <time>2022-06-21T07:48:51Z</time>
      </trkpt>
      <trkpt lat="48.95091" lon="1.99695">
        <ele>17.5</ele>
        <time>2022-06-21T07:48:56Z</time>
      </trkpt>
      <trkpt lat="48.95096" lon="1.99691">
        <ele>17</ele>
        <time>2022-06-21T07:49:01Z</time>
      </trkpt>
      <trkpt lat="48.95101" lon="1.99687">
        <ele>16.4</ele>
        <time>2022-06-21T07:49:05Z</time>
      </trkpt>
      <trkpt lat="48.95106" lon="1.99686">
        <ele>16.2</ele>
        <time>2022-06-21T07:49:11Z</time>
      </trkpt>
      <trkpt lat="48.95111" lon="1.99686">
        <ele>21</ele>
        <time>2022-06-21T07:49:15Z</time>
      </trkpt>
      <trkpt lat="48.95116" lon="1.99685">
        <ele>25.9</ele>
        <time>2022-06-21T07:49:20Z</time>
      </trkpt>
      <trkpt lat="48.95122" lon="1.99684">
        <ele>24.9</ele>
        <time>2022-06-21T07:49:24Z</time>
      </trkpt>
      <trkpt lat="48.95126" lon="1.99683">
        <ele>24.1</ele>
        <time>2022-06-21T07:49:30Z</time>
      </trkpt>
      <trkpt lat="48.9513" lon="1.99676">
        <ele>20.7</ele>
        <time>2022-06-21T07:49:35Z</time>
      </trkpt>
      <trkpt lat="48.95133" lon="1.9967">
        <ele>19.7</ele>
        <time>2022-06-21T07:49:39Z</time>
      </trkpt>
      <trkpt lat="48.95136" lon="1.99662">
        <ele>17.3</ele>
        <time>2022-06-21T07:49:44Z</time>
      </trkpt>
      <trkpt lat="48.9514" lon="1.99657">
        <ele>10.6</ele>
        <time>2022-06-21T07:49:50Z</time>
      </trkpt>
      <trkpt lat="48.95144" lon="1.99653">
        <ele>19.5</ele>
        <time>2022-06-21T07:49:56Z</time>
      </trkpt>
      <trkpt lat="48.95149" lon="1.99649">
        <ele>20.2</ele>
        <time>2022-06-21T07:50:00Z</time>
      </trkpt>
      <trkpt lat="48.95154" lon="1.99646">
        <ele>26</ele>
        <time>2022-06-21T07:50:04Z</time>
      </trkpt>
      <trkpt lat="48.95158" lon="1.99643">
        <ele>24.8</ele>
        <time>2022-06-21T07:50:08Z</time>
      </trkpt>
      <trkpt lat="48.95164" lon="1.99642">
        <ele>25.8</ele>
        <time>2022-06-21T07:50:12Z</time>
      </trkpt>
      <trkpt lat="48.95168" lon="1.9964">
        <ele>23.9</ele>
        <time>2022-06-21T07:50:16Z</time>
      </trkpt>
      <trkpt lat="48.95173" lon="1.99638">
        <ele>24.4</ele>
        <time>2022-06-21T07:50:19Z</time>
      </trkpt>
      <trkpt lat="48.95179" lon="1.99638">
        <ele>22.5</ele>
        <time>2022-06-21T07:50:24Z</time>
      </trkpt>
      <trkpt lat="48.95185" lon="1.99639">
        <ele>22</ele>
        <time>2022-06-21T07:50:28Z</time>
      </trkpt>
      <trkpt lat="48.95189" lon="1.99641">
        <ele>23.5</ele>
        <time>2022-06-21T07:50:31Z</time>
      </trkpt>
      <trkpt lat="48.95194" lon="1.99641">
        <ele>21.6</ele>
        <time>2022-06-21T07:50:36Z</time>
      </trkpt>
      <trkpt lat="48.95205" lon="1.99647">
        <ele>21.4</ele>
        <time>2022-06-21T07:50:44Z</time>
      </trkpt>
      <trkpt lat="48.95209" lon="1.99645">
        <ele>21.9</ele>
        <time>2022-06-21T07:50:47Z</time>
      </trkpt>
      <trkpt lat="48.95214" lon="1.99644">
        <ele>23</ele>
        <time>2022-06-21T07:50:50Z</time>
      </trkpt>
      <trkpt lat="48.95219" lon="1.99644">
        <ele>23.9</ele>
        <time>2022-06-21T07:50:53Z</time>
      </trkpt>
      <trkpt lat="48.95224" lon="1.99642">
        <ele>24.2</ele>
        <time>2022-06-21T07:50:56Z</time>
      </trkpt>
      <trkpt lat="48.95228" lon="1.9964">
        <ele>22.1</ele>
        <time>2022-06-21T07:50:59Z</time>
      </trkpt>
      <trkpt lat="48.95233" lon="1.99637">
        <ele>21.9</ele>
        <time>2022-06-21T07:51:02Z</time>
      </trkpt>
      <trkpt lat="48.95237" lon="1.99634">
        <ele>23.1</ele>
        <time>2022-06-21T07:51:05Z</time>
      </trkpt>
      <trkpt lat="48.95242" lon="1.99631">
        <ele>24.5</ele>
        <time>2022-06-21T07:51:07Z</time>
      </trkpt>
      <trkpt lat="48.95247" lon="1.99629">
        <ele>22.8</ele>
        <time>2022-06-21T07:51:11Z</time>
      </trkpt>
      <trkpt lat="48.95252" lon="1.99627">
        <ele>23.9</ele>
        <time>2022-06-21T07:51:14Z</time>
      </trkpt>
      <trkpt lat="48.95257" lon="1.99625">
        <ele>22.4</ele>
        <time>2022-06-21T07:51:18Z</time>
      </trkpt>
      <trkpt lat="48.95262" lon="1.99624">
        <ele>21.8</ele>
        <time>2022-06-21T07:51:22Z</time>
      </trkpt>
      <trkpt lat="48.95268" lon="1.99622">
        <ele>23.3</ele>
        <time>2022-06-21T07:51:26Z</time>
      </trkpt>
      <trkpt lat="48.95272" lon="1.99618">
        <ele>22.7</ele>
        <time>2022-06-21T07:51:30Z</time>
      </trkpt>
      <trkpt lat="48.95277" lon="1.99614">
        <ele>21.3</ele>
        <time>2022-06-21T07:51:34Z</time>
      </trkpt>
      <trkpt lat="48.95281" lon="1.9961">
        <ele>19.5</ele>
        <time>2022-06-21T07:51:38Z</time>
      </trkpt>
      <trkpt lat="48.95284" lon="1.99605">
        <ele>18.9</ele>
        <time>2022-06-21T07:51:42Z</time>
      </trkpt>
      <trkpt lat="48.95292" lon="1.99599">
        <ele>14.3</ele>
        <time>2022-06-21T07:51:49Z</time>
      </trkpt>
      <trkpt lat="48.95296" lon="1.99594">
        <ele>14.6</ele>
        <time>2022-06-21T07:51:53Z</time>
      </trkpt>
      <trkpt lat="48.95299" lon="1.99588">
        <ele>17.2</ele>
        <time>2022-06-21T07:51:56Z</time>
      </trkpt>
      <trkpt lat="48.95302" lon="1.99582">
        <ele>17</ele>
        <time>2022-06-21T07:52:00Z</time>
      </trkpt>
      <trkpt lat="48.95306" lon="1.99577">
        <ele>18.2</ele>
        <time>2022-06-21T07:52:04Z</time>
      </trkpt>
      <trkpt lat="48.9531" lon="1.99572">
        <ele>18.8</ele>
        <time>2022-06-21T07:52:08Z</time>
      </trkpt>
      <trkpt lat="48.95316" lon="1.99571">
        <ele>18</ele>
        <time>2022-06-21T07:52:12Z</time>
      </trkpt>
      <trkpt lat="48.9532" lon="1.99572">
        <ele>19.9</ele>
        <time>2022-06-21T07:52:15Z</time>
      </trkpt>
      <trkpt lat="48.95325" lon="1.99573">
        <ele>23.3</ele>
        <time>2022-06-21T07:52:19Z</time>
      </trkpt>
      <trkpt lat="48.9533" lon="1.99575">
        <ele>20.5</ele>
        <time>2022-06-21T07:52:22Z</time>
      </trkpt>
      <trkpt lat="48.95335" lon="1.99579">
        <ele>19.4</ele>
        <time>2022-06-21T07:52:27Z</time>
      </trkpt>
      <trkpt lat="48.9534" lon="1.99571">
        <ele>22.2</ele>
        <time>2022-06-21T07:52:44Z</time>
      </trkpt>
      <trkpt lat="48.95343" lon="1.99565">
        <ele>21.8</ele>
        <time>2022-06-21T07:52:50Z</time>
      </trkpt>
      <trkpt lat="48.95339" lon="1.99561">
        <ele>23.3</ele>
        <time>2022-06-21T07:53:15Z</time>
      </trkpt>
      <trkpt lat="48.95334" lon="1.99557">
        <ele>23.3</ele>
        <time>2022-06-21T07:53:30Z</time>
      </trkpt>
      <trkpt lat="48.95339" lon="1.99558">
        <ele>24.2</ele>
        <time>2022-06-21T07:53:38Z</time>
      </trkpt>
      <trkpt lat="48.95343" lon="1.99559">
        <ele>21.7</ele>
        <time>2022-06-21T07:53:54Z</time>
      </trkpt>
      <trkpt lat="48.95348" lon="1.99559">
        <ele>19.8</ele>
        <time>2022-06-21T07:54:17Z</time>
      </trkpt>
      <trkpt lat="48.95353" lon="1.99559">
        <ele>20.4</ele>
        <time>2022-06-21T07:54:26Z</time>
      </trkpt>
      <trkpt lat="48.95357" lon="1.99562">
        <ele>20.8</ele>
        <time>2022-06-21T07:55:58Z</time>
      </trkpt>
      <trkpt lat="48.95362" lon="1.99562">
        <ele>24</ele>
        <time>2022-06-21T07:56:06Z</time>
      </trkpt>
      <trkpt lat="48.95361" lon="1.9957">
        <ele>26.3</ele>
        <time>2022-06-21T07:56:45Z</time>
      </trkpt>
      <trkpt lat="48.95362" lon="1.99577">
        <ele>25.4</ele>
        <time>2022-06-21T07:56:48Z</time>
      </trkpt>
      <trkpt lat="48.95362" lon="1.99586">
        <ele>25.1</ele>
        <time>2022-06-21T07:56:52Z</time>
      </trkpt>
      <trkpt lat="48.9536" lon="1.99593">
        <ele>23.6</ele>
        <time>2022-06-21T07:56:55Z</time>
      </trkpt>
      <trkpt lat="48.95356" lon="1.99597">
        <ele>26.2</ele>
        <time>2022-06-21T07:56:59Z</time>
      </trkpt>
      <trkpt lat="48.95351" lon="1.99596">
        <ele>25</ele>
        <time>2022-06-21T07:57:04Z</time>
      </trkpt>
      <trkpt lat="48.95345" lon="1.99593">
        <ele>24.5</ele>
        <time>2022-06-21T07:57:08Z</time>
      </trkpt>
      <trkpt lat="48.9534" lon="1.99592">
        <ele>25.7</ele>
        <time>2022-06-21T07:57:13Z</time>
      </trkpt>
      <trkpt lat="48.95336" lon="1.99592">
        <ele>23.5</ele>
        <time>2022-06-21T07:57:17Z</time>
      </trkpt>
      <trkpt lat="48.95333" lon="1.996">
        <ele>17.7</ele>
        <time>2022-06-21T07:57:21Z</time>
      </trkpt>
      <trkpt lat="48.95334" lon="1.99607">
        <ele>17.3</ele>
        <time>2022-06-21T07:57:25Z</time>
      </trkpt>
      <trkpt lat="48.95336" lon="1.99614">
        <ele>15.9</ele>
        <time>2022-06-21T07:57:28Z</time>
      </trkpt>
      <trkpt lat="48.95339" lon="1.99621">
        <ele>14.8</ele>
        <time>2022-06-21T07:57:34Z</time>
      </trkpt>
      <trkpt lat="48.9534" lon="1.99628">
        <ele>16.6</ele>
        <time>2022-06-21T07:57:39Z</time>
      </trkpt>
      <trkpt lat="48.95343" lon="1.99633">
        <ele>18.2</ele>
        <time>2022-06-21T07:57:46Z</time>
      </trkpt>
      <trkpt lat="48.95344" lon="1.99641">
        <ele>17.4</ele>
        <time>2022-06-21T07:57:51Z</time>
      </trkpt>
      <trkpt lat="48.95344" lon="1.99649">
        <ele>18.7</ele>
        <time>2022-06-21T07:57:54Z</time>
      </trkpt>
      <trkpt lat="48.95344" lon="1.99657">
        <ele>17.1</ele>
        <time>2022-06-21T07:57:58Z</time>
      </trkpt>
      <trkpt lat="48.95344" lon="1.99665">
        <ele>16</ele>
        <time>2022-06-21T07:58:02Z</time>
      </trkpt>
      <trkpt lat="48.95345" lon="1.99673">
        <ele>20.3</ele>
        <time>2022-06-21T07:58:07Z</time>
      </trkpt>
      <trkpt lat="48.95346" lon="1.9968">
        <ele>22.3</ele>
        <time>2022-06-21T07:58:11Z</time>
      </trkpt>
      <trkpt lat="48.95347" lon="1.99689">
        <ele>23</ele>
        <time>2022-06-21T07:58:16Z</time>
      </trkpt>
      <trkpt lat="48.95346" lon="1.99696">
        <ele>18.7</ele>
        <time>2022-06-21T07:58:24Z</time>
      </trkpt>
      <trkpt lat="48.95347" lon="1.99689">
        <ele>9.5</ele>
        <time>2022-06-21T07:58:32Z</time>
      </trkpt>
      <trkpt lat="48.95352" lon="1.9969">
        <ele>15.2</ele>
        <time>2022-06-21T07:58:40Z</time>
      </trkpt>
      <trkpt lat="48.95357" lon="1.99693">
        <ele>15.3</ele>
        <time>2022-06-21T07:58:45Z</time>
      </trkpt>
      <trkpt lat="48.95362" lon="1.99696">
        <ele>14.5</ele>
        <time>2022-06-21T07:58:49Z</time>
      </trkpt>
      <trkpt lat="48.95367" lon="1.997">
        <ele>14.4</ele>
        <time>2022-06-21T07:58:53Z</time>
      </trkpt>
      <trkpt lat="48.95371" lon="1.99703">
        <ele>14.9</ele>
        <time>2022-06-21T07:58:57Z</time>
      </trkpt>
      <trkpt lat="48.95376" lon="1.99705">
        <ele>15.3</ele>
        <time>2022-06-21T07:59:01Z</time>
      </trkpt>
      <trkpt lat="48.95381" lon="1.99705">
        <ele>15.3</ele>
        <time>2022-06-21T07:59:05Z</time>
      </trkpt>
      <trkpt lat="48.95386" lon="1.99706">
        <ele>14.7</ele>
        <time>2022-06-21T07:59:09Z</time>
      </trkpt>
      <trkpt lat="48.95391" lon="1.99707">
        <ele>18.7</ele>
        <time>2022-06-21T07:59:13Z</time>
      </trkpt>
      <trkpt lat="48.95396" lon="1.99708">
        <ele>17.3</ele>
        <time>2022-06-21T07:59:17Z</time>
      </trkpt>
      <trkpt lat="48.954" lon="1.99708">
        <ele>19.1</ele>
        <time>2022-06-21T07:59:20Z</time>
      </trkpt>
      <trkpt lat="48.95404" lon="1.99711">
        <ele>15.9</ele>
        <time>2022-06-21T07:59:24Z</time>
      </trkpt>
      <trkpt lat="48.95407" lon="1.99718">
        <ele>17.1</ele>
        <time>2022-06-21T07:59:28Z</time>
      </trkpt>
      <trkpt lat="48.95408" lon="1.99725">
        <ele>17.7</ele>
        <time>2022-06-21T07:59:31Z</time>
      </trkpt>
      <trkpt lat="48.95409" lon="1.99734">
        <ele>13.9</ele>
        <time>2022-06-21T07:59:36Z</time>
      </trkpt>
      <trkpt lat="48.9541" lon="1.99742">
        <ele>13.2</ele>
        <time>2022-06-21T07:59:40Z</time>
      </trkpt>
      <trkpt lat="48.95412" lon="1.99751">
        <ele>13.7</ele>
        <time>2022-06-21T07:59:45Z</time>
      </trkpt>
      <trkpt lat="48.95413" lon="1.9976">
        <ele>13.6</ele>
        <time>2022-06-21T07:59:49Z</time>
      </trkpt>
      <trkpt lat="48.95414" lon="1.99768">
        <ele>12.7</ele>
        <time>2022-06-21T07:59:53Z</time>
      </trkpt>
      <trkpt lat="48.95416" lon="1.99776">
        <ele>11.9</ele>
        <time>2022-06-21T07:59:58Z</time>
      </trkpt>
      <trkpt lat="48.95418" lon="1.99783">
        <ele>12.8</ele>
        <time>2022-06-21T08:00:02Z</time>
      </trkpt>
      <trkpt lat="48.95421" lon="1.9979">
        <ele>13.1</ele>
        <time>2022-06-21T08:00:06Z</time>
      </trkpt>
      <trkpt lat="48.95426" lon="1.99794">
        <ele>13.1</ele>
        <time>2022-06-21T08:00:11Z</time>
      </trkpt>
      <trkpt lat="48.9543" lon="1.99795">
        <ele>12.9</ele>
        <time>2022-06-21T08:00:15Z</time>
      </trkpt>
      <trkpt lat="48.95436" lon="1.99794">
        <ele>12.3</ele>
        <time>2022-06-21T08:00:20Z</time>
      </trkpt>
      <trkpt lat="48.95441" lon="1.99792">
        <ele>12.2</ele>
        <time>2022-06-21T08:00:24Z</time>
      </trkpt>
      <trkpt lat="48.95446" lon="1.9979">
        <ele>11.6</ele>
        <time>2022-06-21T08:00:29Z</time>
      </trkpt>
      <trkpt lat="48.95451" lon="1.99788">
        <ele>9.9</ele>
        <time>2022-06-21T08:00:33Z</time>
      </trkpt>
      <trkpt lat="48.95455" lon="1.99787">
        <ele>8.9</ele>
        <time>2022-06-21T08:00:37Z</time>
      </trkpt>
      <trkpt lat="48.9546" lon="1.99782">
        <ele>8.2</ele>
        <time>2022-06-21T08:00:43Z</time>
      </trkpt>
      <trkpt lat="48.95465" lon="1.9978">
        <ele>9.2</ele>
        <time>2022-06-21T08:00:48Z</time>
      </trkpt>
      <trkpt lat="48.9547" lon="1.99779">
        <ele>9.3</ele>
        <time>2022-06-21T08:00:52Z</time>
      </trkpt>
      <trkpt lat="48.95476" lon="1.9978">
        <ele>10.7</ele>
        <time>2022-06-21T08:00:56Z</time>
      </trkpt>
      <trkpt lat="48.95481" lon="1.99781">
        <ele>10</ele>
        <time>2022-06-21T08:01:00Z</time>
      </trkpt>
      <trkpt lat="48.95486" lon="1.99782">
        <ele>11.8</ele>
        <time>2022-06-21T08:01:04Z</time>
      </trkpt>
      <trkpt lat="48.95491" lon="1.99782">
        <ele>10.8</ele>
        <time>2022-06-21T08:01:08Z</time>
      </trkpt>
      <trkpt lat="48.95496" lon="1.99782">
        <ele>11.9</ele>
        <time>2022-06-21T08:01:12Z</time>
      </trkpt>
      <trkpt lat="48.95501" lon="1.99781">
        <ele>11.8</ele>
        <time>2022-06-21T08:01:16Z</time>
      </trkpt>
      <trkpt lat="48.95506" lon="1.9978">
        <ele>14</ele>
        <time>2022-06-21T08:01:20Z</time>
      </trkpt>
      <trkpt lat="48.95511" lon="1.99779">
        <ele>13.9</ele>
        <time>2022-06-21T08:01:24Z</time>
      </trkpt>
      <trkpt lat="48.95517" lon="1.99778">
        <ele>15.7</ele>
        <time>2022-06-21T08:01:28Z</time>
      </trkpt>
      <trkpt lat="48.95523" lon="1.99777">
        <ele>17.8</ele>
        <time>2022-06-21T08:01:32Z</time>
      </trkpt>
      <trkpt lat="48.95529" lon="1.99777">
        <ele>19.7</ele>
        <time>2022-06-21T08:01:37Z</time>
      </trkpt>
      <trkpt lat="48.95534" lon="1.99778">
        <ele>18.8</ele>
        <time>2022-06-21T08:01:41Z</time>
      </trkpt>
      <trkpt lat="48.95539" lon="1.99781">
        <ele>23.2</ele>
        <time>2022-06-21T08:01:45Z</time>
      </trkpt>
      <trkpt lat="48.95544" lon="1.99784">
        <ele>21.3</ele>
        <time>2022-06-21T08:01:57Z</time>
      </trkpt>
      <trkpt lat="48.95549" lon="1.99782">
        <ele>20.7</ele>
        <time>2022-06-21T08:02:00Z</time>
      </trkpt>
      <trkpt lat="48.95553" lon="1.99777">
        <ele>17.3</ele>
        <time>2022-06-21T08:02:05Z</time>
      </trkpt>
      <trkpt lat="48.95556" lon="1.99772">
        <ele>18.9</ele>
        <time>2022-06-21T08:02:10Z</time>
      </trkpt>
      <trkpt lat="48.95561" lon="1.99771">
        <ele>14</ele>
        <time>2022-06-21T08:02:14Z</time>
      </trkpt>
      <trkpt lat="48.95566" lon="1.99771">
        <ele>14.3</ele>
        <time>2022-06-21T08:02:19Z</time>
      </trkpt>
      <trkpt lat="48.95562" lon="1.99775">
        <ele>14.6</ele>
        <time>2022-06-21T08:03:06Z</time>
      </trkpt>
      <trkpt lat="48.9556" lon="1.99782">
        <ele>15.3</ele>
        <time>2022-06-21T08:03:10Z</time>
      </trkpt>
      <trkpt lat="48.95556" lon="1.99786">
        <ele>18.6</ele>
        <time>2022-06-21T08:03:17Z</time>
      </trkpt>
      <trkpt lat="48.95552" lon="1.99789">
        <ele>20</ele>
        <time>2022-06-21T08:03:20Z</time>
      </trkpt>
      <trkpt lat="48.95555" lon="1.99801">
        <ele>26.1</ele>
        <time>2022-06-21T08:03:33Z</time>
      </trkpt>
      <trkpt lat="48.95551" lon="1.99799">
        <ele>21.5</ele>
        <time>2022-06-21T08:03:47Z</time>
      </trkpt>
      <trkpt lat="48.95546" lon="1.99794">
        <ele>19.2</ele>
        <time>2022-06-21T08:04:06Z</time>
      </trkpt>
      <trkpt lat="48.9554" lon="1.99795">
        <ele>22.4</ele>
        <time>2022-06-21T08:04:58Z</time>
      </trkpt>
      <trkpt lat="48.95535" lon="1.99796">
        <ele>22.9</ele>
        <time>2022-06-21T08:05:02Z</time>
      </trkpt>
      <trkpt lat="48.9553" lon="1.99799">
        <ele>25.3</ele>
        <time>2022-06-21T08:05:17Z</time>
      </trkpt>
      <trkpt lat="48.95526" lon="1.99801">
        <ele>25.4</ele>
        <time>2022-06-21T08:05:21Z</time>
      </trkpt>
      <trkpt lat="48.95521" lon="1.99802">
        <ele>26.8</ele>
        <time>2022-06-21T08:05:25Z</time>
      </trkpt>
      <trkpt lat="48.95516" lon="1.99803">
        <ele>25.2</ele>
        <time>2022-06-21T08:05:29Z</time>
      </trkpt>
      <trkpt lat="48.95512" lon="1.998">
        <ele>19.5</ele>
        <time>2022-06-21T08:05:33Z</time>
      </trkpt>
      <trkpt lat="48.95508" lon="1.99793">
        <ele>19.1</ele>
        <time>2022-06-21T08:05:38Z</time>
      </trkpt>
      <trkpt lat="48.95506" lon="1.99785">
        <ele>19.4</ele>
        <time>2022-06-21T08:05:42Z</time>
      </trkpt>
      <trkpt lat="48.95506" lon="1.99778">
        <ele>17.5</ele>
        <time>2022-06-21T08:05:46Z</time>
      </trkpt>
      <trkpt lat="48.95505" lon="1.9977">
        <ele>14.5</ele>
        <time>2022-06-21T08:05:50Z</time>
      </trkpt>
      <trkpt lat="48.95504" lon="1.99763">
        <ele>15.2</ele>
        <time>2022-06-21T08:05:54Z</time>
      </trkpt>
      <trkpt lat="48.95502" lon="1.99755">
        <ele>15.7</ele>
        <time>2022-06-21T08:05:58Z</time>
      </trkpt>
      <trkpt lat="48.95501" lon="1.99748">
        <ele>16.9</ele>
        <time>2022-06-21T08:06:03Z</time>
      </trkpt>
      <trkpt lat="48.955" lon="1.9974">
        <ele>11.9</ele>
        <time>2022-06-21T08:06:08Z</time>
      </trkpt>
      <trkpt lat="48.95499" lon="1.99733">
        <ele>10.2</ele>
        <time>2022-06-21T08:06:12Z</time>
      </trkpt>
      <trkpt lat="48.95499" lon="1.99724">
        <ele>3.6</ele>
        <time>2022-06-21T08:06:17Z</time>
      </trkpt>
      <trkpt lat="48.95501" lon="1.99717">
        <ele>-1.9</ele>
        <time>2022-06-21T08:06:21Z</time>
      </trkpt>
      <trkpt lat="48.95503" lon="1.9971">
        <ele>-3.5</ele>
        <time>2022-06-21T08:06:26Z</time>
      </trkpt>
      <trkpt lat="48.95507" lon="1.99703">
        <ele>0.6</ele>
        <time>2022-06-21T08:06:31Z</time>
      </trkpt>
      <trkpt lat="48.95512" lon="1.99698">
        <ele>4.8</ele>
        <time>2022-06-21T08:06:35Z</time>
      </trkpt>
      <trkpt lat="48.95517" lon="1.99692">
        <ele>6.9</ele>
        <time>2022-06-21T08:06:40Z</time>
      </trkpt>
      <trkpt lat="48.95522" lon="1.99686">
        <ele>7.1</ele>
        <time>2022-06-21T08:06:45Z</time>
      </trkpt>
      <trkpt lat="48.95527" lon="1.99682">
        <ele>6.8</ele>
        <time>2022-06-21T08:06:49Z</time>
      </trkpt>
      <trkpt lat="48.95531" lon="1.99678">
        <ele>9.1</ele>
        <time>2022-06-21T08:06:52Z</time>
      </trkpt>
      <trkpt lat="48.95536" lon="1.99674">
        <ele>9.9</ele>
        <time>2022-06-21T08:06:57Z</time>
      </trkpt>
      <trkpt lat="48.9554" lon="1.99669">
        <ele>11.7</ele>
        <time>2022-06-21T08:07:01Z</time>
      </trkpt>
      <trkpt lat="48.95543" lon="1.99663">
        <ele>10.5</ele>
        <time>2022-06-21T08:07:05Z</time>
      </trkpt>
      <trkpt lat="48.95544" lon="1.99655">
        <ele>9.5</ele>
        <time>2022-06-21T08:07:09Z</time>
      </trkpt>
      <trkpt lat="48.95545" lon="1.99647">
        <ele>6</ele>
        <time>2022-06-21T08:07:14Z</time>
      </trkpt>
      <trkpt lat="48.95545" lon="1.99638">
        <ele>2.4</ele>
        <time>2022-06-21T08:07:19Z</time>
      </trkpt>
      <trkpt lat="48.95546" lon="1.9963">
        <ele>2.4</ele>
        <time>2022-06-21T08:07:24Z</time>
      </trkpt>
      <trkpt lat="48.95547" lon="1.99622">
        <ele>2.7</ele>
        <time>2022-06-21T08:07:29Z</time>
      </trkpt>
      <trkpt lat="48.95547" lon="1.99615">
        <ele>1.5</ele>
        <time>2022-06-21T08:07:33Z</time>
      </trkpt>
      <trkpt lat="48.95548" lon="1.99608">
        <ele>2.7</ele>
        <time>2022-06-21T08:07:37Z</time>
      </trkpt>
      <trkpt lat="48.95549" lon="1.996">
        <ele>2.5</ele>
        <time>2022-06-21T08:07:42Z</time>
      </trkpt>
      <trkpt lat="48.95548" lon="1.99592">
        <ele>3.4</ele>
        <time>2022-06-21T08:07:46Z</time>
      </trkpt>
      <trkpt lat="48.95548" lon="1.99584">
        <ele>2.2</ele>
        <time>2022-06-21T08:07:51Z</time>
      </trkpt>
      <trkpt lat="48.95549" lon="1.99576">
        <ele>1.8</ele>
        <time>2022-06-21T08:07:55Z</time>
      </trkpt>
      <trkpt lat="48.95548" lon="1.99569">
        <ele>3.4</ele>
        <time>2022-06-21T08:07:59Z</time>
      </trkpt>
      <trkpt lat="48.95548" lon="1.99562">
        <ele>7.7</ele>
        <time>2022-06-21T08:08:04Z</time>
      </trkpt>
      <trkpt lat="48.95545" lon="1.99556">
        <ele>8.6</ele>
        <time>2022-06-21T08:08:10Z</time>
      </trkpt>
      <trkpt lat="48.95542" lon="1.9955">
        <ele>13.6</ele>
        <time>2022-06-21T08:08:48Z</time>
      </trkpt>
      <trkpt lat="48.95537" lon="1.99549">
        <ele>14.9</ele>
        <time>2022-06-21T08:08:54Z</time>
      </trkpt>
      <trkpt lat="48.95532" lon="1.99551">
        <ele>20.2</ele>
        <time>2022-06-21T08:08:58Z</time>
      </trkpt>
      <trkpt lat="48.95527" lon="1.99554">
        <ele>21.6</ele>
        <time>2022-06-21T08:09:03Z</time>
      </trkpt>
      <trkpt lat="48.95523" lon="1.99558">
        <ele>24</ele>
        <time>2022-06-21T08:09:07Z</time>
      </trkpt>
      <trkpt lat="48.95518" lon="1.99563">
        <ele>24.7</ele>
        <time>2022-06-21T08:09:13Z</time>
      </trkpt>
      <trkpt lat="48.95515" lon="1.99567">
        <ele>28</ele>
        <time>2022-06-21T08:09:17Z</time>
      </trkpt>
      <trkpt lat="48.95512" lon="1.99572">
        <ele>28.8</ele>
        <time>2022-06-21T08:09:21Z</time>
      </trkpt>
      <trkpt lat="48.95507" lon="1.99576">
        <ele>29.2</ele>
        <time>2022-06-21T08:09:26Z</time>
      </trkpt>
      <trkpt lat="48.95501" lon="1.99578">
        <ele>27.6</ele>
        <time>2022-06-21T08:09:31Z</time>
      </trkpt>
      <trkpt lat="48.95496" lon="1.99579">
        <ele>26.5</ele>
        <time>2022-06-21T08:09:36Z</time>
      </trkpt>
      <trkpt lat="48.95491" lon="1.99575">
        <ele>27.6</ele>
        <time>2022-06-21T08:09:42Z</time>
      </trkpt>
      <trkpt lat="48.95488" lon="1.99568">
        <ele>23.3</ele>
        <time>2022-06-21T08:09:47Z</time>
      </trkpt>
      <trkpt lat="48.95489" lon="1.99559">
        <ele>22.8</ele>
        <time>2022-06-21T08:09:52Z</time>
      </trkpt>
      <trkpt lat="48.9549" lon="1.99551">
        <ele>21.8</ele>
        <time>2022-06-21T08:09:57Z</time>
      </trkpt>
      <trkpt lat="48.9549" lon="1.99542">
        <ele>15.2</ele>
        <time>2022-06-21T08:10:02Z</time>
      </trkpt>
      <trkpt lat="48.95491" lon="1.99534">
        <ele>10.9</ele>
        <time>2022-06-21T08:10:06Z</time>
      </trkpt>
      <trkpt lat="48.95491" lon="1.99525">
        <ele>9.9</ele>
        <time>2022-06-21T08:10:11Z</time>
      </trkpt>
      <trkpt lat="48.95491" lon="1.99517">
        <ele>12.4</ele>
        <time>2022-06-21T08:10:17Z</time>
      </trkpt>
      <trkpt lat="48.95491" lon="1.9951">
        <ele>14</ele>
        <time>2022-06-21T08:10:21Z</time>
      </trkpt>
      <trkpt lat="48.95487" lon="1.99513">
        <ele>19</ele>
        <time>2022-06-21T08:10:44Z</time>
      </trkpt>
      <trkpt lat="48.95488" lon="1.99505">
        <ele>23</ele>
        <time>2022-06-21T08:10:51Z</time>
      </trkpt>
      <trkpt lat="48.95492" lon="1.99505">
        <ele>23</ele>
        <time>2022-06-21T08:10:55Z</time>
      </trkpt>
      <trkpt lat="48.95488" lon="1.99503">
        <ele>28.6</ele>
        <time>2022-06-21T08:11:24Z</time>
      </trkpt>
      <trkpt lat="48.95488" lon="1.99495">
        <ele>27.9</ele>
        <time>2022-06-21T08:12:40Z</time>
      </trkpt>
      <trkpt lat="48.95489" lon="1.99487">
        <ele>27.8</ele>
        <time>2022-06-21T08:12:45Z</time>
      </trkpt>
      <trkpt lat="48.95488" lon="1.99479">
        <ele>29.2</ele>
        <time>2022-06-21T08:12:49Z</time>
      </trkpt>
      <trkpt lat="48.95488" lon="1.99472">
        <ele>29.1</ele>
        <time>2022-06-21T08:12:51Z</time>
      </trkpt>
      <trkpt lat="48.95488" lon="1.99463">
        <ele>29.1</ele>
        <time>2022-06-21T08:12:55Z</time>
      </trkpt>
      <trkpt lat="48.95492" lon="1.99456">
        <ele>28.8</ele>
        <time>2022-06-21T08:12:59Z</time>
      </trkpt>
      <trkpt lat="48.95494" lon="1.99449">
        <ele>30.9</ele>
        <time>2022-06-21T08:13:04Z</time>
      </trkpt>
      <trkpt lat="48.95495" lon="1.99441">
        <ele>35.5</ele>
        <time>2022-06-21T08:13:10Z</time>
      </trkpt>
      <trkpt lat="48.95494" lon="1.99434">
        <ele>33.7</ele>
        <time>2022-06-21T08:13:15Z</time>
      </trkpt>
      <trkpt lat="48.95498" lon="1.99431">
        <ele>27.1</ele>
        <time>2022-06-21T08:13:27Z</time>
      </trkpt>
      <trkpt lat="48.95504" lon="1.99433">
        <ele>25.7</ele>
        <time>2022-06-21T08:13:32Z</time>
      </trkpt>
      <trkpt lat="48.95509" lon="1.99435">
        <ele>32.8</ele>
        <time>2022-06-21T08:13:37Z</time>
      </trkpt>
      <trkpt lat="48.95515" lon="1.99436">
        <ele>33.9</ele>
        <time>2022-06-21T08:13:42Z</time>
      </trkpt>
      <trkpt lat="48.9552" lon="1.99436">
        <ele>34.6</ele>
        <time>2022-06-21T08:13:47Z</time>
      </trkpt>
      <trkpt lat="48.95524" lon="1.99434">
        <ele>34.1</ele>
        <time>2022-06-21T08:13:51Z</time>
      </trkpt>
      <trkpt lat="48.95529" lon="1.99432">
        <ele>34</ele>
        <time>2022-06-21T08:13:56Z</time>
      </trkpt>
      <trkpt lat="48.95534" lon="1.99429">
        <ele>33.2</ele>
        <time>2022-06-21T08:14:01Z</time>
      </trkpt>
      <trkpt lat="48.95539" lon="1.99426">
        <ele>35.1</ele>
        <time>2022-06-21T08:14:05Z</time>
      </trkpt>
      <trkpt lat="48.95544" lon="1.99423">
        <ele>34.4</ele>
        <time>2022-06-21T08:14:10Z</time>
      </trkpt>
      <trkpt lat="48.95549" lon="1.99421">
        <ele>35.8</ele>
        <time>2022-06-21T08:14:14Z</time>
      </trkpt>
      <trkpt lat="48.95555" lon="1.99419">
        <ele>38</ele>
        <time>2022-06-21T08:14:18Z</time>
      </trkpt>
      <trkpt lat="48.95559" lon="1.99416">
        <ele>37.9</ele>
        <time>2022-06-21T08:14:22Z</time>
      </trkpt>
      <trkpt lat="48.95564" lon="1.99413">
        <ele>41.5</ele>
        <time>2022-06-21T08:14:26Z</time>
      </trkpt>
      <trkpt lat="48.95569" lon="1.9941">
        <ele>36.8</ele>
        <time>2022-06-21T08:14:30Z</time>
      </trkpt>
      <trkpt lat="48.95574" lon="1.99407">
        <ele>39.4</ele>
        <time>2022-06-21T08:14:36Z</time>
      </trkpt>
      <trkpt lat="48.95578" lon="1.99406">
        <ele>42.5</ele>
        <time>2022-06-21T08:14:40Z</time>
      </trkpt>
      <trkpt lat="48.95583" lon="1.99405">
        <ele>42.3</ele>
        <time>2022-06-21T08:14:44Z</time>
      </trkpt>
      <trkpt lat="48.95588" lon="1.99403">
        <ele>41</ele>
        <time>2022-06-21T08:14:48Z</time>
      </trkpt>
      <trkpt lat="48.95593" lon="1.99398">
        <ele>40.9</ele>
        <time>2022-06-21T08:14:53Z</time>
      </trkpt>
      <trkpt lat="48.95598" lon="1.99393">
        <ele>40.4</ele>
        <time>2022-06-21T08:14:57Z</time>
      </trkpt>
      <trkpt lat="48.95601" lon="1.99388">
        <ele>41.3</ele>
        <time>2022-06-21T08:15:01Z</time>
      </trkpt>
      <trkpt lat="48.95603" lon="1.99381">
        <ele>41.3</ele>
        <time>2022-06-21T08:15:06Z</time>
      </trkpt>
      <trkpt lat="48.95605" lon="1.99374">
        <ele>42</ele>
        <time>2022-06-21T08:15:11Z</time>
      </trkpt>
      <trkpt lat="48.95608" lon="1.99367">
        <ele>42.1</ele>
        <time>2022-06-21T08:15:16Z</time>
      </trkpt>
      <trkpt lat="48.95611" lon="1.99361">
        <ele>40.5</ele>
        <time>2022-06-21T08:15:20Z</time>
      </trkpt>
      <trkpt lat="48.95614" lon="1.99354">
        <ele>41.8</ele>
        <time>2022-06-21T08:15:25Z</time>
      </trkpt>
      <trkpt lat="48.95616" lon="1.99347">
        <ele>41.6</ele>
        <time>2022-06-21T08:15:29Z</time>
      </trkpt>
      <trkpt lat="48.95617" lon="1.99339">
        <ele>42.1</ele>
        <time>2022-06-21T08:15:34Z</time>
      </trkpt>
      <trkpt lat="48.95618" lon="1.99332">
        <ele>43</ele>
        <time>2022-06-21T08:15:39Z</time>
      </trkpt>
      <trkpt lat="48.95615" lon="1.99323">
        <ele>42</ele>
        <time>2022-06-21T08:15:44Z</time>
      </trkpt>
      <trkpt lat="48.9561" lon="1.99317">
        <ele>42</ele>
        <time>2022-06-21T08:15:49Z</time>
      </trkpt>
      <trkpt lat="48.95605" lon="1.99314">
        <ele>41.5</ele>
        <time>2022-06-21T08:15:54Z</time>
      </trkpt>
      <trkpt lat="48.956" lon="1.99311">
        <ele>40.2</ele>
        <time>2022-06-21T08:15:58Z</time>
      </trkpt>
      <trkpt lat="48.95595" lon="1.9931">
        <ele>41</ele>
        <time>2022-06-21T08:16:02Z</time>
      </trkpt>
      <trkpt lat="48.9559" lon="1.99306">
        <ele>47.6</ele>
        <time>2022-06-21T08:16:08Z</time>
      </trkpt>
      <trkpt lat="48.95587" lon="1.99301">
        <ele>49.7</ele>
        <time>2022-06-21T08:16:12Z</time>
      </trkpt>
      <trkpt lat="48.95584" lon="1.99296">
        <ele>48.9</ele>
        <time>2022-06-21T08:16:17Z</time>
      </trkpt>
      <trkpt lat="48.9558" lon="1.99289">
        <ele>51.3</ele>
        <time>2022-06-21T08:16:22Z</time>
      </trkpt>
      <trkpt lat="48.95579" lon="1.99281">
        <ele>56.3</ele>
        <time>2022-06-21T08:16:27Z</time>
      </trkpt>
      <trkpt lat="48.95578" lon="1.99274">
        <ele>59</ele>
        <time>2022-06-21T08:16:31Z</time>
      </trkpt>
      <trkpt lat="48.95578" lon="1.99265">
        <ele>50.7</ele>
        <time>2022-06-21T08:16:49Z</time>
      </trkpt>
      <trkpt lat="48.95578" lon="1.99258">
        <ele>48.8</ele>
        <time>2022-06-21T08:16:52Z</time>
      </trkpt>
      <trkpt lat="48.95579" lon="1.99249">
        <ele>50.8</ele>
        <time>2022-06-21T08:16:56Z</time>
      </trkpt>
      <trkpt lat="48.9558" lon="1.99241">
        <ele>49.4</ele>
        <time>2022-06-21T08:17:00Z</time>
      </trkpt>
      <trkpt lat="48.95579" lon="1.99232">
        <ele>52</ele>
        <time>2022-06-21T08:17:04Z</time>
      </trkpt>
      <trkpt lat="48.95576" lon="1.99225">
        <ele>50.2</ele>
        <time>2022-06-21T08:17:09Z</time>
      </trkpt>
      <trkpt lat="48.95572" lon="1.99218">
        <ele>50.4</ele>
        <time>2022-06-21T08:17:14Z</time>
      </trkpt>
      <trkpt lat="48.95569" lon="1.99212">
        <ele>48.6</ele>
        <time>2022-06-21T08:17:18Z</time>
      </trkpt>
      <trkpt lat="48.95567" lon="1.99204">
        <ele>47.4</ele>
        <time>2022-06-21T08:17:23Z</time>
      </trkpt>
      <trkpt lat="48.95566" lon="1.99197">
        <ele>48.2</ele>
        <time>2022-06-21T08:17:27Z</time>
      </trkpt>
      <trkpt lat="48.95565" lon="1.99189">
        <ele>49.2</ele>
        <time>2022-06-21T08:17:31Z</time>
      </trkpt>
      <trkpt lat="48.95565" lon="1.99182">
        <ele>51.5</ele>
        <time>2022-06-21T08:17:34Z</time>
      </trkpt>
      <trkpt lat="48.95563" lon="1.99176">
        <ele>52.4</ele>
        <time>2022-06-21T08:17:38Z</time>
      </trkpt>
      <trkpt lat="48.95561" lon="1.99168">
        <ele>54.1</ele>
        <time>2022-06-21T08:17:42Z</time>
      </trkpt>
      <trkpt lat="48.95558" lon="1.9916">
        <ele>57</ele>
        <time>2022-06-21T08:17:46Z</time>
      </trkpt>
      <trkpt lat="48.95556" lon="1.99152">
        <ele>59.4</ele>
        <time>2022-06-21T08:17:51Z</time>
      </trkpt>
      <trkpt lat="48.95555" lon="1.99143">
        <ele>61</ele>
        <time>2022-06-21T08:17:56Z</time>
      </trkpt>
      <trkpt lat="48.95554" lon="1.99137">
        <ele>61.9</ele>
        <time>2022-06-21T08:18:00Z</time>
      </trkpt>
      <trkpt lat="48.95552" lon="1.99129">
        <ele>61.7</ele>
        <time>2022-06-21T08:18:04Z</time>
      </trkpt>
      <trkpt lat="48.9555" lon="1.99122">
        <ele>63.5</ele>
        <time>2022-06-21T08:18:08Z</time>
      </trkpt>
      <trkpt lat="48.95548" lon="1.99115">
        <ele>61.7</ele>
        <time>2022-06-21T08:18:13Z</time>
      </trkpt>
      <trkpt lat="48.95547" lon="1.99107">
        <ele>63.3</ele>
        <time>2022-06-21T08:18:17Z</time>
      </trkpt>
      <trkpt lat="48.95545" lon="1.991">
        <ele>64.2</ele>
        <time>2022-06-21T08:18:20Z</time>
      </trkpt>
      <trkpt lat="48.95543" lon="1.99092">
        <ele>64.5</ele>
        <time>2022-06-21T08:18:25Z</time>
      </trkpt>
      <trkpt lat="48.95541" lon="1.99084">
        <ele>64.1</ele>
        <time>2022-06-21T08:18:29Z</time>
      </trkpt>
      <trkpt lat="48.95539" lon="1.99076">
        <ele>64.1</ele>
        <time>2022-06-21T08:18:34Z</time>
      </trkpt>
      <trkpt lat="48.95537" lon="1.99068">
        <ele>63.1</ele>
        <time>2022-06-21T08:18:38Z</time>
      </trkpt>
      <trkpt lat="48.95532" lon="1.99068">
        <ele>61.9</ele>
        <time>2022-06-21T08:18:43Z</time>
      </trkpt>
      <trkpt lat="48.9553" lon="1.99062">
        <ele>62.5</ele>
        <time>2022-06-21T08:18:47Z</time>
      </trkpt>
      <trkpt lat="48.95528" lon="1.99053">
        <ele>62.9</ele>
        <time>2022-06-21T08:18:52Z</time>
      </trkpt>
      <trkpt lat="48.95526" lon="1.99046">
        <ele>63.8</ele>
        <time>2022-06-21T08:18:55Z</time>
      </trkpt>
      <trkpt lat="48.95525" lon="1.99039">
        <ele>63.9</ele>
        <time>2022-06-21T08:18:58Z</time>
      </trkpt>
      <trkpt lat="48.95523" lon="1.99032">
        <ele>62.3</ele>
        <time>2022-06-21T08:19:02Z</time>
      </trkpt>
      <trkpt lat="48.95521" lon="1.99024">
        <ele>63</ele>
        <time>2022-06-21T08:19:06Z</time>
      </trkpt>
      <trkpt lat="48.95518" lon="1.99017">
        <ele>64.7</ele>
        <time>2022-06-21T08:19:10Z</time>
      </trkpt>
      <trkpt lat="48.95516" lon="1.99009">
        <ele>64.9</ele>
        <time>2022-06-21T08:19:15Z</time>
      </trkpt>
      <trkpt lat="48.95514" lon="1.99002">
        <ele>63.3</ele>
        <time>2022-06-21T08:19:19Z</time>
      </trkpt>
      <trkpt lat="48.95511" lon="1.98994">
        <ele>63.4</ele>
        <time>2022-06-21T08:19:24Z</time>
      </trkpt>
      <trkpt lat="48.95509" lon="1.98986">
        <ele>63.2</ele>
        <time>2022-06-21T08:19:28Z</time>
      </trkpt>
      <trkpt lat="48.95507" lon="1.98978">
        <ele>66.9</ele>
        <time>2022-06-21T08:19:33Z</time>
      </trkpt>
      <trkpt lat="48.95505" lon="1.98972">
        <ele>68.4</ele>
        <time>2022-06-21T08:19:36Z</time>
      </trkpt>
      <trkpt lat="48.95503" lon="1.98966">
        <ele>69</ele>
        <time>2022-06-21T08:19:40Z</time>
      </trkpt>
      <trkpt lat="48.95499" lon="1.98959">
        <ele>68.3</ele>
        <time>2022-06-21T08:19:44Z</time>
      </trkpt>
      <trkpt lat="48.95495" lon="1.98953">
        <ele>70.7</ele>
        <time>2022-06-21T08:19:49Z</time>
      </trkpt>
      <trkpt lat="48.95492" lon="1.98947">
        <ele>70.8</ele>
        <time>2022-06-21T08:19:53Z</time>
      </trkpt>
      <trkpt lat="48.95488" lon="1.98942">
        <ele>71.6</ele>
        <time>2022-06-21T08:19:57Z</time>
      </trkpt>
      <trkpt lat="48.95485" lon="1.98937">
        <ele>68.8</ele>
        <time>2022-06-21T08:20:01Z</time>
      </trkpt>
      <trkpt lat="48.95482" lon="1.98931">
        <ele>70.1</ele>
        <time>2022-06-21T08:20:04Z</time>
      </trkpt>
      <trkpt lat="48.95478" lon="1.98925">
        <ele>69.2</ele>
        <time>2022-06-21T08:20:09Z</time>
      </trkpt>
      <trkpt lat="48.95474" lon="1.98919">
        <ele>67.5</ele>
        <time>2022-06-21T08:20:13Z</time>
      </trkpt>
      <trkpt lat="48.95471" lon="1.98914">
        <ele>69.3</ele>
        <time>2022-06-21T08:20:17Z</time>
      </trkpt>
      <trkpt lat="48.95468" lon="1.98908">
        <ele>69.2</ele>
        <time>2022-06-21T08:20:21Z</time>
      </trkpt>
      <trkpt lat="48.95465" lon="1.98902">
        <ele>69.1</ele>
        <time>2022-06-21T08:20:25Z</time>
      </trkpt>
      <trkpt lat="48.95462" lon="1.98896">
        <ele>70.2</ele>
        <time>2022-06-21T08:20:29Z</time>
      </trkpt>
      <trkpt lat="48.95459" lon="1.98889">
        <ele>75.1</ele>
        <time>2022-06-21T08:20:33Z</time>
      </trkpt>
      <trkpt lat="48.95454" lon="1.98884">
        <ele>77.6</ele>
        <time>2022-06-21T08:20:40Z</time>
      </trkpt>
      <trkpt lat="48.95452" lon="1.98875">
        <ele>76.6</ele>
        <time>2022-06-21T08:20:43Z</time>
      </trkpt>
      <trkpt lat="48.9545" lon="1.98867">
        <ele>75.6</ele>
        <time>2022-06-21T08:20:46Z</time>
      </trkpt>
      <trkpt lat="48.95447" lon="1.98861">
        <ele>74.8</ele>
        <time>2022-06-21T08:20:50Z</time>
      </trkpt>
      <trkpt lat="48.95444" lon="1.98854">
        <ele>73.8</ele>
        <time>2022-06-21T08:20:54Z</time>
      </trkpt>
      <trkpt lat="48.95443" lon="1.98846">
        <ele>68.1</ele>
        <time>2022-06-21T08:21:17Z</time>
      </trkpt>
      <trkpt lat="48.95442" lon="1.98838">
        <ele>66.9</ele>
        <time>2022-06-21T08:21:22Z</time>
      </trkpt>
      <trkpt lat="48.9544" lon="1.98832">
        <ele>68</ele>
        <time>2022-06-21T08:21:26Z</time>
      </trkpt>
      <trkpt lat="48.95438" lon="1.98824">
        <ele>68.8</ele>
        <time>2022-06-21T08:21:31Z</time>
      </trkpt>
      <trkpt lat="48.9544" lon="1.98816">
        <ele>67.7</ele>
        <time>2022-06-21T08:21:47Z</time>
      </trkpt>
      <trkpt lat="48.95445" lon="1.98812">
        <ele>69.3</ele>
        <time>2022-06-21T08:21:51Z</time>
      </trkpt>
      <trkpt lat="48.95447" lon="1.98806">
        <ele>71.9</ele>
        <time>2022-06-21T08:21:58Z</time>
      </trkpt>
      <trkpt lat="48.95452" lon="1.98804">
        <ele>73.6</ele>
        <time>2022-06-21T08:22:22Z</time>
      </trkpt>
      <trkpt lat="48.95456" lon="1.988">
        <ele>74.8</ele>
        <time>2022-06-21T08:22:29Z</time>
      </trkpt>
      <trkpt lat="48.9546" lon="1.98794">
        <ele>79</ele>
        <time>2022-06-21T08:22:34Z</time>
      </trkpt>
      <trkpt lat="48.95464" lon="1.9879">
        <ele>79</ele>
        <time>2022-06-21T08:22:37Z</time>
      </trkpt>
      <trkpt lat="48.95468" lon="1.98786">
        <ele>80.3</ele>
        <time>2022-06-21T08:22:41Z</time>
      </trkpt>
      <trkpt lat="48.95472" lon="1.98782">
        <ele>81.1</ele>
        <time>2022-06-21T08:22:44Z</time>
      </trkpt>
      <trkpt lat="48.95477" lon="1.98779">
        <ele>82.7</ele>
        <time>2022-06-21T08:22:48Z</time>
      </trkpt>
      <trkpt lat="48.95481" lon="1.98775">
        <ele>82.5</ele>
        <time>2022-06-21T08:22:52Z</time>
      </trkpt>
      <trkpt lat="48.95485" lon="1.98769">
        <ele>81.9</ele>
        <time>2022-06-21T08:22:57Z</time>
      </trkpt>
      <trkpt lat="48.9549" lon="1.98763">
        <ele>81.7</ele>
        <time>2022-06-21T08:23:02Z</time>
      </trkpt>
      <trkpt lat="48.95492" lon="1.98755">
        <ele>80.6</ele>
        <time>2022-06-21T08:23:08Z</time>
      </trkpt>
      <trkpt lat="48.95494" lon="1.98748">
        <ele>82.9</ele>
        <time>2022-06-21T08:23:12Z</time>
      </trkpt>
      <trkpt lat="48.95496" lon="1.9874">
        <ele>82.7</ele>
        <time>2022-06-21T08:23:17Z</time>
      </trkpt>
      <trkpt lat="48.95497" lon="1.98733">
        <ele>81.5</ele>
        <time>2022-06-21T08:23:22Z</time>
      </trkpt>
      <trkpt lat="48.95498" lon="1.98725">
        <ele>80.1</ele>
        <time>2022-06-21T08:23:27Z</time>
      </trkpt>
      <trkpt lat="48.95498" lon="1.98718">
        <ele>78.6</ele>
        <time>2022-06-21T08:23:32Z</time>
      </trkpt>
      <trkpt lat="48.955" lon="1.9871">
        <ele>75.2</ele>
        <time>2022-06-21T08:23:36Z</time>
      </trkpt>
      <trkpt lat="48.95503" lon="1.98704">
        <ele>75.1</ele>
        <time>2022-06-21T08:23:40Z</time>
      </trkpt>
      <trkpt lat="48.95502" lon="1.98697">
        <ele>72.2</ele>
        <time>2022-06-21T08:23:51Z</time>
      </trkpt>
      <trkpt lat="48.955" lon="1.9869">
        <ele>73.8</ele>
        <time>2022-06-21T08:23:57Z</time>
      </trkpt>
      <trkpt lat="48.95501" lon="1.98681">
        <ele>76.1</ele>
        <time>2022-06-21T08:24:02Z</time>
      </trkpt>
      <trkpt lat="48.95501" lon="1.98674">
        <ele>76</ele>
        <time>2022-06-21T08:24:06Z</time>
      </trkpt>
      <trkpt lat="48.95501" lon="1.98667">
        <ele>76.3</ele>
        <time>2022-06-21T08:24:10Z</time>
      </trkpt>
      <trkpt lat="48.95502" lon="1.98659">
        <ele>75.9</ele>
        <time>2022-06-21T08:24:15Z</time>
      </trkpt>
      <trkpt lat="48.95502" lon="1.98652">
        <ele>76.3</ele>
        <time>2022-06-21T08:24:20Z</time>
      </trkpt>
      <trkpt lat="48.95503" lon="1.98644">
        <ele>75.8</ele>
        <time>2022-06-21T08:24:25Z</time>
      </trkpt>
      <trkpt lat="48.95504" lon="1.98636">
        <ele>75.6</ele>
        <time>2022-06-21T08:24:30Z</time>
      </trkpt>
      <trkpt lat="48.95505" lon="1.98627">
        <ele>75.2</ele>
        <time>2022-06-21T08:24:34Z</time>
      </trkpt>
      <trkpt lat="48.95505" lon="1.98619">
        <ele>75.6</ele>
        <time>2022-06-21T08:24:39Z</time>
      </trkpt>
      <trkpt lat="48.95506" lon="1.98611">
        <ele>75</ele>
        <time>2022-06-21T08:24:43Z</time>
      </trkpt>
      <trkpt lat="48.95507" lon="1.98602">
        <ele>76</ele>
        <time>2022-06-21T08:24:48Z</time>
      </trkpt>
      <trkpt lat="48.95507" lon="1.98595">
        <ele>76.3</ele>
        <time>2022-06-21T08:24:51Z</time>
      </trkpt>
      <trkpt lat="48.95508" lon="1.98587">
        <ele>76.1</ele>
        <time>2022-06-21T08:24:55Z</time>
      </trkpt>
      <trkpt lat="48.95508" lon="1.98579">
        <ele>75.8</ele>
        <time>2022-06-21T08:24:59Z</time>
      </trkpt>
      <trkpt lat="48.95508" lon="1.98571">
        <ele>74.8</ele>
        <time>2022-06-21T08:25:03Z</time>
      </trkpt>
      <trkpt lat="48.95508" lon="1.98563">
        <ele>73.5</ele>
        <time>2022-06-21T08:25:07Z</time>
      </trkpt>
      <trkpt lat="48.95509" lon="1.98555">
        <ele>74</ele>
        <time>2022-06-21T08:25:11Z</time>
      </trkpt>
      <trkpt lat="48.95509" lon="1.98547">
        <ele>75</ele>
        <time>2022-06-21T08:25:15Z</time>
      </trkpt>
      <trkpt lat="48.95509" lon="1.98538">
        <ele>73.7</ele>
        <time>2022-06-21T08:25:19Z</time>
      </trkpt>
      <trkpt lat="48.9551" lon="1.98531">
        <ele>73.1</ele>
        <time>2022-06-21T08:25:22Z</time>
      </trkpt>
      <trkpt lat="48.9551" lon="1.98523">
        <ele>72.8</ele>
        <time>2022-06-21T08:25:26Z</time>
      </trkpt>
      <trkpt lat="48.9551" lon="1.98516">
        <ele>73.1</ele>
        <time>2022-06-21T08:25:30Z</time>
      </trkpt>
      <trkpt lat="48.95511" lon="1.98508">
        <ele>73.2</ele>
        <time>2022-06-21T08:25:34Z</time>
      </trkpt>
      <trkpt lat="48.95512" lon="1.985">
        <ele>73.8</ele>
        <time>2022-06-21T08:25:38Z</time>
      </trkpt>
      <trkpt lat="48.95512" lon="1.98493">
        <ele>73.8</ele>
        <time>2022-06-21T08:25:42Z</time>
      </trkpt>
      <trkpt lat="48.95513" lon="1.98482">
        <ele>74.2</ele>
        <time>2022-06-21T08:25:47Z</time>
      </trkpt>
      <trkpt lat="48.95514" lon="1.98473">
        <ele>74.9</ele>
        <time>2022-06-21T08:25:52Z</time>
      </trkpt>
      <trkpt lat="48.95514" lon="1.98465">
        <ele>74.9</ele>
        <time>2022-06-21T08:25:56Z</time>
      </trkpt>
      <trkpt lat="48.95514" lon="1.98456">
        <ele>76</ele>
        <time>2022-06-21T08:26:00Z</time>
      </trkpt>
      <trkpt lat="48.95515" lon="1.98447">
        <ele>77.4</ele>
        <time>2022-06-21T08:26:05Z</time>
      </trkpt>
      <trkpt lat="48.95516" lon="1.98438">
        <ele>78.3</ele>
        <time>2022-06-21T08:26:09Z</time>
      </trkpt>
      <trkpt lat="48.95516" lon="1.98431">
        <ele>78.6</ele>
        <time>2022-06-21T08:26:13Z</time>
      </trkpt>
      <trkpt lat="48.95516" lon="1.98424">
        <ele>78.6</ele>
        <time>2022-06-21T08:26:16Z</time>
      </trkpt>
      <trkpt lat="48.95516" lon="1.98416">
        <ele>79.1</ele>
        <time>2022-06-21T08:26:20Z</time>
      </trkpt>
      <trkpt lat="48.95517" lon="1.98408">
        <ele>79.7</ele>
        <time>2022-06-21T08:26:24Z</time>
      </trkpt>
      <trkpt lat="48.95517" lon="1.984">
        <ele>80.5</ele>
        <time>2022-06-21T08:26:28Z</time>
      </trkpt>
      <trkpt lat="48.95518" lon="1.98392">
        <ele>81</ele>
        <time>2022-06-21T08:26:32Z</time>
      </trkpt>
      <trkpt lat="48.95519" lon="1.98384">
        <ele>79.9</ele>
        <time>2022-06-21T08:26:36Z</time>
      </trkpt>
      <trkpt lat="48.95521" lon="1.98377">
        <ele>79.6</ele>
        <time>2022-06-21T08:26:40Z</time>
      </trkpt>
      <trkpt lat="48.95521" lon="1.98368">
        <ele>79.6</ele>
        <time>2022-06-21T08:26:44Z</time>
      </trkpt>
      <trkpt lat="48.95521" lon="1.98361">
        <ele>78.8</ele>
        <time>2022-06-21T08:26:48Z</time>
      </trkpt>
      <trkpt lat="48.95521" lon="1.98354">
        <ele>78.6</ele>
        <time>2022-06-21T08:26:53Z</time>
      </trkpt>
      <trkpt lat="48.9552" lon="1.98346">
        <ele>80.6</ele>
        <time>2022-06-21T08:26:58Z</time>
      </trkpt>
      <trkpt lat="48.95521" lon="1.98339">
        <ele>79</ele>
        <time>2022-06-21T08:27:02Z</time>
      </trkpt>
      <trkpt lat="48.95521" lon="1.98331">
        <ele>78.3</ele>
        <time>2022-06-21T08:27:06Z</time>
      </trkpt>
      <trkpt lat="48.95523" lon="1.98324">
        <ele>78.7</ele>
        <time>2022-06-21T08:27:10Z</time>
      </trkpt>
      <trkpt lat="48.95524" lon="1.98317">
        <ele>79.4</ele>
        <time>2022-06-21T08:27:14Z</time>
      </trkpt>
      <trkpt lat="48.95525" lon="1.9831">
        <ele>80.3</ele>
        <time>2022-06-21T08:27:18Z</time>
      </trkpt>
      <trkpt lat="48.95525" lon="1.98302">
        <ele>80.9</ele>
        <time>2022-06-21T08:27:22Z</time>
      </trkpt>
      <trkpt lat="48.95526" lon="1.98295">
        <ele>81.5</ele>
        <time>2022-06-21T08:27:26Z</time>
      </trkpt>
      <trkpt lat="48.95526" lon="1.98288">
        <ele>81.3</ele>
        <time>2022-06-21T08:27:29Z</time>
      </trkpt>
      <trkpt lat="48.95527" lon="1.9828">
        <ele>80.5</ele>
        <time>2022-06-21T08:27:34Z</time>
      </trkpt>
      <trkpt lat="48.95527" lon="1.98273">
        <ele>80.7</ele>
        <time>2022-06-21T08:27:38Z</time>
      </trkpt>
      <trkpt lat="48.95527" lon="1.98265">
        <ele>80.3</ele>
        <time>2022-06-21T08:27:43Z</time>
      </trkpt>
      <trkpt lat="48.95528" lon="1.98258">
        <ele>79.6</ele>
        <time>2022-06-21T08:27:47Z</time>
      </trkpt>
      <trkpt lat="48.95529" lon="1.9825">
        <ele>79.3</ele>
        <time>2022-06-21T08:27:51Z</time>
      </trkpt>
      <trkpt lat="48.9553" lon="1.98243">
        <ele>78.7</ele>
        <time>2022-06-21T08:27:55Z</time>
      </trkpt>
      <trkpt lat="48.9553" lon="1.98236">
        <ele>79</ele>
        <time>2022-06-21T08:27:58Z</time>
      </trkpt>
      <trkpt lat="48.95532" lon="1.98229">
        <ele>78.2</ele>
        <time>2022-06-21T08:28:02Z</time>
      </trkpt>
      <trkpt lat="48.95533" lon="1.98222">
        <ele>77.2</ele>
        <time>2022-06-21T08:28:05Z</time>
      </trkpt>
      <trkpt lat="48.95534" lon="1.98213">
        <ele>76.2</ele>
        <time>2022-06-21T08:28:09Z</time>
      </trkpt>
      <trkpt lat="48.95534" lon="1.98206">
        <ele>72.1</ele>
        <time>2022-06-21T08:28:13Z</time>
      </trkpt>
      <trkpt lat="48.95533" lon="1.98198">
        <ele>71.9</ele>
        <time>2022-06-21T08:28:17Z</time>
      </trkpt>
      <trkpt lat="48.95532" lon="1.9819">
        <ele>74.3</ele>
        <time>2022-06-21T08:28:22Z</time>
      </trkpt>
      <trkpt lat="48.95532" lon="1.98182">
        <ele>75.3</ele>
        <time>2022-06-21T08:28:27Z</time>
      </trkpt>
      <trkpt lat="48.95533" lon="1.98176">
        <ele>75.7</ele>
        <time>2022-06-21T08:28:31Z</time>
      </trkpt>
      <trkpt lat="48.95534" lon="1.98165">
        <ele>77</ele>
        <time>2022-06-21T08:28:37Z</time>
      </trkpt>
      <trkpt lat="48.95534" lon="1.98157">
        <ele>77.7</ele>
        <time>2022-06-21T08:28:41Z</time>
      </trkpt>
      <trkpt lat="48.95535" lon="1.98149">
        <ele>79.5</ele>
        <time>2022-06-21T08:28:46Z</time>
      </trkpt>
      <trkpt lat="48.95536" lon="1.98142">
        <ele>82.3</ele>
        <time>2022-06-21T08:28:50Z</time>
      </trkpt>
      <trkpt lat="48.95537" lon="1.98134">
        <ele>83.9</ele>
        <time>2022-06-21T08:28:55Z</time>
      </trkpt>
      <trkpt lat="48.95536" lon="1.98126">
        <ele>82.1</ele>
        <time>2022-06-21T08:29:00Z</time>
      </trkpt>
      <trkpt lat="48.95533" lon="1.98119">
        <ele>79.7</ele>
        <time>2022-06-21T08:29:04Z</time>
      </trkpt>
      <trkpt lat="48.95536" lon="1.98112">
        <ele>79.3</ele>
        <time>2022-06-21T08:29:10Z</time>
      </trkpt>
      <trkpt lat="48.95539" lon="1.98105">
        <ele>80.5</ele>
        <time>2022-06-21T08:29:15Z</time>
      </trkpt>
      <trkpt lat="48.9554" lon="1.98097">
        <ele>79.6</ele>
        <time>2022-06-21T08:29:20Z</time>
      </trkpt>
      <trkpt lat="48.95538" lon="1.9809">
        <ele>79.1</ele>
        <time>2022-06-21T08:29:24Z</time>
      </trkpt>
      <trkpt lat="48.95535" lon="1.98085">
        <ele>80.6</ele>
        <time>2022-06-21T08:29:27Z</time>
      </trkpt>
      <trkpt lat="48.9553" lon="1.98085">
        <ele>80.9</ele>
        <time>2022-06-21T08:29:30Z</time>
      </trkpt>
      <trkpt lat="48.95525" lon="1.98086">
        <ele>80.8</ele>
        <time>2022-06-21T08:29:34Z</time>
      </trkpt>
      <trkpt lat="48.9552" lon="1.98086">
        <ele>81.1</ele>
        <time>2022-06-21T08:29:37Z</time>
      </trkpt>
      <trkpt lat="48.95515" lon="1.98086">
        <ele>80.7</ele>
        <time>2022-06-21T08:29:41Z</time>
      </trkpt>
      <trkpt lat="48.9551" lon="1.98086">
        <ele>81.4</ele>
        <time>2022-06-21T08:29:45Z</time>
      </trkpt>
      <trkpt lat="48.95505" lon="1.98087">
        <ele>79.5</ele>
        <time>2022-06-21T08:29:48Z</time>
      </trkpt>
      <trkpt lat="48.95499" lon="1.98087">
        <ele>81.7</ele>
        <time>2022-06-21T08:29:52Z</time>
      </trkpt>
      <trkpt lat="48.95494" lon="1.98088">
        <ele>83.3</ele>
        <time>2022-06-21T08:29:56Z</time>
      </trkpt>
      <trkpt lat="48.95489" lon="1.98088">
        <ele>83.7</ele>
        <time>2022-06-21T08:30:00Z</time>
      </trkpt>
      <trkpt lat="48.95484" lon="1.98087">
        <ele>85</ele>
        <time>2022-06-21T08:30:03Z</time>
      </trkpt>
      <trkpt lat="48.9548" lon="1.98087">
        <ele>83.1</ele>
        <time>2022-06-21T08:30:07Z</time>
      </trkpt>
      <trkpt lat="48.95474" lon="1.98087">
        <ele>83.7</ele>
        <time>2022-06-21T08:30:11Z</time>
      </trkpt>
      <trkpt lat="48.95469" lon="1.98088">
        <ele>86.9</ele>
        <time>2022-06-21T08:30:15Z</time>
      </trkpt>
      <trkpt lat="48.95464" lon="1.98089">
        <ele>88</ele>
        <time>2022-06-21T08:30:18Z</time>
      </trkpt>
      <trkpt lat="48.9546" lon="1.98089">
        <ele>88.9</ele>
        <time>2022-06-21T08:30:21Z</time>
      </trkpt>
      <trkpt lat="48.95455" lon="1.9809">
        <ele>86.1</ele>
        <time>2022-06-21T08:30:25Z</time>
      </trkpt>
      <trkpt lat="48.95451" lon="1.98091">
        <ele>85.4</ele>
        <time>2022-06-21T08:30:28Z</time>
      </trkpt>
      <trkpt lat="48.95445" lon="1.98091">
        <ele>83.5</ele>
        <time>2022-06-21T08:30:32Z</time>
      </trkpt>
      <trkpt lat="48.95441" lon="1.98092">
        <ele>81.5</ele>
        <time>2022-06-21T08:30:35Z</time>
      </trkpt>
      <trkpt lat="48.95436" lon="1.98092">
        <ele>79.9</ele>
        <time>2022-06-21T08:30:38Z</time>
      </trkpt>
      <trkpt lat="48.95431" lon="1.98093">
        <ele>82</ele>
        <time>2022-06-21T08:30:42Z</time>
      </trkpt>
      <trkpt lat="48.95425" lon="1.98095">
        <ele>81.6</ele>
        <time>2022-06-21T08:30:46Z</time>
      </trkpt>
      <trkpt lat="48.9542" lon="1.98095">
        <ele>81.8</ele>
        <time>2022-06-21T08:30:50Z</time>
      </trkpt>
      <trkpt lat="48.95409" lon="1.98096">
        <ele>85.5</ele>
        <time>2022-06-21T08:30:58Z</time>
      </trkpt>
      <trkpt lat="48.95405" lon="1.98097">
        <ele>91.7</ele>
        <time>2022-06-21T08:31:01Z</time>
      </trkpt>
      <trkpt lat="48.954" lon="1.98097">
        <ele>89.8</ele>
        <time>2022-06-21T08:31:04Z</time>
      </trkpt>
      <trkpt lat="48.95395" lon="1.98098">
        <ele>89</ele>
        <time>2022-06-21T08:31:09Z</time>
      </trkpt>
      <trkpt lat="48.9539" lon="1.98096">
        <ele>89</ele>
        <time>2022-06-21T08:31:14Z</time>
      </trkpt>
      <trkpt lat="48.95384" lon="1.98096">
        <ele>87.7</ele>
        <time>2022-06-21T08:31:19Z</time>
      </trkpt>
      <trkpt lat="48.9538" lon="1.98102">
        <ele>86.8</ele>
        <time>2022-06-21T08:31:23Z</time>
      </trkpt>
      <trkpt lat="48.95375" lon="1.98103">
        <ele>85.7</ele>
        <time>2022-06-21T08:31:28Z</time>
      </trkpt>
      <trkpt lat="48.95371" lon="1.98106">
        <ele>88.3</ele>
        <time>2022-06-21T08:31:32Z</time>
      </trkpt>
      <trkpt lat="48.95366" lon="1.98108">
        <ele>88.9</ele>
        <time>2022-06-21T08:31:36Z</time>
      </trkpt>
      <trkpt lat="48.95361" lon="1.98109">
        <ele>86.8</ele>
        <time>2022-06-21T08:31:41Z</time>
      </trkpt>
      <trkpt lat="48.95356" lon="1.98108">
        <ele>88.1</ele>
        <time>2022-06-21T08:31:45Z</time>
      </trkpt>
      <trkpt lat="48.95357" lon="1.98101">
        <ele>89.2</ele>
        <time>2022-06-21T08:31:54Z</time>
      </trkpt>
      <trkpt lat="48.95354" lon="1.98094">
        <ele>91.8</ele>
        <time>2022-06-21T08:31:57Z</time>
      </trkpt>
      <trkpt lat="48.95349" lon="1.98092">
        <ele>94.7</ele>
        <time>2022-06-21T08:32:05Z</time>
      </trkpt>
      <trkpt lat="48.95344" lon="1.98096">
        <ele>93.7</ele>
        <time>2022-06-21T08:32:10Z</time>
      </trkpt>
      <trkpt lat="48.95339" lon="1.98097">
        <ele>95</ele>
        <time>2022-06-21T08:32:13Z</time>
      </trkpt>
      <trkpt lat="48.95334" lon="1.98098">
        <ele>92.3</ele>
        <time>2022-06-21T08:32:16Z</time>
      </trkpt>
      <trkpt lat="48.95328" lon="1.98099">
        <ele>92.2</ele>
        <time>2022-06-21T08:32:21Z</time>
      </trkpt>
      <trkpt lat="48.95323" lon="1.98098">
        <ele>91.8</ele>
        <time>2022-06-21T08:32:26Z</time>
      </trkpt>
      <trkpt lat="48.95318" lon="1.98098">
        <ele>94.5</ele>
        <time>2022-06-21T08:32:30Z</time>
      </trkpt>
      <trkpt lat="48.95313" lon="1.98099">
        <ele>91.7</ele>
        <time>2022-06-21T08:32:35Z</time>
      </trkpt>
      <trkpt lat="48.95307" lon="1.981">
        <ele>89.8</ele>
        <time>2022-06-21T08:32:39Z</time>
      </trkpt>
      <trkpt lat="48.95302" lon="1.98101">
        <ele>90.1</ele>
        <time>2022-06-21T08:32:43Z</time>
      </trkpt>
      <trkpt lat="48.95297" lon="1.98102">
        <ele>89.4</ele>
        <time>2022-06-21T08:32:47Z</time>
      </trkpt>
      <trkpt lat="48.95292" lon="1.98101">
        <ele>91.7</ele>
        <time>2022-06-21T08:32:51Z</time>
      </trkpt>
      <trkpt lat="48.95286" lon="1.98099">
        <ele>92.5</ele>
        <time>2022-06-21T08:32:57Z</time>
      </trkpt>
      <trkpt lat="48.9528" lon="1.981">
        <ele>94.6</ele>
        <time>2022-06-21T08:33:01Z</time>
      </trkpt>
      <trkpt lat="48.95275" lon="1.98101">
        <ele>93.8</ele>
        <time>2022-06-21T08:33:04Z</time>
      </trkpt>
      <trkpt lat="48.95271" lon="1.98099">
        <ele>94.4</ele>
        <time>2022-06-21T08:33:08Z</time>
      </trkpt>
      <trkpt lat="48.95266" lon="1.98099">
        <ele>91.7</ele>
        <time>2022-06-21T08:33:12Z</time>
      </trkpt>
      <trkpt lat="48.95261" lon="1.98098">
        <ele>93</ele>
        <time>2022-06-21T08:33:17Z</time>
      </trkpt>
      <trkpt lat="48.95256" lon="1.98097">
        <ele>92.8</ele>
        <time>2022-06-21T08:33:21Z</time>
      </trkpt>
      <trkpt lat="48.9525" lon="1.98094">
        <ele>91.3</ele>
        <time>2022-06-21T08:33:26Z</time>
      </trkpt>
      <trkpt lat="48.95245" lon="1.98092">
        <ele>92.7</ele>
        <time>2022-06-21T08:33:31Z</time>
      </trkpt>
      <trkpt lat="48.95241" lon="1.98091">
        <ele>95.5</ele>
        <time>2022-06-21T08:33:35Z</time>
      </trkpt>
      <trkpt lat="48.95236" lon="1.9809">
        <ele>96.1</ele>
        <time>2022-06-21T08:33:39Z</time>
      </trkpt>
      <trkpt lat="48.95231" lon="1.98089">
        <ele>97.6</ele>
        <time>2022-06-21T08:33:44Z</time>
      </trkpt>
      <trkpt lat="48.95226" lon="1.98089">
        <ele>97.7</ele>
        <time>2022-06-21T08:33:49Z</time>
      </trkpt>
      <trkpt lat="48.95222" lon="1.98084">
        <ele>98</ele>
        <time>2022-06-21T08:33:55Z</time>
      </trkpt>
      <trkpt lat="48.95217" lon="1.98082">
        <ele>98.7</ele>
        <time>2022-06-21T08:34:00Z</time>
      </trkpt>
      <trkpt lat="48.95211" lon="1.98081">
        <ele>98</ele>
        <time>2022-06-21T08:34:05Z</time>
      </trkpt>
      <trkpt lat="48.95206" lon="1.9808">
        <ele>99.2</ele>
        <time>2022-06-21T08:34:10Z</time>
      </trkpt>
      <trkpt lat="48.95201" lon="1.98079">
        <ele>100.2</ele>
        <time>2022-06-21T08:34:14Z</time>
      </trkpt>
      <trkpt lat="48.95196" lon="1.98079">
        <ele>99.4</ele>
        <time>2022-06-21T08:34:18Z</time>
      </trkpt>
      <trkpt lat="48.95191" lon="1.9808">
        <ele>100.3</ele>
        <time>2022-06-21T08:34:22Z</time>
      </trkpt>
      <trkpt lat="48.95185" lon="1.98079">
        <ele>102.5</ele>
        <time>2022-06-21T08:34:26Z</time>
      </trkpt>
      <trkpt lat="48.95179" lon="1.98078">
        <ele>104.6</ele>
        <time>2022-06-21T08:34:31Z</time>
      </trkpt>
      <trkpt lat="48.95175" lon="1.98076">
        <ele>105.9</ele>
        <time>2022-06-21T08:34:35Z</time>
      </trkpt>
      <trkpt lat="48.9517" lon="1.98073">
        <ele>101.7</ele>
        <time>2022-06-21T08:34:39Z</time>
      </trkpt>
      <trkpt lat="48.95166" lon="1.98069">
        <ele>94.6</ele>
        <time>2022-06-21T08:34:43Z</time>
      </trkpt>
      <trkpt lat="48.95166" lon="1.98056">
        <ele>101.4</ele>
        <time>2022-06-21T08:34:51Z</time>
      </trkpt>
      <trkpt lat="48.9516" lon="1.98057">
        <ele>97.4</ele>
        <time>2022-06-21T08:34:58Z</time>
      </trkpt>
      <trkpt lat="48.95155" lon="1.98058">
        <ele>98.6</ele>
        <time>2022-06-21T08:35:02Z</time>
      </trkpt>
      <trkpt lat="48.9515" lon="1.98057">
        <ele>98.5</ele>
        <time>2022-06-21T08:35:07Z</time>
      </trkpt>
      <trkpt lat="48.95144" lon="1.98055">
        <ele>97.1</ele>
        <time>2022-06-21T08:35:11Z</time>
      </trkpt>
      <trkpt lat="48.95143" lon="1.98048">
        <ele>96.1</ele>
        <time>2022-06-21T08:35:16Z</time>
      </trkpt>
      <trkpt lat="48.95139" lon="1.98045">
        <ele>98.2</ele>
        <time>2022-06-21T08:35:21Z</time>
      </trkpt>
      <trkpt lat="48.95135" lon="1.98041">
        <ele>99.8</ele>
        <time>2022-06-21T08:35:25Z</time>
      </trkpt>
      <trkpt lat="48.95129" lon="1.98037">
        <ele>102</ele>
        <time>2022-06-21T08:35:30Z</time>
      </trkpt>
      <trkpt lat="48.95125" lon="1.98033">
        <ele>100.4</ele>
        <time>2022-06-21T08:35:34Z</time>
      </trkpt>
      <trkpt lat="48.9512" lon="1.9803">
        <ele>101</ele>
        <time>2022-06-21T08:35:38Z</time>
      </trkpt>
      <trkpt lat="48.95115" lon="1.98026">
        <ele>102.2</ele>
        <time>2022-06-21T08:35:42Z</time>
      </trkpt>
      <trkpt lat="48.9511" lon="1.98022">
        <ele>102.8</ele>
        <time>2022-06-21T08:35:47Z</time>
      </trkpt>
      <trkpt lat="48.95106" lon="1.98019">
        <ele>104.3</ele>
        <time>2022-06-21T08:35:51Z</time>
      </trkpt>
      <trkpt lat="48.95101" lon="1.98017">
        <ele>103.6</ele>
        <time>2022-06-21T08:35:55Z</time>
      </trkpt>
      <trkpt lat="48.95096" lon="1.98013">
        <ele>105.5</ele>
        <time>2022-06-21T08:36:00Z</time>
      </trkpt>
      <trkpt lat="48.95091" lon="1.98009">
        <ele>105.2</ele>
        <time>2022-06-21T08:36:04Z</time>
      </trkpt>
      <trkpt lat="48.95086" lon="1.98007">
        <ele>102.7</ele>
        <time>2022-06-21T08:36:08Z</time>
      </trkpt>
      <trkpt lat="48.95082" lon="1.98006">
        <ele>100.1</ele>
        <time>2022-06-21T08:36:12Z</time>
      </trkpt>
      <trkpt lat="48.95077" lon="1.98002">
        <ele>100.4</ele>
        <time>2022-06-21T08:36:17Z</time>
      </trkpt>
      <trkpt lat="48.95071" lon="1.97999">
        <ele>104</ele>
        <time>2022-06-21T08:36:22Z</time>
      </trkpt>
      <trkpt lat="48.95067" lon="1.97997">
        <ele>104.7</ele>
        <time>2022-06-21T08:36:26Z</time>
      </trkpt>
      <trkpt lat="48.95062" lon="1.97993">
        <ele>105.9</ele>
        <time>2022-06-21T08:36:30Z</time>
      </trkpt>
      <trkpt lat="48.95057" lon="1.97989">
        <ele>106.5</ele>
        <time>2022-06-21T08:36:34Z</time>
      </trkpt>
      <trkpt lat="48.95053" lon="1.97987">
        <ele>107</ele>
        <time>2022-06-21T08:36:38Z</time>
      </trkpt>
      <trkpt lat="48.95047" lon="1.97985">
        <ele>107.7</ele>
        <time>2022-06-21T08:36:42Z</time>
      </trkpt>
      <trkpt lat="48.95042" lon="1.97983">
        <ele>108</ele>
        <time>2022-06-21T08:36:47Z</time>
      </trkpt>
      <trkpt lat="48.95036" lon="1.97981">
        <ele>109.4</ele>
        <time>2022-06-21T08:36:52Z</time>
      </trkpt>
      <trkpt lat="48.95032" lon="1.97976">
        <ele>110.7</ele>
        <time>2022-06-21T08:36:56Z</time>
      </trkpt>
      <trkpt lat="48.9503" lon="1.97983">
        <ele>106.8</ele>
        <time>2022-06-21T08:37:29Z</time>
      </trkpt>
      <trkpt lat="48.95025" lon="1.97989">
        <ele>105.9</ele>
        <time>2022-06-21T08:37:34Z</time>
      </trkpt>
      <trkpt lat="48.95021" lon="1.97993">
        <ele>105.7</ele>
        <time>2022-06-21T08:37:37Z</time>
      </trkpt>
      <trkpt lat="48.95016" lon="1.97996">
        <ele>104.2</ele>
        <time>2022-06-21T08:37:41Z</time>
      </trkpt>
      <trkpt lat="48.95011" lon="1.98">
        <ele>105</ele>
        <time>2022-06-21T08:37:45Z</time>
      </trkpt>
      <trkpt lat="48.95007" lon="1.98002">
        <ele>103.5</ele>
        <time>2022-06-21T08:37:49Z</time>
      </trkpt>
      <trkpt lat="48.95002" lon="1.98004">
        <ele>102</ele>
        <time>2022-06-21T08:37:54Z</time>
      </trkpt>
      <trkpt lat="48.94997" lon="1.98006">
        <ele>102.6</ele>
        <time>2022-06-21T08:37:59Z</time>
      </trkpt>
      <trkpt lat="48.94991" lon="1.98008">
        <ele>104.9</ele>
        <time>2022-06-21T08:38:04Z</time>
      </trkpt>
      <trkpt lat="48.94986" lon="1.9801">
        <ele>107.7</ele>
        <time>2022-06-21T08:38:09Z</time>
      </trkpt>
      <trkpt lat="48.94981" lon="1.98012">
        <ele>106.5</ele>
        <time>2022-06-21T08:38:13Z</time>
      </trkpt>
      <trkpt lat="48.94977" lon="1.98013">
        <ele>107.7</ele>
        <time>2022-06-21T08:38:17Z</time>
      </trkpt>
      <trkpt lat="48.94972" lon="1.98017">
        <ele>106.9</ele>
        <time>2022-06-21T08:38:21Z</time>
      </trkpt>
      <trkpt lat="48.94967" lon="1.9802">
        <ele>104</ele>
        <time>2022-06-21T08:38:26Z</time>
      </trkpt>
      <trkpt lat="48.94963" lon="1.98025">
        <ele>102.4</ele>
        <time>2022-06-21T08:38:32Z</time>
      </trkpt>
      <trkpt lat="48.9496" lon="1.9803">
        <ele>103.4</ele>
        <time>2022-06-21T08:38:37Z</time>
      </trkpt>
      <trkpt lat="48.94958" lon="1.98037">
        <ele>104.7</ele>
        <time>2022-06-21T08:38:42Z</time>
      </trkpt>
      <trkpt lat="48.94958" lon="1.98045">
        <ele>107.9</ele>
        <time>2022-06-21T08:38:47Z</time>
      </trkpt>
      <trkpt lat="48.9496" lon="1.98053">
        <ele>109.6</ele>
        <time>2022-06-21T08:38:51Z</time>
      </trkpt>
      <trkpt lat="48.9496" lon="1.98061">
        <ele>108.3</ele>
        <time>2022-06-21T08:38:56Z</time>
      </trkpt>
      <trkpt lat="48.9496" lon="1.98069">
        <ele>111.2</ele>
        <time>2022-06-21T08:39:01Z</time>
      </trkpt>
      <trkpt lat="48.94958" lon="1.98077">
        <ele>110.4</ele>
        <time>2022-06-21T08:39:06Z</time>
      </trkpt>
      <trkpt lat="48.94956" lon="1.98085">
        <ele>111.3</ele>
        <time>2022-06-21T08:39:11Z</time>
      </trkpt>
      <trkpt lat="48.94955" lon="1.98093">
        <ele>109.5</ele>
        <time>2022-06-21T08:39:16Z</time>
      </trkpt>
      <trkpt lat="48.94954" lon="1.981">
        <ele>107.4</ele>
        <time>2022-06-21T08:39:20Z</time>
      </trkpt>
      <trkpt lat="48.94953" lon="1.98108">
        <ele>107.2</ele>
        <time>2022-06-21T08:39:25Z</time>
      </trkpt>
      <trkpt lat="48.94952" lon="1.98116">
        <ele>112.1</ele>
        <time>2022-06-21T08:39:30Z</time>
      </trkpt>
      <trkpt lat="48.9495" lon="1.98123">
        <ele>112</ele>
        <time>2022-06-21T08:39:34Z</time>
      </trkpt>
      <trkpt lat="48.9495" lon="1.9813">
        <ele>109.6</ele>
        <time>2022-06-21T08:39:38Z</time>
      </trkpt>
      <trkpt lat="48.9495" lon="1.98137">
        <ele>107.7</ele>
        <time>2022-06-21T08:39:43Z</time>
      </trkpt>
      <trkpt lat="48.94949" lon="1.98144">
        <ele>106.9</ele>
        <time>2022-06-21T08:39:48Z</time>
      </trkpt>
      <trkpt lat="48.94948" lon="1.98151">
        <ele>107</ele>
        <time>2022-06-21T08:39:52Z</time>
      </trkpt>
      <trkpt lat="48.94948" lon="1.98158">
        <ele>101.7</ele>
        <time>2022-06-21T08:39:56Z</time>
      </trkpt>
      <trkpt lat="48.94945" lon="1.98165">
        <ele>101.6</ele>
        <time>2022-06-21T08:40:01Z</time>
      </trkpt>
      <trkpt lat="48.94941" lon="1.9817">
        <ele>101.8</ele>
        <time>2022-06-21T08:40:05Z</time>
      </trkpt>
      <trkpt lat="48.94938" lon="1.98176">
        <ele>100.6</ele>
        <time>2022-06-21T08:40:10Z</time>
      </trkpt>
      <trkpt lat="48.94937" lon="1.98183">
        <ele>98.9</ele>
        <time>2022-06-21T08:40:15Z</time>
      </trkpt>
      <trkpt lat="48.94933" lon="1.98188">
        <ele>98.8</ele>
        <time>2022-06-21T08:40:19Z</time>
      </trkpt>
      <trkpt lat="48.94929" lon="1.98192">
        <ele>98.5</ele>
        <time>2022-06-21T08:40:23Z</time>
      </trkpt>
      <trkpt lat="48.94925" lon="1.98196">
        <ele>96.3</ele>
        <time>2022-06-21T08:40:27Z</time>
      </trkpt>
      <trkpt lat="48.94921" lon="1.982">
        <ele>96</ele>
        <time>2022-06-21T08:40:31Z</time>
      </trkpt>
      <trkpt lat="48.94916" lon="1.98204">
        <ele>94</ele>
        <time>2022-06-21T08:40:35Z</time>
      </trkpt>
      <trkpt lat="48.94912" lon="1.98208">
        <ele>93</ele>
        <time>2022-06-21T08:40:39Z</time>
      </trkpt>
      <trkpt lat="48.94908" lon="1.98212">
        <ele>91.8</ele>
        <time>2022-06-21T08:40:43Z</time>
      </trkpt>
      <trkpt lat="48.94904" lon="1.98217">
        <ele>88.2</ele>
        <time>2022-06-21T08:40:47Z</time>
      </trkpt>
      <trkpt lat="48.94901" lon="1.98222">
        <ele>89.1</ele>
        <time>2022-06-21T08:40:51Z</time>
      </trkpt>
      <trkpt lat="48.94897" lon="1.98225">
        <ele>90</ele>
        <time>2022-06-21T08:40:55Z</time>
      </trkpt>
      <trkpt lat="48.94893" lon="1.9823">
        <ele>90</ele>
        <time>2022-06-21T08:40:59Z</time>
      </trkpt>
      <trkpt lat="48.9489" lon="1.98237">
        <ele>89.7</ele>
        <time>2022-06-21T08:41:02Z</time>
      </trkpt>
      <trkpt lat="48.94886" lon="1.98242">
        <ele>92.1</ele>
        <time>2022-06-21T08:41:07Z</time>
      </trkpt>
      <trkpt lat="48.94882" lon="1.98247">
        <ele>93.9</ele>
        <time>2022-06-21T08:41:11Z</time>
      </trkpt>
      <trkpt lat="48.94877" lon="1.98249">
        <ele>93.8</ele>
        <time>2022-06-21T08:41:16Z</time>
      </trkpt>
      <trkpt lat="48.94872" lon="1.98252">
        <ele>92.6</ele>
        <time>2022-06-21T08:41:20Z</time>
      </trkpt>
      <trkpt lat="48.94868" lon="1.98255">
        <ele>92.1</ele>
        <time>2022-06-21T08:41:24Z</time>
      </trkpt>
      <trkpt lat="48.94863" lon="1.9826">
        <ele>92.2</ele>
        <time>2022-06-21T08:41:29Z</time>
      </trkpt>
      <trkpt lat="48.94858" lon="1.98264">
        <ele>91</ele>
        <time>2022-06-21T08:41:34Z</time>
      </trkpt>
      <trkpt lat="48.94854" lon="1.9827">
        <ele>90</ele>
        <time>2022-06-21T08:41:38Z</time>
      </trkpt>
      <trkpt lat="48.9485" lon="1.98273">
        <ele>90</ele>
        <time>2022-06-21T08:41:42Z</time>
      </trkpt>
      <trkpt lat="48.94846" lon="1.98276">
        <ele>88.6</ele>
        <time>2022-06-21T08:41:47Z</time>
      </trkpt>
      <trkpt lat="48.94841" lon="1.98281">
        <ele>91.1</ele>
        <time>2022-06-21T08:41:52Z</time>
      </trkpt>
      <trkpt lat="48.94837" lon="1.98287">
        <ele>91.5</ele>
        <time>2022-06-21T08:41:56Z</time>
      </trkpt>
      <trkpt lat="48.94832" lon="1.9829">
        <ele>91.5</ele>
        <time>2022-06-21T08:42:00Z</time>
      </trkpt>
      <trkpt lat="48.94828" lon="1.98294">
        <ele>88.3</ele>
        <time>2022-06-21T08:42:04Z</time>
      </trkpt>
      <trkpt lat="48.94824" lon="1.98301">
        <ele>88.7</ele>
        <time>2022-06-21T08:42:08Z</time>
      </trkpt>
      <trkpt lat="48.94821" lon="1.98305">
        <ele>87.6</ele>
        <time>2022-06-21T08:42:11Z</time>
      </trkpt>
      <trkpt lat="48.94817" lon="1.98309">
        <ele>89.3</ele>
        <time>2022-06-21T08:42:15Z</time>
      </trkpt>
      <trkpt lat="48.94812" lon="1.98314">
        <ele>88.6</ele>
        <time>2022-06-21T08:42:19Z</time>
      </trkpt>
      <trkpt lat="48.94808" lon="1.98319">
        <ele>86.8</ele>
        <time>2022-06-21T08:42:23Z</time>
      </trkpt>
      <trkpt lat="48.94804" lon="1.98323">
        <ele>85.8</ele>
        <time>2022-06-21T08:42:27Z</time>
      </trkpt>
      <trkpt lat="48.948" lon="1.98328">
        <ele>88</ele>
        <time>2022-06-21T08:42:30Z</time>
      </trkpt>
      <trkpt lat="48.94795" lon="1.98332">
        <ele>89.1</ele>
        <time>2022-06-21T08:42:34Z</time>
      </trkpt>
      <trkpt lat="48.94791" lon="1.98336">
        <ele>89.5</ele>
        <time>2022-06-21T08:42:38Z</time>
      </trkpt>
      <trkpt lat="48.94785" lon="1.9834">
        <ele>90.2</ele>
        <time>2022-06-21T08:42:42Z</time>
      </trkpt>
      <trkpt lat="48.94781" lon="1.98344">
        <ele>90.2</ele>
        <time>2022-06-21T08:42:46Z</time>
      </trkpt>
      <trkpt lat="48.94777" lon="1.98349">
        <ele>91.1</ele>
        <time>2022-06-21T08:42:50Z</time>
      </trkpt>
      <trkpt lat="48.94773" lon="1.98353">
        <ele>92.1</ele>
        <time>2022-06-21T08:42:55Z</time>
      </trkpt>
      <trkpt lat="48.9477" lon="1.98359">
        <ele>92.8</ele>
        <time>2022-06-21T08:43:01Z</time>
      </trkpt>
      <trkpt lat="48.94766" lon="1.98365">
        <ele>94.7</ele>
        <time>2022-06-21T08:43:06Z</time>
      </trkpt>
      <trkpt lat="48.94762" lon="1.9837">
        <ele>94.2</ele>
        <time>2022-06-21T08:43:10Z</time>
      </trkpt>
      <trkpt lat="48.94758" lon="1.98375">
        <ele>94</ele>
        <time>2022-06-21T08:43:14Z</time>
      </trkpt>
      <trkpt lat="48.94754" lon="1.9838">
        <ele>95.4</ele>
        <time>2022-06-21T08:43:18Z</time>
      </trkpt>
      <trkpt lat="48.9475" lon="1.98383">
        <ele>93.4</ele>
        <time>2022-06-21T08:43:23Z</time>
      </trkpt>
      <trkpt lat="48.94745" lon="1.98385">
        <ele>95.1</ele>
        <time>2022-06-21T08:43:28Z</time>
      </trkpt>
      <trkpt lat="48.94741" lon="1.98388">
        <ele>93.8</ele>
        <time>2022-06-21T08:43:32Z</time>
      </trkpt>
      <trkpt lat="48.94737" lon="1.98392">
        <ele>91.3</ele>
        <time>2022-06-21T08:43:36Z</time>
      </trkpt>
      <trkpt lat="48.94732" lon="1.98396">
        <ele>95.7</ele>
        <time>2022-06-21T08:43:41Z</time>
      </trkpt>
      <trkpt lat="48.94728" lon="1.984">
        <ele>95.9</ele>
        <time>2022-06-21T08:43:46Z</time>
      </trkpt>
      <trkpt lat="48.94723" lon="1.98407">
        <ele>98</ele>
        <time>2022-06-21T08:43:51Z</time>
      </trkpt>
      <trkpt lat="48.94719" lon="1.98413">
        <ele>99.2</ele>
        <time>2022-06-21T08:43:56Z</time>
      </trkpt>
      <trkpt lat="48.94715" lon="1.98418">
        <ele>100.2</ele>
        <time>2022-06-21T08:44:00Z</time>
      </trkpt>
      <trkpt lat="48.94711" lon="1.98423">
        <ele>100.3</ele>
        <time>2022-06-21T08:44:06Z</time>
      </trkpt>
      <trkpt lat="48.94707" lon="1.98426">
        <ele>101.3</ele>
        <time>2022-06-21T08:44:10Z</time>
      </trkpt>
      <trkpt lat="48.94702" lon="1.98428">
        <ele>101.5</ele>
        <time>2022-06-21T08:44:15Z</time>
      </trkpt>
      <trkpt lat="48.94697" lon="1.98431">
        <ele>101.1</ele>
        <time>2022-06-21T08:44:20Z</time>
      </trkpt>
      <trkpt lat="48.94692" lon="1.98434">
        <ele>100.5</ele>
        <time>2022-06-21T08:44:26Z</time>
      </trkpt>
      <trkpt lat="48.94687" lon="1.98437">
        <ele>103.1</ele>
        <time>2022-06-21T08:44:31Z</time>
      </trkpt>
      <trkpt lat="48.94685" lon="1.98443">
        <ele>105.5</ele>
        <time>2022-06-21T08:44:35Z</time>
      </trkpt>
      <trkpt lat="48.94686" lon="1.98452">
        <ele>104.1</ele>
        <time>2022-06-21T08:44:39Z</time>
      </trkpt>
      <trkpt lat="48.94688" lon="1.98459">
        <ele>103.1</ele>
        <time>2022-06-21T08:44:43Z</time>
      </trkpt>
      <trkpt lat="48.9469" lon="1.98466">
        <ele>104.3</ele>
        <time>2022-06-21T08:44:47Z</time>
      </trkpt>
      <trkpt lat="48.94692" lon="1.98473">
        <ele>105</ele>
        <time>2022-06-21T08:44:51Z</time>
      </trkpt>
      <trkpt lat="48.94694" lon="1.9848">
        <ele>104.3</ele>
        <time>2022-06-21T08:44:56Z</time>
      </trkpt>
      <trkpt lat="48.94696" lon="1.98488">
        <ele>102.2</ele>
        <time>2022-06-21T08:45:00Z</time>
      </trkpt>
      <trkpt lat="48.94696" lon="1.98496">
        <ele>101.2</ele>
        <time>2022-06-21T08:45:05Z</time>
      </trkpt>
      <trkpt lat="48.94696" lon="1.98503">
        <ele>101.4</ele>
        <time>2022-06-21T08:45:09Z</time>
      </trkpt>
      <trkpt lat="48.94695" lon="1.98511">
        <ele>107.3</ele>
        <time>2022-06-21T08:45:14Z</time>
      </trkpt>
      <trkpt lat="48.94696" lon="1.98519">
        <ele>105.7</ele>
        <time>2022-06-21T08:45:20Z</time>
      </trkpt>
      <trkpt lat="48.94696" lon="1.98527">
        <ele>104.3</ele>
        <time>2022-06-21T08:45:24Z</time>
      </trkpt>
      <trkpt lat="48.94695" lon="1.98535">
        <ele>106.8</ele>
        <time>2022-06-21T08:45:29Z</time>
      </trkpt>
      <trkpt lat="48.94694" lon="1.98543">
        <ele>108.6</ele>
        <time>2022-06-21T08:45:34Z</time>
      </trkpt>
      <trkpt lat="48.94691" lon="1.98551">
        <ele>106.9</ele>
        <time>2022-06-21T08:45:39Z</time>
      </trkpt>
      <trkpt lat="48.94687" lon="1.98557">
        <ele>106.6</ele>
        <time>2022-06-21T08:45:43Z</time>
      </trkpt>
      <trkpt lat="48.94683" lon="1.98561">
        <ele>107.1</ele>
        <time>2022-06-21T08:45:47Z</time>
      </trkpt>
      <trkpt lat="48.94679" lon="1.98566">
        <ele>106.9</ele>
        <time>2022-06-21T08:46:12Z</time>
      </trkpt>
      <trkpt lat="48.94679" lon="1.98573">
        <ele>103.8</ele>
        <time>2022-06-21T08:46:35Z</time>
      </trkpt>
      <trkpt lat="48.94674" lon="1.98589">
        <ele>106.3</ele>
        <time>2022-06-21T08:48:23Z</time>
      </trkpt>
      <trkpt lat="48.94672" lon="1.98597">
        <ele>106.7</ele>
        <time>2022-06-21T08:48:28Z</time>
      </trkpt>
      <trkpt lat="48.94673" lon="1.98605">
        <ele>109.5</ele>
        <time>2022-06-21T08:48:33Z</time>
      </trkpt>
      <trkpt lat="48.94672" lon="1.98612">
        <ele>110.2</ele>
        <time>2022-06-21T08:48:37Z</time>
      </trkpt>
      <trkpt lat="48.9467" lon="1.98619">
        <ele>112.1</ele>
        <time>2022-06-21T08:48:42Z</time>
      </trkpt>
      <trkpt lat="48.94667" lon="1.98625">
        <ele>111.1</ele>
        <time>2022-06-21T08:48:46Z</time>
      </trkpt>
      <trkpt lat="48.94665" lon="1.98631">
        <ele>110.3</ele>
        <time>2022-06-21T08:48:50Z</time>
      </trkpt>
      <trkpt lat="48.94661" lon="1.98637">
        <ele>108.5</ele>
        <time>2022-06-21T08:48:55Z</time>
      </trkpt>
      <trkpt lat="48.94658" lon="1.98643">
        <ele>107.9</ele>
        <time>2022-06-21T08:49:01Z</time>
      </trkpt>
      <trkpt lat="48.94655" lon="1.98649">
        <ele>108.4</ele>
        <time>2022-06-21T08:49:05Z</time>
      </trkpt>
      <trkpt lat="48.94652" lon="1.98656">
        <ele>107.3</ele>
        <time>2022-06-21T08:49:09Z</time>
      </trkpt>
      <trkpt lat="48.9465" lon="1.98663">
        <ele>106.2</ele>
        <time>2022-06-21T08:49:14Z</time>
      </trkpt>
      <trkpt lat="48.94648" lon="1.98671">
        <ele>106.1</ele>
        <time>2022-06-21T08:49:19Z</time>
      </trkpt>
      <trkpt lat="48.94647" lon="1.98677">
        <ele>105.2</ele>
        <time>2022-06-21T08:49:23Z</time>
      </trkpt>
      <trkpt lat="48.94645" lon="1.98684">
        <ele>104.7</ele>
        <time>2022-06-21T08:49:27Z</time>
      </trkpt>
      <trkpt lat="48.94644" lon="1.9869">
        <ele>104.1</ele>
        <time>2022-06-21T08:49:31Z</time>
      </trkpt>
      <trkpt lat="48.94642" lon="1.98697">
        <ele>104.1</ele>
        <time>2022-06-21T08:49:35Z</time>
      </trkpt>
      <trkpt lat="48.9464" lon="1.98704">
        <ele>107.2</ele>
        <time>2022-06-21T08:49:39Z</time>
      </trkpt>
      <trkpt lat="48.94639" lon="1.98711">
        <ele>107.5</ele>
        <time>2022-06-21T08:49:42Z</time>
      </trkpt>
      <trkpt lat="48.94638" lon="1.98718">
        <ele>106.7</ele>
        <time>2022-06-21T08:49:46Z</time>
      </trkpt>
      <trkpt lat="48.94634" lon="1.98724">
        <ele>105.6</ele>
        <time>2022-06-21T08:49:50Z</time>
      </trkpt>
      <trkpt lat="48.94632" lon="1.9873">
        <ele>104.7</ele>
        <time>2022-06-21T08:49:54Z</time>
      </trkpt>
      <trkpt lat="48.94634" lon="1.98735">
        <ele>104.9</ele>
        <time>2022-06-21T08:50:13Z</time>
      </trkpt>
      <trkpt lat="48.94639" lon="1.98733">
        <ele>104.5</ele>
        <time>2022-06-21T08:50:20Z</time>
      </trkpt>
      <trkpt lat="48.94635" lon="1.98728">
        <ele>106.7</ele>
        <time>2022-06-21T08:50:26Z</time>
      </trkpt>
      <trkpt lat="48.94631" lon="1.98729">
        <ele>107.6</ele>
        <time>2022-06-21T08:50:34Z</time>
      </trkpt>
      <trkpt lat="48.94627" lon="1.98734">
        <ele>107.2</ele>
        <time>2022-06-21T08:50:40Z</time>
      </trkpt>
      <trkpt lat="48.94628" lon="1.98727">
        <ele>106.9</ele>
        <time>2022-06-21T08:51:12Z</time>
      </trkpt>
      <trkpt lat="48.94633" lon="1.98729">
        <ele>104.8</ele>
        <time>2022-06-21T08:51:27Z</time>
      </trkpt>
      <trkpt lat="48.94629" lon="1.98733">
        <ele>101.8</ele>
        <time>2022-06-21T08:51:51Z</time>
      </trkpt>
      <trkpt lat="48.94628" lon="1.9874">
        <ele>102.7</ele>
        <time>2022-06-21T08:51:58Z</time>
      </trkpt>
      <trkpt lat="48.94633" lon="1.98742">
        <ele>100.1</ele>
        <time>2022-06-21T08:52:43Z</time>
      </trkpt>
      <trkpt lat="48.9463" lon="1.98736">
        <ele>103.8</ele>
        <time>2022-06-21T08:53:12Z</time>
      </trkpt>
      <trkpt lat="48.94635" lon="1.9874">
        <ele>104.6</ele>
        <time>2022-06-21T08:53:35Z</time>
      </trkpt>
      <trkpt lat="48.94634" lon="1.98748">
        <ele>100</ele>
        <time>2022-06-21T08:54:18Z</time>
      </trkpt>
      <trkpt lat="48.94632" lon="1.98755">
        <ele>99.2</ele>
        <time>2022-06-21T08:54:22Z</time>
      </trkpt>
      <trkpt lat="48.94629" lon="1.9876">
        <ele>99.8</ele>
        <time>2022-06-21T08:54:26Z</time>
      </trkpt>
      <trkpt lat="48.94625" lon="1.98764">
        <ele>102.1</ele>
        <time>2022-06-21T08:54:30Z</time>
      </trkpt>
      <trkpt lat="48.94621" lon="1.98767">
        <ele>105.8</ele>
        <time>2022-06-21T08:54:35Z</time>
      </trkpt>
      <trkpt lat="48.94616" lon="1.9877">
        <ele>106.5</ele>
        <time>2022-06-21T08:54:39Z</time>
      </trkpt>
      <trkpt lat="48.94612" lon="1.98774">
        <ele>107.2</ele>
        <time>2022-06-21T08:54:42Z</time>
      </trkpt>
      <trkpt lat="48.94607" lon="1.98777">
        <ele>108.8</ele>
        <time>2022-06-21T08:54:47Z</time>
      </trkpt>
      <trkpt lat="48.94612" lon="1.98779">
        <ele>108.9</ele>
        <time>2022-06-21T08:55:01Z</time>
      </trkpt>
      <trkpt lat="48.94607" lon="1.98776">
        <ele>112.6</ele>
        <time>2022-06-21T08:56:20Z</time>
      </trkpt>
      <trkpt lat="48.94602" lon="1.98775">
        <ele>111.8</ele>
        <time>2022-06-21T08:56:24Z</time>
      </trkpt>
      <trkpt lat="48.94597" lon="1.98774">
        <ele>111.3</ele>
        <time>2022-06-21T08:56:28Z</time>
      </trkpt>
      <trkpt lat="48.94591" lon="1.98775">
        <ele>108.3</ele>
        <time>2022-06-21T08:56:32Z</time>
      </trkpt>
      <trkpt lat="48.94588" lon="1.9878">
        <ele>106.6</ele>
        <time>2022-06-21T08:56:36Z</time>
      </trkpt>
      <trkpt lat="48.94584" lon="1.98788">
        <ele>100.3</ele>
        <time>2022-06-21T08:56:40Z</time>
      </trkpt>
      <trkpt lat="48.9458" lon="1.98793">
        <ele>96.8</ele>
        <time>2022-06-21T08:56:44Z</time>
      </trkpt>
      <trkpt lat="48.94575" lon="1.98796">
        <ele>96.1</ele>
        <time>2022-06-21T08:56:48Z</time>
      </trkpt>
      <trkpt lat="48.9457" lon="1.988">
        <ele>94</ele>
        <time>2022-06-21T08:56:52Z</time>
      </trkpt>
      <trkpt lat="48.94566" lon="1.98803">
        <ele>94.7</ele>
        <time>2022-06-21T08:56:56Z</time>
      </trkpt>
      <trkpt lat="48.94562" lon="1.98806">
        <ele>97.9</ele>
        <time>2022-06-21T08:57:00Z</time>
      </trkpt>
      <trkpt lat="48.94557" lon="1.98809">
        <ele>95.2</ele>
        <time>2022-06-21T08:57:04Z</time>
      </trkpt>
      <trkpt lat="48.94552" lon="1.98814">
        <ele>93.1</ele>
        <time>2022-06-21T08:57:08Z</time>
      </trkpt>
      <trkpt lat="48.94549" lon="1.98819">
        <ele>92.4</ele>
        <time>2022-06-21T08:57:12Z</time>
      </trkpt>
      <trkpt lat="48.94545" lon="1.98825">
        <ele>91</ele>
        <time>2022-06-21T08:57:17Z</time>
      </trkpt>
      <trkpt lat="48.94541" lon="1.98832">
        <ele>92.5</ele>
        <time>2022-06-21T08:57:21Z</time>
      </trkpt>
      <trkpt lat="48.94538" lon="1.98837">
        <ele>91.6</ele>
        <time>2022-06-21T08:57:25Z</time>
      </trkpt>
      <trkpt lat="48.94533" lon="1.98839">
        <ele>92.8</ele>
        <time>2022-06-21T08:57:30Z</time>
      </trkpt>
      <trkpt lat="48.94528" lon="1.98842">
        <ele>93.5</ele>
        <time>2022-06-21T08:57:34Z</time>
      </trkpt>
      <trkpt lat="48.94524" lon="1.98847">
        <ele>90.8</ele>
        <time>2022-06-21T08:57:39Z</time>
      </trkpt>
      <trkpt lat="48.94519" lon="1.98851">
        <ele>91.5</ele>
        <time>2022-06-21T08:57:44Z</time>
      </trkpt>
      <trkpt lat="48.94515" lon="1.98855">
        <ele>93.6</ele>
        <time>2022-06-21T08:57:48Z</time>
      </trkpt>
      <trkpt lat="48.94511" lon="1.98857">
        <ele>93.6</ele>
        <time>2022-06-21T08:57:51Z</time>
      </trkpt>
      <trkpt lat="48.94505" lon="1.98858">
        <ele>93.4</ele>
        <time>2022-06-21T08:57:56Z</time>
      </trkpt>
      <trkpt lat="48.945" lon="1.98861">
        <ele>94.6</ele>
        <time>2022-06-21T08:58:01Z</time>
      </trkpt>
      <trkpt lat="48.94495" lon="1.98866">
        <ele>93.4</ele>
        <time>2022-06-21T08:58:05Z</time>
      </trkpt>
      <trkpt lat="48.94492" lon="1.9887">
        <ele>91.8</ele>
        <time>2022-06-21T08:58:09Z</time>
      </trkpt>
      <trkpt lat="48.94488" lon="1.98875">
        <ele>93.2</ele>
        <time>2022-06-21T08:58:13Z</time>
      </trkpt>
      <trkpt lat="48.94483" lon="1.98879">
        <ele>94.4</ele>
        <time>2022-06-21T08:58:17Z</time>
      </trkpt>
      <trkpt lat="48.94478" lon="1.9888">
        <ele>96.2</ele>
        <time>2022-06-21T08:58:21Z</time>
      </trkpt>
      <trkpt lat="48.94472" lon="1.98879">
        <ele>98.7</ele>
        <time>2022-06-21T08:58:25Z</time>
      </trkpt>
      <trkpt lat="48.94467" lon="1.9888">
        <ele>102</ele>
        <time>2022-06-21T08:58:29Z</time>
      </trkpt>
      <trkpt lat="48.94462" lon="1.98883">
        <ele>101.6</ele>
        <time>2022-06-21T08:58:33Z</time>
      </trkpt>
      <trkpt lat="48.94457" lon="1.98886">
        <ele>102.4</ele>
        <time>2022-06-21T08:58:37Z</time>
      </trkpt>
      <trkpt lat="48.94453" lon="1.9889">
        <ele>103.8</ele>
        <time>2022-06-21T08:58:42Z</time>
      </trkpt>
      <trkpt lat="48.94448" lon="1.98895">
        <ele>106.1</ele>
        <time>2022-06-21T08:58:47Z</time>
      </trkpt>
      <trkpt lat="48.94443" lon="1.989">
        <ele>109.5</ele>
        <time>2022-06-21T08:58:51Z</time>
      </trkpt>
      <trkpt lat="48.9444" lon="1.98905">
        <ele>111</ele>
        <time>2022-06-21T08:58:55Z</time>
      </trkpt>
      <trkpt lat="48.94436" lon="1.98911">
        <ele>112.7</ele>
        <time>2022-06-21T08:58:59Z</time>
      </trkpt>
      <trkpt lat="48.94432" lon="1.98916">
        <ele>114.8</ele>
        <time>2022-06-21T08:59:03Z</time>
      </trkpt>
      <trkpt lat="48.94428" lon="1.98919">
        <ele>117.3</ele>
        <time>2022-06-21T08:59:07Z</time>
      </trkpt>
      <trkpt lat="48.94422" lon="1.98921">
        <ele>117.2</ele>
        <time>2022-06-21T08:59:11Z</time>
      </trkpt>
      <trkpt lat="48.94417" lon="1.98923">
        <ele>117.9</ele>
        <time>2022-06-21T08:59:15Z</time>
      </trkpt>
      <trkpt lat="48.94412" lon="1.98926">
        <ele>119.2</ele>
        <time>2022-06-21T08:59:19Z</time>
      </trkpt>
      <trkpt lat="48.94408" lon="1.98929">
        <ele>122.3</ele>
        <time>2022-06-21T08:59:22Z</time>
      </trkpt>
      <trkpt lat="48.94403" lon="1.98931">
        <ele>125.5</ele>
        <time>2022-06-21T08:59:26Z</time>
      </trkpt>
      <trkpt lat="48.94398" lon="1.98936">
        <ele>125.4</ele>
        <time>2022-06-21T08:59:30Z</time>
      </trkpt>
      <trkpt lat="48.94394" lon="1.98941">
        <ele>126.1</ele>
        <time>2022-06-21T08:59:34Z</time>
      </trkpt>
      <trkpt lat="48.9439" lon="1.98946">
        <ele>126.4</ele>
        <time>2022-06-21T08:59:38Z</time>
      </trkpt>
      <trkpt lat="48.94385" lon="1.98951">
        <ele>126</ele>
        <time>2022-06-21T08:59:41Z</time>
      </trkpt>
      <trkpt lat="48.94382" lon="1.98955">
        <ele>125</ele>
        <time>2022-06-21T08:59:45Z</time>
      </trkpt>
      <trkpt lat="48.94377" lon="1.98959">
        <ele>123</ele>
        <time>2022-06-21T08:59:48Z</time>
      </trkpt>
      <trkpt lat="48.94373" lon="1.98965">
        <ele>125</ele>
        <time>2022-06-21T08:59:53Z</time>
      </trkpt>
      <trkpt lat="48.94369" lon="1.9897">
        <ele>124.4</ele>
        <time>2022-06-21T08:59:56Z</time>
      </trkpt>
      <trkpt lat="48.94365" lon="1.98974">
        <ele>125.1</ele>
        <time>2022-06-21T08:59:59Z</time>
      </trkpt>
      <trkpt lat="48.94361" lon="1.98977">
        <ele>123.4</ele>
        <time>2022-06-21T09:00:03Z</time>
      </trkpt>
      <trkpt lat="48.94357" lon="1.98982">
        <ele>124.8</ele>
        <time>2022-06-21T09:00:07Z</time>
      </trkpt>
      <trkpt lat="48.94362" lon="1.98982">
        <ele>125</ele>
        <time>2022-06-21T09:00:26Z</time>
      </trkpt>
      <trkpt lat="48.94361" lon="1.9899">
        <ele>124.4</ele>
        <time>2022-06-21T09:00:55Z</time>
      </trkpt>
      <trkpt lat="48.94357" lon="1.98995">
        <ele>123.5</ele>
        <time>2022-06-21T09:00:59Z</time>
      </trkpt>
      <trkpt lat="48.94353" lon="1.98999">
        <ele>123</ele>
        <time>2022-06-21T09:01:02Z</time>
      </trkpt>
      <trkpt lat="48.94348" lon="1.99002">
        <ele>123.3</ele>
        <time>2022-06-21T09:01:05Z</time>
      </trkpt>
      <trkpt lat="48.94344" lon="1.99005">
        <ele>122.5</ele>
        <time>2022-06-21T09:01:08Z</time>
      </trkpt>
      <trkpt lat="48.94339" lon="1.99009">
        <ele>123.3</ele>
        <time>2022-06-21T09:01:13Z</time>
      </trkpt>
      <trkpt lat="48.94335" lon="1.99013">
        <ele>123.1</ele>
        <time>2022-06-21T09:01:16Z</time>
      </trkpt>
      <trkpt lat="48.9433" lon="1.99016">
        <ele>121.3</ele>
        <time>2022-06-21T09:01:20Z</time>
      </trkpt>
      <trkpt lat="48.94325" lon="1.99021">
        <ele>121.3</ele>
        <time>2022-06-21T09:01:26Z</time>
      </trkpt>
      <trkpt lat="48.94321" lon="1.99026">
        <ele>121.9</ele>
        <time>2022-06-21T09:01:30Z</time>
      </trkpt>
      <trkpt lat="48.94319" lon="1.99032">
        <ele>121.5</ele>
        <time>2022-06-21T09:01:34Z</time>
      </trkpt>
      <trkpt lat="48.94316" lon="1.99038">
        <ele>121.6</ele>
        <time>2022-06-21T09:01:38Z</time>
      </trkpt>
      <trkpt lat="48.94312" lon="1.99043">
        <ele>120.4</ele>
        <time>2022-06-21T09:01:42Z</time>
      </trkpt>
      <trkpt lat="48.9431" lon="1.99049">
        <ele>119.4</ele>
        <time>2022-06-21T09:01:47Z</time>
      </trkpt>
      <trkpt lat="48.94307" lon="1.99057">
        <ele>120.9</ele>
        <time>2022-06-21T09:01:52Z</time>
      </trkpt>
      <trkpt lat="48.94303" lon="1.99062">
        <ele>117.4</ele>
        <time>2022-06-21T09:01:56Z</time>
      </trkpt>
      <trkpt lat="48.943" lon="1.99067">
        <ele>119</ele>
        <time>2022-06-21T09:02:00Z</time>
      </trkpt>
      <trkpt lat="48.94296" lon="1.99071">
        <ele>115.8</ele>
        <time>2022-06-21T09:02:06Z</time>
      </trkpt>
      <trkpt lat="48.94292" lon="1.99076">
        <ele>114.9</ele>
        <time>2022-06-21T09:02:10Z</time>
      </trkpt>
      <trkpt lat="48.94287" lon="1.9908">
        <ele>113.2</ele>
        <time>2022-06-21T09:02:15Z</time>
      </trkpt>
      <trkpt lat="48.94282" lon="1.99085">
        <ele>112.3</ele>
        <time>2022-06-21T09:02:20Z</time>
      </trkpt>
      <trkpt lat="48.94279" lon="1.99089">
        <ele>113.3</ele>
        <time>2022-06-21T09:02:24Z</time>
      </trkpt>
      <trkpt lat="48.94275" lon="1.99094">
        <ele>112.7</ele>
        <time>2022-06-21T09:02:28Z</time>
      </trkpt>
      <trkpt lat="48.94271" lon="1.99098">
        <ele>111.1</ele>
        <time>2022-06-21T09:02:33Z</time>
      </trkpt>
      <trkpt lat="48.94266" lon="1.991">
        <ele>107.8</ele>
        <time>2022-06-21T09:02:39Z</time>
      </trkpt>
      <trkpt lat="48.94262" lon="1.99103">
        <ele>107.6</ele>
        <time>2022-06-21T09:02:43Z</time>
      </trkpt>
      <trkpt lat="48.94259" lon="1.99109">
        <ele>107.3</ele>
        <time>2022-06-21T09:02:47Z</time>
      </trkpt>
      <trkpt lat="48.94255" lon="1.99112">
        <ele>107.1</ele>
        <time>2022-06-21T09:02:51Z</time>
      </trkpt>
      <trkpt lat="48.94251" lon="1.99115">
        <ele>106.5</ele>
        <time>2022-06-21T09:02:56Z</time>
      </trkpt>
      <trkpt lat="48.94246" lon="1.99117">
        <ele>106.2</ele>
        <time>2022-06-21T09:03:00Z</time>
      </trkpt>
      <trkpt lat="48.94241" lon="1.99121">
        <ele>105.5</ele>
        <time>2022-06-21T09:03:05Z</time>
      </trkpt>
      <trkpt lat="48.94238" lon="1.99125">
        <ele>105</ele>
        <time>2022-06-21T09:03:09Z</time>
      </trkpt>
      <trkpt lat="48.94234" lon="1.9913">
        <ele>105.2</ele>
        <time>2022-06-21T09:03:14Z</time>
      </trkpt>
      <trkpt lat="48.9423" lon="1.99135">
        <ele>104.9</ele>
        <time>2022-06-21T09:03:18Z</time>
      </trkpt>
      <trkpt lat="48.94226" lon="1.9914">
        <ele>103.6</ele>
        <time>2022-06-21T09:03:23Z</time>
      </trkpt>
      <trkpt lat="48.94223" lon="1.99145">
        <ele>103</ele>
        <time>2022-06-21T09:03:28Z</time>
      </trkpt>
      <trkpt lat="48.94218" lon="1.99149">
        <ele>102.9</ele>
        <time>2022-06-21T09:03:32Z</time>
      </trkpt>
      <trkpt lat="48.94214" lon="1.99154">
        <ele>102.2</ele>
        <time>2022-06-21T09:03:37Z</time>
      </trkpt>
      <trkpt lat="48.94209" lon="1.99155">
        <ele>103.1</ele>
        <time>2022-06-21T09:04:51Z</time>
      </trkpt>
      <trkpt lat="48.94205" lon="1.99162">
        <ele>103.2</ele>
        <time>2022-06-21T09:04:56Z</time>
      </trkpt>
      <trkpt lat="48.94202" lon="1.99166">
        <ele>103.1</ele>
        <time>2022-06-21T09:05:00Z</time>
      </trkpt>
      <trkpt lat="48.94196" lon="1.99171">
        <ele>103.4</ele>
        <time>2022-06-21T09:05:04Z</time>
      </trkpt>
      <trkpt lat="48.94192" lon="1.99174">
        <ele>101.4</ele>
        <time>2022-06-21T09:05:09Z</time>
      </trkpt>
      <trkpt lat="48.94188" lon="1.99176">
        <ele>102</ele>
        <time>2022-06-21T09:05:13Z</time>
      </trkpt>
      <trkpt lat="48.94183" lon="1.99179">
        <ele>103.8</ele>
        <time>2022-06-21T09:05:18Z</time>
      </trkpt>
      <trkpt lat="48.94178" lon="1.99182">
        <ele>104.1</ele>
        <time>2022-06-21T09:05:23Z</time>
      </trkpt>
      <trkpt lat="48.94173" lon="1.99184">
        <ele>105.1</ele>
        <time>2022-06-21T09:05:28Z</time>
      </trkpt>
      <trkpt lat="48.94168" lon="1.99186">
        <ele>105.1</ele>
        <time>2022-06-21T09:05:33Z</time>
      </trkpt>
      <trkpt lat="48.94166" lon="1.99192">
        <ele>104.4</ele>
        <time>2022-06-21T09:05:38Z</time>
      </trkpt>
      <trkpt lat="48.94161" lon="1.99193">
        <ele>103.5</ele>
        <time>2022-06-21T09:05:43Z</time>
      </trkpt>
      <trkpt lat="48.94156" lon="1.99193">
        <ele>103.5</ele>
        <time>2022-06-21T09:05:47Z</time>
      </trkpt>
      <trkpt lat="48.94151" lon="1.9919">
        <ele>104.2</ele>
        <time>2022-06-21T09:05:53Z</time>
      </trkpt>
      <trkpt lat="48.94147" lon="1.9919">
        <ele>104.9</ele>
        <time>2022-06-21T09:05:57Z</time>
      </trkpt>
      <trkpt lat="48.94142" lon="1.99189">
        <ele>104.7</ele>
        <time>2022-06-21T09:06:02Z</time>
      </trkpt>
      <trkpt lat="48.94137" lon="1.99185">
        <ele>105.1</ele>
        <time>2022-06-21T09:06:07Z</time>
      </trkpt>
      <trkpt lat="48.94133" lon="1.99181">
        <ele>104.9</ele>
        <time>2022-06-21T09:06:12Z</time>
      </trkpt>
      <trkpt lat="48.94129" lon="1.99177">
        <ele>105.9</ele>
        <time>2022-06-21T09:06:18Z</time>
      </trkpt>
      <trkpt lat="48.94125" lon="1.9917">
        <ele>106.1</ele>
        <time>2022-06-21T09:06:25Z</time>
      </trkpt>
      <trkpt lat="48.94121" lon="1.99164">
        <ele>106.5</ele>
        <time>2022-06-21T09:06:30Z</time>
      </trkpt>
      <trkpt lat="48.94118" lon="1.99157">
        <ele>104.5</ele>
        <time>2022-06-21T09:06:36Z</time>
      </trkpt>
      <trkpt lat="48.94115" lon="1.9915">
        <ele>104.9</ele>
        <time>2022-06-21T09:06:42Z</time>
      </trkpt>
      <trkpt lat="48.94113" lon="1.99144">
        <ele>103.5</ele>
        <time>2022-06-21T09:06:46Z</time>
      </trkpt>
      <trkpt lat="48.94113" lon="1.99137">
        <ele>103.6</ele>
        <time>2022-06-21T09:06:51Z</time>
      </trkpt>
      <trkpt lat="48.94113" lon="1.99129">
        <ele>103.2</ele>
        <time>2022-06-21T09:06:56Z</time>
      </trkpt>
      <trkpt lat="48.94111" lon="1.99121">
        <ele>102.5</ele>
        <time>2022-06-21T09:07:02Z</time>
      </trkpt>
      <trkpt lat="48.9411" lon="1.99115">
        <ele>102.7</ele>
        <time>2022-06-21T09:07:07Z</time>
      </trkpt>
      <trkpt lat="48.94106" lon="1.99109">
        <ele>102.5</ele>
        <time>2022-06-21T09:07:12Z</time>
      </trkpt>
      <trkpt lat="48.94102" lon="1.99108">
        <ele>102.5</ele>
        <time>2022-06-21T09:10:16Z</time>
      </trkpt>
      <trkpt lat="48.94097" lon="1.99107">
        <ele>100.8</ele>
        <time>2022-06-21T09:10:19Z</time>
      </trkpt>
      <trkpt lat="48.94092" lon="1.99106">
        <ele>101.9</ele>
        <time>2022-06-21T09:10:24Z</time>
      </trkpt>
      <trkpt lat="48.94086" lon="1.99104">
        <ele>101.6</ele>
        <time>2022-06-21T09:10:29Z</time>
      </trkpt>
      <trkpt lat="48.94081" lon="1.99107">
        <ele>102.6</ele>
        <time>2022-06-21T09:10:36Z</time>
      </trkpt>
      <trkpt lat="48.94077" lon="1.99104">
        <ele>102</ele>
        <time>2022-06-21T09:10:39Z</time>
      </trkpt>
      <trkpt lat="48.94072" lon="1.99104">
        <ele>101.3</ele>
        <time>2022-06-21T09:10:44Z</time>
      </trkpt>
      <trkpt lat="48.94067" lon="1.99103">
        <ele>100.6</ele>
        <time>2022-06-21T09:10:50Z</time>
      </trkpt>
      <trkpt lat="48.94062" lon="1.99105">
        <ele>100.4</ele>
        <time>2022-06-21T09:10:55Z</time>
      </trkpt>
      <trkpt lat="48.94057" lon="1.99108">
        <ele>100.9</ele>
        <time>2022-06-21T09:11:00Z</time>
      </trkpt>
      <trkpt lat="48.94052" lon="1.9911">
        <ele>100.3</ele>
        <time>2022-06-21T09:11:05Z</time>
      </trkpt>
      <trkpt lat="48.94047" lon="1.99111">
        <ele>101.6</ele>
        <time>2022-06-21T09:11:11Z</time>
      </trkpt>
      <trkpt lat="48.94051" lon="1.99105">
        <ele>100.6</ele>
        <time>2022-06-21T09:11:32Z</time>
      </trkpt>
      <trkpt lat="48.94051" lon="1.99098">
        <ele>100.7</ele>
        <time>2022-06-21T09:11:36Z</time>
      </trkpt>
      <trkpt lat="48.94053" lon="1.9909">
        <ele>100.4</ele>
        <time>2022-06-21T09:11:40Z</time>
      </trkpt>
      <trkpt lat="48.94058" lon="1.99087">
        <ele>100.4</ele>
        <time>2022-06-21T09:11:45Z</time>
      </trkpt>
      <trkpt lat="48.9406" lon="1.99082">
        <ele>101.6</ele>
        <time>2022-06-21T09:11:50Z</time>
      </trkpt>
      <trkpt lat="48.94056" lon="1.99085">
        <ele>101.5</ele>
        <time>2022-06-21T09:11:55Z</time>
      </trkpt>
      <trkpt lat="48.94052" lon="1.99092">
        <ele>101.9</ele>
        <time>2022-06-21T09:12:21Z</time>
      </trkpt>
      <trkpt lat="48.94048" lon="1.99097">
        <ele>103</ele>
        <time>2022-06-21T09:12:25Z</time>
      </trkpt>
      <trkpt lat="48.94044" lon="1.99102">
        <ele>102.3</ele>
        <time>2022-06-21T09:12:29Z</time>
      </trkpt>
      <trkpt lat="48.94039" lon="1.99105">
        <ele>100.5</ele>
        <time>2022-06-21T09:12:33Z</time>
      </trkpt>
      <trkpt lat="48.94034" lon="1.99105">
        <ele>99</ele>
        <time>2022-06-21T09:12:37Z</time>
      </trkpt>
      <trkpt lat="48.94029" lon="1.99103">
        <ele>96.9</ele>
        <time>2022-06-21T09:12:41Z</time>
      </trkpt>
      <trkpt lat="48.94024" lon="1.99102">
        <ele>95.2</ele>
        <time>2022-06-21T09:12:45Z</time>
      </trkpt>
      <trkpt lat="48.94019" lon="1.99103">
        <ele>91</ele>
        <time>2022-06-21T09:12:51Z</time>
      </trkpt>
      <trkpt lat="48.94016" lon="1.99108">
        <ele>91.6</ele>
        <time>2022-06-21T09:12:58Z</time>
      </trkpt>
      <trkpt lat="48.94012" lon="1.99112">
        <ele>90.5</ele>
        <time>2022-06-21T09:13:03Z</time>
      </trkpt>
      <trkpt lat="48.94007" lon="1.99115">
        <ele>90.5</ele>
        <time>2022-06-21T09:13:07Z</time>
      </trkpt>
      <trkpt lat="48.94002" lon="1.99117">
        <ele>94</ele>
        <time>2022-06-21T09:13:11Z</time>
      </trkpt>
      <trkpt lat="48.93998" lon="1.9912">
        <ele>93.9</ele>
        <time>2022-06-21T09:13:15Z</time>
      </trkpt>
      <trkpt lat="48.93993" lon="1.99125">
        <ele>91.7</ele>
        <time>2022-06-21T09:13:19Z</time>
      </trkpt>
      <trkpt lat="48.93988" lon="1.99129">
        <ele>91.1</ele>
        <time>2022-06-21T09:13:23Z</time>
      </trkpt>
      <trkpt lat="48.93983" lon="1.99132">
        <ele>91.5</ele>
        <time>2022-06-21T09:13:26Z</time>
      </trkpt>
      <trkpt lat="48.93979" lon="1.99135">
        <ele>92.1</ele>
        <time>2022-06-21T09:13:30Z</time>
      </trkpt>
      <trkpt lat="48.93974" lon="1.99141">
        <ele>91.2</ele>
        <time>2022-06-21T09:13:35Z</time>
      </trkpt>
      <trkpt lat="48.9397" lon="1.99146">
        <ele>90.9</ele>
        <time>2022-06-21T09:13:39Z</time>
      </trkpt>
      <trkpt lat="48.93966" lon="1.99152">
        <ele>92</ele>
        <time>2022-06-21T09:13:43Z</time>
      </trkpt>
      <trkpt lat="48.93962" lon="1.99155">
        <ele>90.8</ele>
        <time>2022-06-21T09:13:46Z</time>
      </trkpt>
      <trkpt lat="48.93957" lon="1.99158">
        <ele>91.5</ele>
        <time>2022-06-21T09:13:50Z</time>
      </trkpt>
      <trkpt lat="48.93952" lon="1.99158">
        <ele>91.4</ele>
        <time>2022-06-21T09:13:54Z</time>
      </trkpt>
      <trkpt lat="48.93947" lon="1.99157">
        <ele>91</ele>
        <time>2022-06-21T09:13:59Z</time>
      </trkpt>
      <trkpt lat="48.93942" lon="1.99161">
        <ele>89.8</ele>
        <time>2022-06-21T09:14:04Z</time>
      </trkpt>
      <trkpt lat="48.93939" lon="1.99167">
        <ele>92</ele>
        <time>2022-06-21T09:14:09Z</time>
      </trkpt>
      <trkpt lat="48.93938" lon="1.99177">
        <ele>88.5</ele>
        <time>2022-06-21T09:14:13Z</time>
      </trkpt>
      <trkpt lat="48.9394" lon="1.99185">
        <ele>87.9</ele>
        <time>2022-06-21T09:14:17Z</time>
      </trkpt>
      <trkpt lat="48.93944" lon="1.99192">
        <ele>91.4</ele>
        <time>2022-06-21T09:14:21Z</time>
      </trkpt>
      <trkpt lat="48.93947" lon="1.99199">
        <ele>92.4</ele>
        <time>2022-06-21T09:14:25Z</time>
      </trkpt>
      <trkpt lat="48.9395" lon="1.99206">
        <ele>94.1</ele>
        <time>2022-06-21T09:14:29Z</time>
      </trkpt>
      <trkpt lat="48.93952" lon="1.99213">
        <ele>92.9</ele>
        <time>2022-06-21T09:14:33Z</time>
      </trkpt>
      <trkpt lat="48.93954" lon="1.99221">
        <ele>92.6</ele>
        <time>2022-06-21T09:14:38Z</time>
      </trkpt>
      <trkpt lat="48.93954" lon="1.9923">
        <ele>92.7</ele>
        <time>2022-06-21T09:14:42Z</time>
      </trkpt>
      <trkpt lat="48.93956" lon="1.99237">
        <ele>92.9</ele>
        <time>2022-06-21T09:14:47Z</time>
      </trkpt>
      <trkpt lat="48.93958" lon="1.99244">
        <ele>91.5</ele>
        <time>2022-06-21T09:14:52Z</time>
      </trkpt>
      <trkpt lat="48.93959" lon="1.99251">
        <ele>92.4</ele>
        <time>2022-06-21T09:14:56Z</time>
      </trkpt>
      <trkpt lat="48.9396" lon="1.99258">
        <ele>94.8</ele>
        <time>2022-06-21T09:15:00Z</time>
      </trkpt>
      <trkpt lat="48.9396" lon="1.99265">
        <ele>92.7</ele>
        <time>2022-06-21T09:15:04Z</time>
      </trkpt>
      <trkpt lat="48.9396" lon="1.99272">
        <ele>95.1</ele>
        <time>2022-06-21T09:15:08Z</time>
      </trkpt>
      <trkpt lat="48.93959" lon="1.9928">
        <ele>91.5</ele>
        <time>2022-06-21T09:15:31Z</time>
      </trkpt>
      <trkpt lat="48.93956" lon="1.99288">
        <ele>92.3</ele>
        <time>2022-06-21T09:15:35Z</time>
      </trkpt>
      <trkpt lat="48.93954" lon="1.99294">
        <ele>91.4</ele>
        <time>2022-06-21T09:15:38Z</time>
      </trkpt>
      <trkpt lat="48.93952" lon="1.99301">
        <ele>89.4</ele>
        <time>2022-06-21T09:15:41Z</time>
      </trkpt>
      <trkpt lat="48.9395" lon="1.99309">
        <ele>90.1</ele>
        <time>2022-06-21T09:15:44Z</time>
      </trkpt>
      <trkpt lat="48.93948" lon="1.99316">
        <ele>89.7</ele>
        <time>2022-06-21T09:15:48Z</time>
      </trkpt>
      <trkpt lat="48.93945" lon="1.99322">
        <ele>92.3</ele>
        <time>2022-06-21T09:15:52Z</time>
      </trkpt>
      <trkpt lat="48.93943" lon="1.99329">
        <ele>92.8</ele>
        <time>2022-06-21T09:15:56Z</time>
      </trkpt>
      <trkpt lat="48.93942" lon="1.99336">
        <ele>94.5</ele>
        <time>2022-06-21T09:15:59Z</time>
      </trkpt>
      <trkpt lat="48.93942" lon="1.99344">
        <ele>94.1</ele>
        <time>2022-06-21T09:16:04Z</time>
      </trkpt>
      <trkpt lat="48.93943" lon="1.99352">
        <ele>94.7</ele>
        <time>2022-06-21T09:16:08Z</time>
      </trkpt>
      <trkpt lat="48.93944" lon="1.99359">
        <ele>95.4</ele>
        <time>2022-06-21T09:16:12Z</time>
      </trkpt>
      <trkpt lat="48.93946" lon="1.99367">
        <ele>96.5</ele>
        <time>2022-06-21T09:16:18Z</time>
      </trkpt>
      <trkpt lat="48.93948" lon="1.99374">
        <ele>94.7</ele>
        <time>2022-06-21T09:16:22Z</time>
      </trkpt>
      <trkpt lat="48.9395" lon="1.99381">
        <ele>94.5</ele>
        <time>2022-06-21T09:16:28Z</time>
      </trkpt>
      <trkpt lat="48.93953" lon="1.99389">
        <ele>94.9</ele>
        <time>2022-06-21T09:16:33Z</time>
      </trkpt>
      <trkpt lat="48.93955" lon="1.99395">
        <ele>91.9</ele>
        <time>2022-06-21T09:16:37Z</time>
      </trkpt>
      <trkpt lat="48.93957" lon="1.99403">
        <ele>94.6</ele>
        <time>2022-06-21T09:16:42Z</time>
      </trkpt>
      <trkpt lat="48.9396" lon="1.99409">
        <ele>92.5</ele>
        <time>2022-06-21T09:16:46Z</time>
      </trkpt>
      <trkpt lat="48.93965" lon="1.99413">
        <ele>91.9</ele>
        <time>2022-06-21T09:16:51Z</time>
      </trkpt>
      <trkpt lat="48.9397" lon="1.99415">
        <ele>90.2</ele>
        <time>2022-06-21T09:16:56Z</time>
      </trkpt>
      <trkpt lat="48.93974" lon="1.99417">
        <ele>90.6</ele>
        <time>2022-06-21T09:17:00Z</time>
      </trkpt>
      <trkpt lat="48.93979" lon="1.99419">
        <ele>89.5</ele>
        <time>2022-06-21T09:17:04Z</time>
      </trkpt>
      <trkpt lat="48.93984" lon="1.99419">
        <ele>87.2</ele>
        <time>2022-06-21T09:17:09Z</time>
      </trkpt>
      <trkpt lat="48.9399" lon="1.9942">
        <ele>86.4</ele>
        <time>2022-06-21T09:17:14Z</time>
      </trkpt>
      <trkpt lat="48.93996" lon="1.99421">
        <ele>86.8</ele>
        <time>2022-06-21T09:17:18Z</time>
      </trkpt>
      <trkpt lat="48.94001" lon="1.9942">
        <ele>89.7</ele>
        <time>2022-06-21T09:17:22Z</time>
      </trkpt>
      <trkpt lat="48.94006" lon="1.99421">
        <ele>87.7</ele>
        <time>2022-06-21T09:17:27Z</time>
      </trkpt>
      <trkpt lat="48.94011" lon="1.9942">
        <ele>85.7</ele>
        <time>2022-06-21T09:17:31Z</time>
      </trkpt>
      <trkpt lat="48.94015" lon="1.99418">
        <ele>84.2</ele>
        <time>2022-06-21T09:17:35Z</time>
      </trkpt>
      <trkpt lat="48.9402" lon="1.99418">
        <ele>86.5</ele>
        <time>2022-06-21T09:17:40Z</time>
      </trkpt>
      <trkpt lat="48.94016" lon="1.99417">
        <ele>83.5</ele>
        <time>2022-06-21T09:18:28Z</time>
      </trkpt>
      <trkpt lat="48.94018" lon="1.99424">
        <ele>82.6</ele>
        <time>2022-06-21T09:18:51Z</time>
      </trkpt>
      <trkpt lat="48.94021" lon="1.99429">
        <ele>85</ele>
        <time>2022-06-21T09:19:17Z</time>
      </trkpt>
      <trkpt lat="48.94021" lon="1.99437">
        <ele>87</ele>
        <time>2022-06-21T09:19:27Z</time>
      </trkpt>
      <trkpt lat="48.94024" lon="1.99445">
        <ele>88.5</ele>
        <time>2022-06-21T09:19:35Z</time>
      </trkpt>
      <trkpt lat="48.94026" lon="1.99451">
        <ele>86</ele>
        <time>2022-06-21T09:20:15Z</time>
      </trkpt>
      <trkpt lat="48.94027" lon="1.99443">
        <ele>85.9</ele>
        <time>2022-06-21T09:20:26Z</time>
      </trkpt>
      <trkpt lat="48.94022" lon="1.9944">
        <ele>83.2</ele>
        <time>2022-06-21T09:20:39Z</time>
      </trkpt>
      <trkpt lat="48.94019" lon="1.99447">
        <ele>83.3</ele>
        <time>2022-06-21T09:21:13Z</time>
      </trkpt>
      <trkpt lat="48.94029" lon="1.99449">
        <ele>78.8</ele>
        <time>2022-06-21T09:21:52Z</time>
      </trkpt>
      <trkpt lat="48.94034" lon="1.99447">
        <ele>71.2</ele>
        <time>2022-06-21T09:22:16Z</time>
      </trkpt>
      <trkpt lat="48.94033" lon="1.99455">
        <ele>69.8</ele>
        <time>2022-06-21T09:22:28Z</time>
      </trkpt>
      <trkpt lat="48.94038" lon="1.99451">
        <ele>66.7</ele>
        <time>2022-06-21T09:22:39Z</time>
      </trkpt>
      <trkpt lat="48.94038" lon="1.99459">
        <ele>64.1</ele>
        <time>2022-06-21T09:22:54Z</time>
      </trkpt>
      <trkpt lat="48.94039" lon="1.99468">
        <ele>64.5</ele>
        <time>2022-06-21T09:23:00Z</time>
      </trkpt>
      <trkpt lat="48.94042" lon="1.99475">
        <ele>65.3</ele>
        <time>2022-06-21T09:23:06Z</time>
      </trkpt>
      <trkpt lat="48.94038" lon="1.99478">
        <ele>58</ele>
        <time>2022-06-21T09:23:19Z</time>
      </trkpt>
      <trkpt lat="48.9404" lon="1.99485">
        <ele>56.2</ele>
        <time>2022-06-21T09:23:33Z</time>
      </trkpt>
      <trkpt lat="48.9404" lon="1.99492">
        <ele>41.1</ele>
        <time>2022-06-21T09:24:01Z</time>
      </trkpt>
      <trkpt lat="48.94042" lon="1.99499">
        <ele>33.7</ele>
        <time>2022-06-21T09:24:16Z</time>
      </trkpt>
      <trkpt lat="48.94041" lon="1.99508">
        <ele>32</ele>
        <time>2022-06-21T09:24:22Z</time>
      </trkpt>
      <trkpt lat="48.94041" lon="1.99516">
        <ele>31.3</ele>
        <time>2022-06-21T09:24:26Z</time>
      </trkpt>
      <trkpt lat="48.94041" lon="1.99524">
        <ele>29.2</ele>
        <time>2022-06-21T09:24:31Z</time>
      </trkpt>
      <trkpt lat="48.9404" lon="1.9953">
        <ele>29.6</ele>
        <time>2022-06-21T09:24:35Z</time>
      </trkpt>
      <trkpt lat="48.94037" lon="1.99536">
        <ele>28.7</ele>
        <time>2022-06-21T09:24:40Z</time>
      </trkpt>
      <trkpt lat="48.94034" lon="1.99541">
        <ele>26.6</ele>
        <time>2022-06-21T09:24:44Z</time>
      </trkpt>
      <trkpt lat="48.94031" lon="1.99549">
        <ele>25.8</ele>
        <time>2022-06-21T09:24:47Z</time>
      </trkpt>
      <trkpt lat="48.9403" lon="1.99557">
        <ele>24</ele>
        <time>2022-06-21T09:24:52Z</time>
      </trkpt>
      <trkpt lat="48.94029" lon="1.99564">
        <ele>23.1</ele>
        <time>2022-06-21T09:24:55Z</time>
      </trkpt>
      <trkpt lat="48.94029" lon="1.99572">
        <ele>22.5</ele>
        <time>2022-06-21T09:24:59Z</time>
      </trkpt>
      <trkpt lat="48.94028" lon="1.9958">
        <ele>23.5</ele>
        <time>2022-06-21T09:25:02Z</time>
      </trkpt>
      <trkpt lat="48.94024" lon="1.99586">
        <ele>23.9</ele>
        <time>2022-06-21T09:25:06Z</time>
      </trkpt>
      <trkpt lat="48.94004" lon="1.99601">
        <ele>29.8</ele>
        <time>2022-06-21T09:25:20Z</time>
      </trkpt>
      <trkpt lat="48.94" lon="1.99608">
        <ele>32.1</ele>
        <time>2022-06-21T09:25:24Z</time>
      </trkpt>
      <trkpt lat="48.93999" lon="1.99615">
        <ele>33.6</ele>
        <time>2022-06-21T09:25:27Z</time>
      </trkpt>
      <trkpt lat="48.93999" lon="1.99622">
        <ele>33.8</ele>
        <time>2022-06-21T09:25:30Z</time>
      </trkpt>
      <trkpt lat="48.93999" lon="1.99631">
        <ele>34.1</ele>
        <time>2022-06-21T09:25:34Z</time>
      </trkpt>
      <trkpt lat="48.94" lon="1.99639">
        <ele>35.9</ele>
        <time>2022-06-21T09:25:37Z</time>
      </trkpt>
      <trkpt lat="48.94" lon="1.99648">
        <ele>36.8</ele>
        <time>2022-06-21T09:25:41Z</time>
      </trkpt>
      <trkpt lat="48.94001" lon="1.99655">
        <ele>36.9</ele>
        <time>2022-06-21T09:25:44Z</time>
      </trkpt>
      <trkpt lat="48.94" lon="1.99664">
        <ele>35.9</ele>
        <time>2022-06-21T09:25:48Z</time>
      </trkpt>
      <trkpt lat="48.94" lon="1.99671">
        <ele>35.7</ele>
        <time>2022-06-21T09:25:51Z</time>
      </trkpt>
      <trkpt lat="48.94001" lon="1.99679">
        <ele>37</ele>
        <time>2022-06-21T09:25:55Z</time>
      </trkpt>
      <trkpt lat="48.94001" lon="1.99686">
        <ele>38</ele>
        <time>2022-06-21T09:25:58Z</time>
      </trkpt>
      <trkpt lat="48.94001" lon="1.99694">
        <ele>37.2</ele>
        <time>2022-06-21T09:26:02Z</time>
      </trkpt>
      <trkpt lat="48.94" lon="1.99701">
        <ele>37.8</ele>
        <time>2022-06-21T09:26:06Z</time>
      </trkpt>
      <trkpt lat="48.94" lon="1.99709">
        <ele>40.5</ele>
        <time>2022-06-21T09:26:10Z</time>
      </trkpt>
      <trkpt lat="48.93998" lon="1.99715">
        <ele>40.5</ele>
        <time>2022-06-21T09:26:14Z</time>
      </trkpt>
      <trkpt lat="48.93996" lon="1.99709">
        <ele>36.6</ele>
        <time>2022-06-21T09:26:35Z</time>
      </trkpt>
      <trkpt lat="48.94001" lon="1.99712">
        <ele>32.3</ele>
        <time>2022-06-21T09:26:45Z</time>
      </trkpt>
      <trkpt lat="48.94006" lon="1.99715">
        <ele>30.1</ele>
        <time>2022-06-21T09:26:50Z</time>
      </trkpt>
      <trkpt lat="48.94007" lon="1.99725">
        <ele>30.1</ele>
        <time>2022-06-21T09:26:55Z</time>
      </trkpt>
      <trkpt lat="48.94009" lon="1.99732">
        <ele>27.9</ele>
        <time>2022-06-21T09:26:59Z</time>
      </trkpt>
      <trkpt lat="48.94013" lon="1.99734">
        <ele>27.9</ele>
        <time>2022-06-21T09:27:03Z</time>
      </trkpt>
      <trkpt lat="48.94017" lon="1.99739">
        <ele>28.2</ele>
        <time>2022-06-21T09:27:07Z</time>
      </trkpt>
      <trkpt lat="48.94021" lon="1.99736">
        <ele>29.4</ele>
        <time>2022-06-21T09:27:10Z</time>
      </trkpt>
      <trkpt lat="48.94026" lon="1.99734">
        <ele>28.9</ele>
        <time>2022-06-21T09:27:16Z</time>
      </trkpt>
      <trkpt lat="48.9403" lon="1.99739">
        <ele>31.1</ele>
        <time>2022-06-21T09:27:23Z</time>
      </trkpt>
      <trkpt lat="48.94026" lon="1.99742">
        <ele>31.9</ele>
        <time>2022-06-21T09:28:10Z</time>
      </trkpt>
      <trkpt lat="48.94025" lon="1.9975">
        <ele>29.3</ele>
        <time>2022-06-21T09:28:36Z</time>
      </trkpt>
      <trkpt lat="48.94025" lon="1.99758">
        <ele>25</ele>
        <time>2022-06-21T09:29:02Z</time>
      </trkpt>
      <trkpt lat="48.94029" lon="1.99762">
        <ele>28.3</ele>
        <time>2022-06-21T09:30:02Z</time>
      </trkpt>
      <trkpt lat="48.94033" lon="1.99767">
        <ele>30.2</ele>
        <time>2022-06-21T09:30:09Z</time>
      </trkpt>
      <trkpt lat="48.94034" lon="1.99774">
        <ele>31.2</ele>
        <time>2022-06-21T09:30:14Z</time>
      </trkpt>
      <trkpt lat="48.94035" lon="1.99782">
        <ele>30</ele>
        <time>2022-06-21T09:30:19Z</time>
      </trkpt>
      <trkpt lat="48.94035" lon="1.9979">
        <ele>31.7</ele>
        <time>2022-06-21T09:30:23Z</time>
      </trkpt>
      <trkpt lat="48.94033" lon="1.99796">
        <ele>25</ele>
        <time>2022-06-21T09:30:28Z</time>
      </trkpt>
      <trkpt lat="48.94028" lon="1.99797">
        <ele>22.9</ele>
        <time>2022-06-21T09:30:32Z</time>
      </trkpt>
      <trkpt lat="48.94023" lon="1.99794">
        <ele>23</ele>
        <time>2022-06-21T09:30:36Z</time>
      </trkpt>
      <trkpt lat="48.94019" lon="1.99788">
        <ele>22.4</ele>
        <time>2022-06-21T09:30:41Z</time>
      </trkpt>
      <trkpt lat="48.94021" lon="1.99781">
        <ele>22.4</ele>
        <time>2022-06-21T09:30:53Z</time>
      </trkpt>
      <trkpt lat="48.94026" lon="1.99784">
        <ele>21.5</ele>
        <time>2022-06-21T09:31:26Z</time>
      </trkpt>
      <trkpt lat="48.94026" lon="1.99792">
        <ele>24.6</ele>
        <time>2022-06-21T09:31:34Z</time>
      </trkpt>
      <trkpt lat="48.94024" lon="1.998">
        <ele>22.9</ele>
        <time>2022-06-21T09:31:40Z</time>
      </trkpt>
      <trkpt lat="48.94023" lon="1.99807">
        <ele>20.7</ele>
        <time>2022-06-21T09:31:45Z</time>
      </trkpt>
      <trkpt lat="48.94024" lon="1.99813">
        <ele>22.1</ele>
        <time>2022-06-21T09:31:52Z</time>
      </trkpt>
      <trkpt lat="48.94027" lon="1.9982">
        <ele>22.4</ele>
        <time>2022-06-21T09:32:10Z</time>
      </trkpt>
      <trkpt lat="48.94028" lon="1.99828">
        <ele>21.7</ele>
        <time>2022-06-21T09:32:17Z</time>
      </trkpt>
      <trkpt lat="48.94028" lon="1.99836">
        <ele>22.5</ele>
        <time>2022-06-21T09:32:22Z</time>
      </trkpt>
      <trkpt lat="48.94027" lon="1.99843">
        <ele>21.5</ele>
        <time>2022-06-21T09:32:27Z</time>
      </trkpt>
      <trkpt lat="48.94024" lon="1.99849">
        <ele>20.8</ele>
        <time>2022-06-21T09:32:32Z</time>
      </trkpt>
      <trkpt lat="48.94019" lon="1.99851">
        <ele>21</ele>
        <time>2022-06-21T09:32:37Z</time>
      </trkpt>
      <trkpt lat="48.94016" lon="1.99856">
        <ele>22.2</ele>
        <time>2022-06-21T09:33:14Z</time>
      </trkpt>
      <trkpt lat="48.94012" lon="1.99859">
        <ele>22.4</ele>
        <time>2022-06-21T09:33:18Z</time>
      </trkpt>
      <trkpt lat="48.94008" lon="1.99863">
        <ele>23.2</ele>
        <time>2022-06-21T09:33:21Z</time>
      </trkpt>
      <trkpt lat="48.94002" lon="1.99867">
        <ele>24.6</ele>
        <time>2022-06-21T09:33:25Z</time>
      </trkpt>
      <trkpt lat="48.93997" lon="1.99868">
        <ele>20.5</ele>
        <time>2022-06-21T09:33:32Z</time>
      </trkpt>
      <trkpt lat="48.93992" lon="1.99863">
        <ele>20.6</ele>
        <time>2022-06-21T09:33:36Z</time>
      </trkpt>
      <trkpt lat="48.93987" lon="1.9986">
        <ele>19.4</ele>
        <time>2022-06-21T09:33:40Z</time>
      </trkpt>
      <trkpt lat="48.93982" lon="1.99858">
        <ele>19.9</ele>
        <time>2022-06-21T09:33:45Z</time>
      </trkpt>
      <trkpt lat="48.93977" lon="1.99859">
        <ele>19.9</ele>
        <time>2022-06-21T09:33:49Z</time>
      </trkpt>
      <trkpt lat="48.93973" lon="1.99859">
        <ele>20.4</ele>
        <time>2022-06-21T09:34:00Z</time>
      </trkpt>
      <trkpt lat="48.93968" lon="1.99859">
        <ele>18.9</ele>
        <time>2022-06-21T09:34:06Z</time>
      </trkpt>
      <trkpt lat="48.93965" lon="1.99867">
        <ele>18.4</ele>
        <time>2022-06-21T09:34:17Z</time>
      </trkpt>
      <trkpt lat="48.9396" lon="1.9987">
        <ele>16.3</ele>
        <time>2022-06-21T09:34:26Z</time>
      </trkpt>
      <trkpt lat="48.93955" lon="1.99869">
        <ele>16.9</ele>
        <time>2022-06-21T09:34:32Z</time>
      </trkpt>
      <trkpt lat="48.9395" lon="1.99872">
        <ele>18.4</ele>
        <time>2022-06-21T09:34:37Z</time>
      </trkpt>
      <trkpt lat="48.93945" lon="1.99871">
        <ele>18.6</ele>
        <time>2022-06-21T09:34:48Z</time>
      </trkpt>
      <trkpt lat="48.93941" lon="1.99867">
        <ele>20.6</ele>
        <time>2022-06-21T09:34:53Z</time>
      </trkpt>
      <trkpt lat="48.93936" lon="1.99864">
        <ele>19.9</ele>
        <time>2022-06-21T09:35:05Z</time>
      </trkpt>
      <trkpt lat="48.93932" lon="1.9986">
        <ele>23.8</ele>
        <time>2022-06-21T09:35:12Z</time>
      </trkpt>
      <trkpt lat="48.93928" lon="1.99861">
        <ele>24.6</ele>
        <time>2022-06-21T09:35:20Z</time>
      </trkpt>
      <trkpt lat="48.93923" lon="1.99862">
        <ele>20.6</ele>
        <time>2022-06-21T09:35:25Z</time>
      </trkpt>
      <trkpt lat="48.93917" lon="1.99863">
        <ele>16</ele>
        <time>2022-06-21T09:35:29Z</time>
      </trkpt>
      <trkpt lat="48.93912" lon="1.99862">
        <ele>13.1</ele>
        <time>2022-06-21T09:35:33Z</time>
      </trkpt>
      <trkpt lat="48.93907" lon="1.9986">
        <ele>14.4</ele>
        <time>2022-06-21T09:35:37Z</time>
      </trkpt>
      <trkpt lat="48.93901" lon="1.99862">
        <ele>14.6</ele>
        <time>2022-06-21T09:35:42Z</time>
      </trkpt>
      <trkpt lat="48.93901" lon="1.99869">
        <ele>14.7</ele>
        <time>2022-06-21T09:36:31Z</time>
      </trkpt>
      <trkpt lat="48.93897" lon="1.99872">
        <ele>16.7</ele>
        <time>2022-06-21T09:36:36Z</time>
      </trkpt>
      <trkpt lat="48.93895" lon="1.99878">
        <ele>19.1</ele>
        <time>2022-06-21T09:36:44Z</time>
      </trkpt>
      <trkpt lat="48.93891" lon="1.99882">
        <ele>18.5</ele>
        <time>2022-06-21T09:37:17Z</time>
      </trkpt>
      <trkpt lat="48.93886" lon="1.99883">
        <ele>20.9</ele>
        <time>2022-06-21T09:37:22Z</time>
      </trkpt>
      <trkpt lat="48.93881" lon="1.99883">
        <ele>20.3</ele>
        <time>2022-06-21T09:37:26Z</time>
      </trkpt>
      <trkpt lat="48.93876" lon="1.99887">
        <ele>18.9</ele>
        <time>2022-06-21T09:37:30Z</time>
      </trkpt>
      <trkpt lat="48.93872" lon="1.99892">
        <ele>17.3</ele>
        <time>2022-06-21T09:38:14Z</time>
      </trkpt>
      <trkpt lat="48.93867" lon="1.99897">
        <ele>16.1</ele>
        <time>2022-06-21T09:38:18Z</time>
      </trkpt>
      <trkpt lat="48.93864" lon="1.99905">
        <ele>15.7</ele>
        <time>2022-06-21T09:38:23Z</time>
      </trkpt>
      <trkpt lat="48.93864" lon="1.99913">
        <ele>15.8</ele>
        <time>2022-06-21T09:38:27Z</time>
      </trkpt>
      <trkpt lat="48.93866" lon="1.9992">
        <ele>14.6</ele>
        <time>2022-06-21T09:38:32Z</time>
      </trkpt>
      <trkpt lat="48.93864" lon="1.99926">
        <ele>12.8</ele>
        <time>2022-06-21T09:38:36Z</time>
      </trkpt>
      <trkpt lat="48.93861" lon="1.99934">
        <ele>11.2</ele>
        <time>2022-06-21T09:38:42Z</time>
      </trkpt>
      <trkpt lat="48.93861" lon="1.99941">
        <ele>11.5</ele>
        <time>2022-06-21T09:38:48Z</time>
      </trkpt>
      <trkpt lat="48.93859" lon="1.99949">
        <ele>11.1</ele>
        <time>2022-06-21T09:38:53Z</time>
      </trkpt>
      <trkpt lat="48.93861" lon="1.99955">
        <ele>13</ele>
        <time>2022-06-21T09:38:57Z</time>
      </trkpt>
      <trkpt lat="48.93859" lon="1.99962">
        <ele>16.1</ele>
        <time>2022-06-21T09:39:02Z</time>
      </trkpt>
      <trkpt lat="48.93856" lon="1.99968">
        <ele>16.6</ele>
        <time>2022-06-21T09:39:07Z</time>
      </trkpt>
      <trkpt lat="48.93859" lon="1.99976">
        <ele>17</ele>
        <time>2022-06-21T09:39:14Z</time>
      </trkpt>
      <trkpt lat="48.93863" lon="1.99982">
        <ele>18.3</ele>
        <time>2022-06-21T09:39:18Z</time>
      </trkpt>
      <trkpt lat="48.93868" lon="1.99984">
        <ele>18.3</ele>
        <time>2022-06-21T09:39:22Z</time>
      </trkpt>
      <trkpt lat="48.93866" lon="1.99978">
        <ele>14.8</ele>
        <time>2022-06-21T09:39:29Z</time>
      </trkpt>
      <trkpt lat="48.9387" lon="1.99969">
        <ele>13.4</ele>
        <time>2022-06-21T09:39:43Z</time>
      </trkpt>
      <trkpt lat="48.93874" lon="1.99964">
        <ele>15.6</ele>
        <time>2022-06-21T09:39:48Z</time>
      </trkpt>
      <trkpt lat="48.9387" lon="1.99967">
        <ele>16.9</ele>
        <time>2022-06-21T09:40:09Z</time>
      </trkpt>
      <trkpt lat="48.9387" lon="1.99976">
        <ele>19.2</ele>
        <time>2022-06-21T09:40:48Z</time>
      </trkpt>
      <trkpt lat="48.93874" lon="1.99981">
        <ele>18.7</ele>
        <time>2022-06-21T09:40:53Z</time>
      </trkpt>
      <trkpt lat="48.93878" lon="1.99984">
        <ele>20.3</ele>
        <time>2022-06-21T09:40:57Z</time>
      </trkpt>
      <trkpt lat="48.93883" lon="1.99987">
        <ele>21.8</ele>
        <time>2022-06-21T09:41:00Z</time>
      </trkpt>
      <trkpt lat="48.93888" lon="1.99989">
        <ele>23</ele>
        <time>2022-06-21T09:41:04Z</time>
      </trkpt>
      <trkpt lat="48.93892" lon="1.99992">
        <ele>21.7</ele>
        <time>2022-06-21T09:41:07Z</time>
      </trkpt>
      <trkpt lat="48.93897" lon="1.99993">
        <ele>21.7</ele>
        <time>2022-06-21T09:41:11Z</time>
      </trkpt>
      <trkpt lat="48.93903" lon="1.99992">
        <ele>21.5</ele>
        <time>2022-06-21T09:41:15Z</time>
      </trkpt>
      <trkpt lat="48.93907" lon="1.99991">
        <ele>22.9</ele>
        <time>2022-06-21T09:41:19Z</time>
      </trkpt>
      <trkpt lat="48.93913" lon="1.99992">
        <ele>25.1</ele>
        <time>2022-06-21T09:41:23Z</time>
      </trkpt>
      <trkpt lat="48.93917" lon="1.99995">
        <ele>25.8</ele>
        <time>2022-06-21T09:41:28Z</time>
      </trkpt>
      <trkpt lat="48.93922" lon="1.99999">
        <ele>27.5</ele>
        <time>2022-06-21T09:41:33Z</time>
      </trkpt>
      <trkpt lat="48.93927" lon="1.99998">
        <ele>29.7</ele>
        <time>2022-06-21T09:41:37Z</time>
      </trkpt>
      <trkpt lat="48.93932" lon="1.99996">
        <ele>28.5</ele>
        <time>2022-06-21T09:41:41Z</time>
      </trkpt>
      <trkpt lat="48.93937" lon="1.99995">
        <ele>26.6</ele>
        <time>2022-06-21T09:41:45Z</time>
      </trkpt>
      <trkpt lat="48.93943" lon="1.99995">
        <ele>24.5</ele>
        <time>2022-06-21T09:41:49Z</time>
      </trkpt>
      <trkpt lat="48.93948" lon="1.99997">
        <ele>24.4</ele>
        <time>2022-06-21T09:41:53Z</time>
      </trkpt>
      <trkpt lat="48.93953" lon="1.99996">
        <ele>22.4</ele>
        <time>2022-06-21T09:41:57Z</time>
      </trkpt>
      <trkpt lat="48.93958" lon="1.99993">
        <ele>23.1</ele>
        <time>2022-06-21T09:42:01Z</time>
      </trkpt>
      <trkpt lat="48.93963" lon="1.99997">
        <ele>22.5</ele>
        <time>2022-06-21T09:42:06Z</time>
      </trkpt>
      <trkpt lat="48.93962" lon="2.00004">
        <ele>22.6</ele>
        <time>2022-06-21T09:42:09Z</time>
      </trkpt>
      <trkpt lat="48.9396" lon="2.00011">
        <ele>22.5</ele>
        <time>2022-06-21T09:42:12Z</time>
      </trkpt>
      <trkpt lat="48.9396" lon="2.0002">
        <ele>21.1</ele>
        <time>2022-06-21T09:42:16Z</time>
      </trkpt>
      <trkpt lat="48.9396" lon="2.00027">
        <ele>21.2</ele>
        <time>2022-06-21T09:42:19Z</time>
      </trkpt>
      <trkpt lat="48.9396" lon="2.00034">
        <ele>20.5</ele>
        <time>2022-06-21T09:42:23Z</time>
      </trkpt>
      <trkpt lat="48.9396" lon="2.00042">
        <ele>19.2</ele>
        <time>2022-06-21T09:42:27Z</time>
      </trkpt>
      <trkpt lat="48.93961" lon="2.00048">
        <ele>18.9</ele>
        <time>2022-06-21T09:42:31Z</time>
      </trkpt>
      <trkpt lat="48.93962" lon="2.00055">
        <ele>19.3</ele>
        <time>2022-06-21T09:42:35Z</time>
      </trkpt>
      <trkpt lat="48.93961" lon="2.00063">
        <ele>20.9</ele>
        <time>2022-06-21T09:42:39Z</time>
      </trkpt>
      <trkpt lat="48.93961" lon="2.0007">
        <ele>20.5</ele>
        <time>2022-06-21T09:42:43Z</time>
      </trkpt>
      <trkpt lat="48.93961" lon="2.00077">
        <ele>21.7</ele>
        <time>2022-06-21T09:42:47Z</time>
      </trkpt>
      <trkpt lat="48.93962" lon="2.00084">
        <ele>21.7</ele>
        <time>2022-06-21T09:42:51Z</time>
      </trkpt>
      <trkpt lat="48.93962" lon="2.00092">
        <ele>22.8</ele>
        <time>2022-06-21T09:42:56Z</time>
      </trkpt>
      <trkpt lat="48.93964" lon="2.00099">
        <ele>20.6</ele>
        <time>2022-06-21T09:43:02Z</time>
      </trkpt>
      <trkpt lat="48.93966" lon="2.00093">
        <ele>21.3</ele>
        <time>2022-06-21T09:43:13Z</time>
      </trkpt>
      <trkpt lat="48.93962" lon="2.00099">
        <ele>17.8</ele>
        <time>2022-06-21T09:43:55Z</time>
      </trkpt>
      <trkpt lat="48.93961" lon="2.00108">
        <ele>17.4</ele>
        <time>2022-06-21T09:43:59Z</time>
      </trkpt>
      <trkpt lat="48.93959" lon="2.00115">
        <ele>22.5</ele>
        <time>2022-06-21T09:44:02Z</time>
      </trkpt>
      <trkpt lat="48.93959" lon="2.00122">
        <ele>23.4</ele>
        <time>2022-06-21T09:44:05Z</time>
      </trkpt>
      <trkpt lat="48.93958" lon="2.00129">
        <ele>21.5</ele>
        <time>2022-06-21T09:44:09Z</time>
      </trkpt>
      <trkpt lat="48.93959" lon="2.00136">
        <ele>21</ele>
        <time>2022-06-21T09:44:13Z</time>
      </trkpt>
      <trkpt lat="48.93961" lon="2.00142">
        <ele>23.7</ele>
        <time>2022-06-21T09:44:16Z</time>
      </trkpt>
      <trkpt lat="48.93964" lon="2.00149">
        <ele>25.8</ele>
        <time>2022-06-21T09:44:20Z</time>
      </trkpt>
      <trkpt lat="48.93967" lon="2.00156">
        <ele>23.9</ele>
        <time>2022-06-21T09:44:24Z</time>
      </trkpt>
      <trkpt lat="48.93965" lon="2.00164">
        <ele>26</ele>
        <time>2022-06-21T09:44:29Z</time>
      </trkpt>
      <trkpt lat="48.93965" lon="2.00171">
        <ele>25.2</ele>
        <time>2022-06-21T09:44:33Z</time>
      </trkpt>
      <trkpt lat="48.93969" lon="2.00172">
        <ele>21.5</ele>
        <time>2022-06-21T09:44:50Z</time>
      </trkpt>
      <trkpt lat="48.93968" lon="2.00181">
        <ele>21.1</ele>
        <time>2022-06-21T09:44:55Z</time>
      </trkpt>
      <trkpt lat="48.93966" lon="2.00188">
        <ele>21.3</ele>
        <time>2022-06-21T09:44:58Z</time>
      </trkpt>
      <trkpt lat="48.93963" lon="2.00194">
        <ele>20.7</ele>
        <time>2022-06-21T09:45:01Z</time>
      </trkpt>
      <trkpt lat="48.93962" lon="2.00203">
        <ele>16.7</ele>
        <time>2022-06-21T09:45:05Z</time>
      </trkpt>
      <trkpt lat="48.93962" lon="2.00211">
        <ele>16.1</ele>
        <time>2022-06-21T09:45:10Z</time>
      </trkpt>
      <trkpt lat="48.93962" lon="2.00218">
        <ele>17.8</ele>
        <time>2022-06-21T09:45:14Z</time>
      </trkpt>
      <trkpt lat="48.93963" lon="2.00227">
        <ele>20</ele>
        <time>2022-06-21T09:45:18Z</time>
      </trkpt>
      <trkpt lat="48.93964" lon="2.00236">
        <ele>21</ele>
        <time>2022-06-21T09:45:23Z</time>
      </trkpt>
      <trkpt lat="48.93965" lon="2.00244">
        <ele>21.4</ele>
        <time>2022-06-21T09:45:27Z</time>
      </trkpt>
      <trkpt lat="48.93965" lon="2.00252">
        <ele>22.6</ele>
        <time>2022-06-21T09:45:31Z</time>
      </trkpt>
      <trkpt lat="48.93965" lon="2.0026">
        <ele>20.9</ele>
        <time>2022-06-21T09:45:36Z</time>
      </trkpt>
      <trkpt lat="48.93966" lon="2.00268">
        <ele>20</ele>
        <time>2022-06-21T09:45:40Z</time>
      </trkpt>
      <trkpt lat="48.93966" lon="2.00276">
        <ele>20.5</ele>
        <time>2022-06-21T09:45:45Z</time>
      </trkpt>
      <trkpt lat="48.93966" lon="2.00284">
        <ele>21.1</ele>
        <time>2022-06-21T09:45:50Z</time>
      </trkpt>
      <trkpt lat="48.93966" lon="2.00291">
        <ele>21.7</ele>
        <time>2022-06-21T09:45:54Z</time>
      </trkpt>
      <trkpt lat="48.93965" lon="2.00298">
        <ele>22.5</ele>
        <time>2022-06-21T09:45:58Z</time>
      </trkpt>
      <trkpt lat="48.93966" lon="2.00306">
        <ele>21.9</ele>
        <time>2022-06-21T09:46:04Z</time>
      </trkpt>
      <trkpt lat="48.93969" lon="2.00299">
        <ele>22.9</ele>
        <time>2022-06-21T09:49:14Z</time>
      </trkpt>
      <trkpt lat="48.93971" lon="2.00292">
        <ele>21.3</ele>
        <time>2022-06-21T09:49:21Z</time>
      </trkpt>
      <trkpt lat="48.93973" lon="2.00284">
        <ele>21.5</ele>
        <time>2022-06-21T09:49:24Z</time>
      </trkpt>
      <trkpt lat="48.93975" lon="2.00276">
        <ele>20.3</ele>
        <time>2022-06-21T09:49:28Z</time>
      </trkpt>
      <trkpt lat="48.93976" lon="2.00267">
        <ele>18.9</ele>
        <time>2022-06-21T09:49:33Z</time>
      </trkpt>
      <trkpt lat="48.93976" lon="2.00259">
        <ele>17.2</ele>
        <time>2022-06-21T09:49:37Z</time>
      </trkpt>
      <trkpt lat="48.93976" lon="2.00251">
        <ele>15.4</ele>
        <time>2022-06-21T09:49:42Z</time>
      </trkpt>
      <trkpt lat="48.93978" lon="2.00245">
        <ele>16.2</ele>
        <time>2022-06-21T09:49:47Z</time>
      </trkpt>
      <trkpt lat="48.93982" lon="2.00241">
        <ele>15.1</ele>
        <time>2022-06-21T09:49:51Z</time>
      </trkpt>
      <trkpt lat="48.93986" lon="2.00237">
        <ele>14.7</ele>
        <time>2022-06-21T09:49:55Z</time>
      </trkpt>
      <trkpt lat="48.9399" lon="2.00234">
        <ele>13.2</ele>
        <time>2022-06-21T09:49:59Z</time>
      </trkpt>
      <trkpt lat="48.93995" lon="2.00232">
        <ele>13.2</ele>
        <time>2022-06-21T09:50:04Z</time>
      </trkpt>
      <trkpt lat="48.94" lon="2.00229">
        <ele>15.7</ele>
        <time>2022-06-21T09:50:09Z</time>
      </trkpt>
      <trkpt lat="48.94004" lon="2.00225">
        <ele>15</ele>
        <time>2022-06-21T09:50:13Z</time>
      </trkpt>
      <trkpt lat="48.94008" lon="2.0022">
        <ele>15.3</ele>
        <time>2022-06-21T09:50:18Z</time>
      </trkpt>
      <trkpt lat="48.94012" lon="2.00214">
        <ele>15.1</ele>
        <time>2022-06-21T09:50:23Z</time>
      </trkpt>
      <trkpt lat="48.94015" lon="2.00207">
        <ele>16.6</ele>
        <time>2022-06-21T09:50:29Z</time>
      </trkpt>
      <trkpt lat="48.94016" lon="2.00201">
        <ele>16</ele>
        <time>2022-06-21T09:50:33Z</time>
      </trkpt>
      <trkpt lat="48.94018" lon="2.00193">
        <ele>16.4</ele>
        <time>2022-06-21T09:50:38Z</time>
      </trkpt>
      <trkpt lat="48.94018" lon="2.00185">
        <ele>15.7</ele>
        <time>2022-06-21T09:50:43Z</time>
      </trkpt>
      <trkpt lat="48.9402" lon="2.00176">
        <ele>15.8</ele>
        <time>2022-06-21T09:50:49Z</time>
      </trkpt>
      <trkpt lat="48.94023" lon="2.00171">
        <ele>16.6</ele>
        <time>2022-06-21T09:50:53Z</time>
      </trkpt>
      <trkpt lat="48.94028" lon="2.00169">
        <ele>16.8</ele>
        <time>2022-06-21T09:50:57Z</time>
      </trkpt>
      <trkpt lat="48.94033" lon="2.00168">
        <ele>18</ele>
        <time>2022-06-21T09:51:01Z</time>
      </trkpt>
      <trkpt lat="48.94038" lon="2.00166">
        <ele>17.2</ele>
        <time>2022-06-21T09:51:06Z</time>
      </trkpt>
      <trkpt lat="48.94044" lon="2.00164">
        <ele>20.1</ele>
        <time>2022-06-21T09:51:11Z</time>
      </trkpt>
      <trkpt lat="48.9405" lon="2.00163">
        <ele>22.1</ele>
        <time>2022-06-21T09:51:16Z</time>
      </trkpt>
      <trkpt lat="48.94054" lon="2.00162">
        <ele>20.3</ele>
        <time>2022-06-21T09:51:20Z</time>
      </trkpt>
      <trkpt lat="48.94059" lon="2.00162">
        <ele>17.1</ele>
        <time>2022-06-21T09:51:24Z</time>
      </trkpt>
      <trkpt lat="48.94064" lon="2.00162">
        <ele>18.4</ele>
        <time>2022-06-21T09:51:28Z</time>
      </trkpt>
      <trkpt lat="48.94068" lon="2.00159">
        <ele>18.5</ele>
        <time>2022-06-21T09:51:32Z</time>
      </trkpt>
      <trkpt lat="48.94073" lon="2.00156">
        <ele>18.7</ele>
        <time>2022-06-21T09:51:36Z</time>
      </trkpt>
      <trkpt lat="48.94078" lon="2.00152">
        <ele>18.4</ele>
        <time>2022-06-21T09:51:40Z</time>
      </trkpt>
      <trkpt lat="48.94083" lon="2.00151">
        <ele>18.7</ele>
        <time>2022-06-21T09:51:45Z</time>
      </trkpt>
      <trkpt lat="48.94089" lon="2.0015">
        <ele>19</ele>
        <time>2022-06-21T09:51:50Z</time>
      </trkpt>
      <trkpt lat="48.94094" lon="2.00148">
        <ele>19.7</ele>
        <time>2022-06-21T09:51:54Z</time>
      </trkpt>
      <trkpt lat="48.94099" lon="2.00145">
        <ele>20.3</ele>
        <time>2022-06-21T09:51:58Z</time>
      </trkpt>
      <trkpt lat="48.94105" lon="2.00144">
        <ele>19.7</ele>
        <time>2022-06-21T09:52:03Z</time>
      </trkpt>
      <trkpt lat="48.9411" lon="2.00144">
        <ele>19</ele>
        <time>2022-06-21T09:52:07Z</time>
      </trkpt>
      <trkpt lat="48.94114" lon="2.00143">
        <ele>17</ele>
        <time>2022-06-21T09:52:11Z</time>
      </trkpt>
      <trkpt lat="48.9412" lon="2.00142">
        <ele>15.9</ele>
        <time>2022-06-21T09:52:16Z</time>
      </trkpt>
      <trkpt lat="48.94125" lon="2.00141">
        <ele>16.7</ele>
        <time>2022-06-21T09:52:20Z</time>
      </trkpt>
      <trkpt lat="48.94131" lon="2.00139">
        <ele>17.8</ele>
        <time>2022-06-21T09:52:24Z</time>
      </trkpt>
      <trkpt lat="48.94135" lon="2.00137">
        <ele>17.8</ele>
        <time>2022-06-21T09:52:28Z</time>
      </trkpt>
      <trkpt lat="48.9414" lon="2.00135">
        <ele>16.3</ele>
        <time>2022-06-21T09:52:32Z</time>
      </trkpt>
      <trkpt lat="48.94144" lon="2.00133">
        <ele>16.6</ele>
        <time>2022-06-21T09:52:36Z</time>
      </trkpt>
      <trkpt lat="48.9415" lon="2.0013">
        <ele>16.3</ele>
        <time>2022-06-21T09:52:41Z</time>
      </trkpt>
      <trkpt lat="48.94155" lon="2.00129">
        <ele>14.5</ele>
        <time>2022-06-21T09:52:45Z</time>
      </trkpt>
      <trkpt lat="48.94161" lon="2.00128">
        <ele>15.2</ele>
        <time>2022-06-21T09:52:50Z</time>
      </trkpt>
      <trkpt lat="48.94166" lon="2.00126">
        <ele>16</ele>
        <time>2022-06-21T09:52:55Z</time>
      </trkpt>
      <trkpt lat="48.94172" lon="2.00123">
        <ele>13.9</ele>
        <time>2022-06-21T09:52:59Z</time>
      </trkpt>
      <trkpt lat="48.94177" lon="2.0012">
        <ele>14.9</ele>
        <time>2022-06-21T09:53:03Z</time>
      </trkpt>
      <trkpt lat="48.94182" lon="2.00119">
        <ele>16.2</ele>
        <time>2022-06-21T09:53:07Z</time>
      </trkpt>
      <trkpt lat="48.94187" lon="2.00118">
        <ele>15.9</ele>
        <time>2022-06-21T09:53:11Z</time>
      </trkpt>
      <trkpt lat="48.94191" lon="2.00117">
        <ele>14.7</ele>
        <time>2022-06-21T09:53:15Z</time>
      </trkpt>
      <trkpt lat="48.94196" lon="2.00116">
        <ele>14.5</ele>
        <time>2022-06-21T09:53:19Z</time>
      </trkpt>
      <trkpt lat="48.94201" lon="2.00115">
        <ele>15</ele>
        <time>2022-06-21T09:53:23Z</time>
      </trkpt>
      <trkpt lat="48.94206" lon="2.00113">
        <ele>16.3</ele>
        <time>2022-06-21T09:53:27Z</time>
      </trkpt>
      <trkpt lat="48.94212" lon="2.00114">
        <ele>17</ele>
        <time>2022-06-21T09:53:31Z</time>
      </trkpt>
      <trkpt lat="48.94216" lon="2.00112">
        <ele>19.8</ele>
        <time>2022-06-21T09:53:35Z</time>
      </trkpt>
      <trkpt lat="48.94221" lon="2.0011">
        <ele>19</ele>
        <time>2022-06-21T09:53:39Z</time>
      </trkpt>
      <trkpt lat="48.94226" lon="2.00109">
        <ele>21</ele>
        <time>2022-06-21T09:53:43Z</time>
      </trkpt>
      <trkpt lat="48.94231" lon="2.00107">
        <ele>18.7</ele>
        <time>2022-06-21T09:53:48Z</time>
      </trkpt>
      <trkpt lat="48.94236" lon="2.00105">
        <ele>18.8</ele>
        <time>2022-06-21T09:53:53Z</time>
      </trkpt>
      <trkpt lat="48.94242" lon="2.00102">
        <ele>20.5</ele>
        <time>2022-06-21T09:53:58Z</time>
      </trkpt>
      <trkpt lat="48.94247" lon="2.00101">
        <ele>19.2</ele>
        <time>2022-06-21T09:54:02Z</time>
      </trkpt>
      <trkpt lat="48.94251" lon="2.00095">
        <ele>19.2</ele>
        <time>2022-06-21T09:54:14Z</time>
      </trkpt>
      <trkpt lat="48.94256" lon="2.00095">
        <ele>18.9</ele>
        <time>2022-06-21T09:54:17Z</time>
      </trkpt>
      <trkpt lat="48.94261" lon="2.00095">
        <ele>18.9</ele>
        <time>2022-06-21T09:54:20Z</time>
      </trkpt>
      <trkpt lat="48.94267" lon="2.00095">
        <ele>18.7</ele>
        <time>2022-06-21T09:54:24Z</time>
      </trkpt>
      <trkpt lat="48.94273" lon="2.00093">
        <ele>18.2</ele>
        <time>2022-06-21T09:54:28Z</time>
      </trkpt>
      <trkpt lat="48.94278" lon="2.00091">
        <ele>17.9</ele>
        <time>2022-06-21T09:54:33Z</time>
      </trkpt>
      <trkpt lat="48.94284" lon="2.00089">
        <ele>18.4</ele>
        <time>2022-06-21T09:54:38Z</time>
      </trkpt>
      <trkpt lat="48.94288" lon="2.00087">
        <ele>19</ele>
        <time>2022-06-21T09:54:42Z</time>
      </trkpt>
      <trkpt lat="48.94293" lon="2.0009">
        <ele>19.2</ele>
        <time>2022-06-21T09:54:46Z</time>
      </trkpt>
      <trkpt lat="48.94298" lon="2.0009">
        <ele>18.9</ele>
        <time>2022-06-21T09:54:50Z</time>
      </trkpt>
      <trkpt lat="48.94303" lon="2.00089">
        <ele>17.9</ele>
        <time>2022-06-21T09:54:54Z</time>
      </trkpt>
      <trkpt lat="48.94307" lon="2.00086">
        <ele>17.7</ele>
        <time>2022-06-21T09:54:59Z</time>
      </trkpt>
      <trkpt lat="48.94312" lon="2.00083">
        <ele>17</ele>
        <time>2022-06-21T09:55:03Z</time>
      </trkpt>
      <trkpt lat="48.94316" lon="2.00081">
        <ele>15</ele>
        <time>2022-06-21T09:55:07Z</time>
      </trkpt>
      <trkpt lat="48.9432" lon="2.00075">
        <ele>13.1</ele>
        <time>2022-06-21T09:55:12Z</time>
      </trkpt>
      <trkpt lat="48.94326" lon="2.00078">
        <ele>17.1</ele>
        <time>2022-06-21T09:55:21Z</time>
      </trkpt>
      <trkpt lat="48.94332" lon="2.00077">
        <ele>17.3</ele>
        <time>2022-06-21T09:55:25Z</time>
      </trkpt>
      <trkpt lat="48.94336" lon="2.00075">
        <ele>16.7</ele>
        <time>2022-06-21T09:55:29Z</time>
      </trkpt>
      <trkpt lat="48.94341" lon="2.00074">
        <ele>17.5</ele>
        <time>2022-06-21T09:55:33Z</time>
      </trkpt>
      <trkpt lat="48.94346" lon="2.00071">
        <ele>18.1</ele>
        <time>2022-06-21T09:55:37Z</time>
      </trkpt>
      <trkpt lat="48.9435" lon="2.00068">
        <ele>17.6</ele>
        <time>2022-06-21T09:55:42Z</time>
      </trkpt>
      <trkpt lat="48.94356" lon="2.00065">
        <ele>17.1</ele>
        <time>2022-06-21T09:55:47Z</time>
      </trkpt>
      <trkpt lat="48.94361" lon="2.00064">
        <ele>16.7</ele>
        <time>2022-06-21T09:55:52Z</time>
      </trkpt>
      <trkpt lat="48.94366" lon="2.00063">
        <ele>15</ele>
        <time>2022-06-21T09:55:56Z</time>
      </trkpt>
      <trkpt lat="48.94371" lon="2.00062">
        <ele>16.8</ele>
        <time>2022-06-21T09:56:00Z</time>
      </trkpt>
      <trkpt lat="48.94377" lon="2.00059">
        <ele>18.7</ele>
        <time>2022-06-21T09:56:05Z</time>
      </trkpt>
      <trkpt lat="48.94382" lon="2.00057">
        <ele>18.4</ele>
        <time>2022-06-21T09:56:09Z</time>
      </trkpt>
      <trkpt lat="48.94387" lon="2.00055">
        <ele>16.8</ele>
        <time>2022-06-21T09:56:14Z</time>
      </trkpt>
      <trkpt lat="48.94392" lon="2.00053">
        <ele>17.2</ele>
        <time>2022-06-21T09:56:18Z</time>
      </trkpt>
      <trkpt lat="48.94397" lon="2.00053">
        <ele>17.5</ele>
        <time>2022-06-21T09:56:23Z</time>
      </trkpt>
      <trkpt lat="48.94402" lon="2.00052">
        <ele>18.2</ele>
        <time>2022-06-21T09:56:28Z</time>
      </trkpt>
      <trkpt lat="48.94408" lon="2.0005">
        <ele>19.4</ele>
        <time>2022-06-21T09:56:32Z</time>
      </trkpt>
      <trkpt lat="48.94413" lon="2.00049">
        <ele>19.2</ele>
        <time>2022-06-21T09:56:36Z</time>
      </trkpt>
      <trkpt lat="48.94418" lon="2.00047">
        <ele>16.2</ele>
        <time>2022-06-21T09:56:41Z</time>
      </trkpt>
      <trkpt lat="48.94423" lon="2.00046">
        <ele>17.5</ele>
        <time>2022-06-21T09:56:45Z</time>
      </trkpt>
      <trkpt lat="48.94427" lon="2.00044">
        <ele>18.5</ele>
        <time>2022-06-21T09:56:49Z</time>
      </trkpt>
      <trkpt lat="48.94432" lon="2.00042">
        <ele>19</ele>
        <time>2022-06-21T09:56:53Z</time>
      </trkpt>
      <trkpt lat="48.94436" lon="2.0004">
        <ele>18.6</ele>
        <time>2022-06-21T09:56:57Z</time>
      </trkpt>
      <trkpt lat="48.94441" lon="2.00038">
        <ele>15.5</ele>
        <time>2022-06-21T09:57:01Z</time>
      </trkpt>
      <trkpt lat="48.94447" lon="2.00036">
        <ele>16</ele>
        <time>2022-06-21T09:57:06Z</time>
      </trkpt>
      <trkpt lat="48.94452" lon="2.00035">
        <ele>18.3</ele>
        <time>2022-06-21T09:57:11Z</time>
      </trkpt>
      <trkpt lat="48.94457" lon="2.00033">
        <ele>15.5</ele>
        <time>2022-06-21T09:57:16Z</time>
      </trkpt>
      <trkpt lat="48.94462" lon="2.00031">
        <ele>14.3</ele>
        <time>2022-06-21T09:57:20Z</time>
      </trkpt>
      <trkpt lat="48.94468" lon="2.00027">
        <ele>14.7</ele>
        <time>2022-06-21T09:57:25Z</time>
      </trkpt>
      <trkpt lat="48.94473" lon="2.00025">
        <ele>15.2</ele>
        <time>2022-06-21T09:57:29Z</time>
      </trkpt>
      <trkpt lat="48.94478" lon="2.00024">
        <ele>14.7</ele>
        <time>2022-06-21T09:57:33Z</time>
      </trkpt>
      <trkpt lat="48.94483" lon="2.00023">
        <ele>16</ele>
        <time>2022-06-21T09:57:37Z</time>
      </trkpt>
      <trkpt lat="48.94489" lon="2.00021">
        <ele>15.5</ele>
        <time>2022-06-21T09:57:42Z</time>
      </trkpt>
      <trkpt lat="48.94494" lon="2.00021">
        <ele>16.2</ele>
        <time>2022-06-21T09:57:46Z</time>
      </trkpt>
      <trkpt lat="48.945" lon="2.0002">
        <ele>16.2</ele>
        <time>2022-06-21T09:57:51Z</time>
      </trkpt>
      <trkpt lat="48.94506" lon="2.00018">
        <ele>16.6</ele>
        <time>2022-06-21T09:57:55Z</time>
      </trkpt>
      <trkpt lat="48.9451" lon="2.00017">
        <ele>17.6</ele>
        <time>2022-06-21T09:57:59Z</time>
      </trkpt>
      <trkpt lat="48.94515" lon="2.00015">
        <ele>19.9</ele>
        <time>2022-06-21T09:58:03Z</time>
      </trkpt>
      <trkpt lat="48.9452" lon="2.00013">
        <ele>18.7</ele>
        <time>2022-06-21T09:58:07Z</time>
      </trkpt>
      <trkpt lat="48.94525" lon="2.00012">
        <ele>17.4</ele>
        <time>2022-06-21T09:58:11Z</time>
      </trkpt>
      <trkpt lat="48.9453" lon="2.0001">
        <ele>17.3</ele>
        <time>2022-06-21T09:58:15Z</time>
      </trkpt>
      <trkpt lat="48.94535" lon="2.00007">
        <ele>18.9</ele>
        <time>2022-06-21T09:58:19Z</time>
      </trkpt>
      <trkpt lat="48.94541" lon="2.00006">
        <ele>18.6</ele>
        <time>2022-06-21T09:58:24Z</time>
      </trkpt>
      <trkpt lat="48.94545" lon="2.00004">
        <ele>18.2</ele>
        <time>2022-06-21T09:58:28Z</time>
      </trkpt>
      <trkpt lat="48.9455" lon="2.00002">
        <ele>18</ele>
        <time>2022-06-21T09:58:32Z</time>
      </trkpt>
      <trkpt lat="48.94555" lon="1.99999">
        <ele>16.5</ele>
        <time>2022-06-21T09:58:36Z</time>
      </trkpt>
      <trkpt lat="48.94561" lon="1.99997">
        <ele>16.6</ele>
        <time>2022-06-21T09:58:40Z</time>
      </trkpt>
      <trkpt lat="48.94566" lon="1.99997">
        <ele>17.2</ele>
        <time>2022-06-21T09:58:45Z</time>
      </trkpt>
      <trkpt lat="48.94566" lon="2.00005">
        <ele>19.9</ele>
        <time>2022-06-21T09:58:48Z</time>
      </trkpt>
      <trkpt lat="48.94574" lon="2">
        <ele>19.7</ele>
        <time>2022-06-21T09:58:55Z</time>
      </trkpt>
      <trkpt lat="48.94579" lon="1.99997">
        <ele>19.9</ele>
        <time>2022-06-21T09:59:00Z</time>
      </trkpt>
      <trkpt lat="48.94585" lon="1.99995">
        <ele>18.6</ele>
        <time>2022-06-21T09:59:04Z</time>
      </trkpt>
      <trkpt lat="48.94589" lon="1.99993">
        <ele>17.5</ele>
        <time>2022-06-21T09:59:09Z</time>
      </trkpt>
      <trkpt lat="48.94595" lon="1.99993">
        <ele>19.4</ele>
        <time>2022-06-21T09:59:15Z</time>
      </trkpt>
      <trkpt lat="48.946" lon="1.99994">
        <ele>22.2</ele>
        <time>2022-06-21T09:59:37Z</time>
      </trkpt>
      <trkpt lat="48.94605" lon="1.99991">
        <ele>23.9</ele>
        <time>2022-06-21T09:59:42Z</time>
      </trkpt>
      <trkpt lat="48.94611" lon="1.99989">
        <ele>25.8</ele>
        <time>2022-06-21T09:59:47Z</time>
      </trkpt>
      <trkpt lat="48.94615" lon="1.99987">
        <ele>25.2</ele>
        <time>2022-06-21T09:59:51Z</time>
      </trkpt>
      <trkpt lat="48.94619" lon="1.99986">
        <ele>25.2</ele>
        <time>2022-06-21T09:59:55Z</time>
      </trkpt>
      <trkpt lat="48.94624" lon="1.99988">
        <ele>22.5</ele>
        <time>2022-06-21T10:00:01Z</time>
      </trkpt>
      <trkpt lat="48.94628" lon="1.99992">
        <ele>22.9</ele>
        <time>2022-06-21T10:00:07Z</time>
      </trkpt>
      <trkpt lat="48.94633" lon="1.9999">
        <ele>20.6</ele>
        <time>2022-06-21T10:00:13Z</time>
      </trkpt>
      <trkpt lat="48.94636" lon="1.99983">
        <ele>20.4</ele>
        <time>2022-06-21T10:00:18Z</time>
      </trkpt>
      <trkpt lat="48.94637" lon="1.99974">
        <ele>15.7</ele>
        <time>2022-06-21T10:00:25Z</time>
      </trkpt>
      <trkpt lat="48.94636" lon="1.99967">
        <ele>15.7</ele>
        <time>2022-06-21T10:00:31Z</time>
      </trkpt>
      <trkpt lat="48.94632" lon="1.9997">
        <ele>16.8</ele>
        <time>2022-06-21T10:00:38Z</time>
      </trkpt>
      <trkpt lat="48.9463" lon="1.99976">
        <ele>14.5</ele>
        <time>2022-06-21T10:00:49Z</time>
      </trkpt>
      <trkpt lat="48.94635" lon="1.99974">
        <ele>15.4</ele>
        <time>2022-06-21T10:01:09Z</time>
      </trkpt>
      <trkpt lat="48.94639" lon="1.99972">
        <ele>15.2</ele>
        <time>2022-06-21T10:01:32Z</time>
      </trkpt>
      <trkpt lat="48.94627" lon="1.99964">
        <ele>13.4</ele>
        <time>2022-06-21T10:01:50Z</time>
      </trkpt>
      <trkpt lat="48.94623" lon="1.99961">
        <ele>12.9</ele>
        <time>2022-06-21T10:01:55Z</time>
      </trkpt>
      <trkpt lat="48.94618" lon="1.99962">
        <ele>11.3</ele>
        <time>2022-06-21T10:02:01Z</time>
      </trkpt>
      <trkpt lat="48.94614" lon="1.99968">
        <ele>12.7</ele>
        <time>2022-06-21T10:02:08Z</time>
      </trkpt>
      <trkpt lat="48.94612" lon="1.99975">
        <ele>13.9</ele>
        <time>2022-06-21T10:02:14Z</time>
      </trkpt>
      <trkpt lat="48.9461" lon="1.99981">
        <ele>17.5</ele>
        <time>2022-06-21T10:02:32Z</time>
      </trkpt>
      <trkpt lat="48.94606" lon="1.99986">
        <ele>16.9</ele>
        <time>2022-06-21T10:02:50Z</time>
      </trkpt>
      <trkpt lat="48.94602" lon="1.99988">
        <ele>15.5</ele>
        <time>2022-06-21T10:03:07Z</time>
      </trkpt>
      <trkpt lat="48.94596" lon="1.99988">
        <ele>13.8</ele>
        <time>2022-06-21T10:04:17Z</time>
      </trkpt>
      <trkpt lat="48.94591" lon="1.99986">
        <ele>13.5</ele>
        <time>2022-06-21T10:04:21Z</time>
      </trkpt>
      <trkpt lat="48.94586" lon="1.99985">
        <ele>13.8</ele>
        <time>2022-06-21T10:04:24Z</time>
      </trkpt>
      <trkpt lat="48.94581" lon="1.99985">
        <ele>12.6</ele>
        <time>2022-06-21T10:04:28Z</time>
      </trkpt>
      <trkpt lat="48.94576" lon="1.99986">
        <ele>14.2</ele>
        <time>2022-06-21T10:04:33Z</time>
      </trkpt>
      <trkpt lat="48.94571" lon="1.99988">
        <ele>14.3</ele>
        <time>2022-06-21T10:04:37Z</time>
      </trkpt>
      <trkpt lat="48.94565" lon="1.99991">
        <ele>16.1</ele>
        <time>2022-06-21T10:04:41Z</time>
      </trkpt>
      <trkpt lat="48.94562" lon="1.99996">
        <ele>16.9</ele>
        <time>2022-06-21T10:04:48Z</time>
      </trkpt>
      <trkpt lat="48.94557" lon="1.99996">
        <ele>18</ele>
        <time>2022-06-21T10:04:54Z</time>
      </trkpt>
      <trkpt lat="48.94551" lon="1.99996">
        <ele>18.3</ele>
        <time>2022-06-21T10:04:59Z</time>
      </trkpt>
      <trkpt lat="48.9455" lon="2.00003">
        <ele>17.9</ele>
        <time>2022-06-21T10:05:07Z</time>
      </trkpt>
      <trkpt lat="48.94546" lon="2.00006">
        <ele>17</ele>
        <time>2022-06-21T10:05:13Z</time>
      </trkpt>
      <trkpt lat="48.94541" lon="2.00006">
        <ele>15.9</ele>
        <time>2022-06-21T10:05:17Z</time>
      </trkpt>
      <trkpt lat="48.94537" lon="2.00006">
        <ele>15.9</ele>
        <time>2022-06-21T10:05:21Z</time>
      </trkpt>
      <trkpt lat="48.94531" lon="2.00007">
        <ele>16.4</ele>
        <time>2022-06-21T10:05:25Z</time>
      </trkpt>
      <trkpt lat="48.94526" lon="2.00009">
        <ele>15.8</ele>
        <time>2022-06-21T10:05:30Z</time>
      </trkpt>
      <trkpt lat="48.94521" lon="2.00009">
        <ele>13.9</ele>
        <time>2022-06-21T10:05:34Z</time>
      </trkpt>
      <trkpt lat="48.94517" lon="2.0001">
        <ele>13.6</ele>
        <time>2022-06-21T10:05:38Z</time>
      </trkpt>
      <trkpt lat="48.94511" lon="2.00012">
        <ele>14</ele>
        <time>2022-06-21T10:05:43Z</time>
      </trkpt>
      <trkpt lat="48.94506" lon="2.00014">
        <ele>15</ele>
        <time>2022-06-21T10:05:49Z</time>
      </trkpt>
      <trkpt lat="48.94501" lon="2.00014">
        <ele>14.7</ele>
        <time>2022-06-21T10:05:53Z</time>
      </trkpt>
      <trkpt lat="48.94496" lon="2.00015">
        <ele>15.1</ele>
        <time>2022-06-21T10:05:58Z</time>
      </trkpt>
      <trkpt lat="48.9449" lon="2.00018">
        <ele>14.1</ele>
        <time>2022-06-21T10:06:03Z</time>
      </trkpt>
      <trkpt lat="48.94485" lon="2.0002">
        <ele>13.6</ele>
        <time>2022-06-21T10:06:08Z</time>
      </trkpt>
      <trkpt lat="48.9448" lon="2.00023">
        <ele>11.5</ele>
        <time>2022-06-21T10:06:13Z</time>
      </trkpt>
      <trkpt lat="48.94476" lon="2.00025">
        <ele>11.3</ele>
        <time>2022-06-21T10:06:17Z</time>
      </trkpt>
      <trkpt lat="48.9447" lon="2.00026">
        <ele>11.2</ele>
        <time>2022-06-21T10:06:23Z</time>
      </trkpt>
      <trkpt lat="48.94465" lon="2.00026">
        <ele>10.3</ele>
        <time>2022-06-21T10:06:28Z</time>
      </trkpt>
      <trkpt lat="48.9446" lon="2.00028">
        <ele>10.1</ele>
        <time>2022-06-21T10:06:32Z</time>
      </trkpt>
      <trkpt lat="48.94455" lon="2.00029">
        <ele>10</ele>
        <time>2022-06-21T10:06:37Z</time>
      </trkpt>
      <trkpt lat="48.9445" lon="2.00032">
        <ele>9.9</ele>
        <time>2022-06-21T10:06:42Z</time>
      </trkpt>
      <trkpt lat="48.94446" lon="2.00033">
        <ele>8.5</ele>
        <time>2022-06-21T10:06:46Z</time>
      </trkpt>
      <trkpt lat="48.9444" lon="2.00034">
        <ele>8.2</ele>
        <time>2022-06-21T10:06:51Z</time>
      </trkpt>
      <trkpt lat="48.94435" lon="2.00036">
        <ele>10.7</ele>
        <time>2022-06-21T10:06:55Z</time>
      </trkpt>
      <trkpt lat="48.9443" lon="2.00037">
        <ele>11</ele>
        <time>2022-06-21T10:07:00Z</time>
      </trkpt>
      <trkpt lat="48.94426" lon="2.00039">
        <ele>9.6</ele>
        <time>2022-06-21T10:07:04Z</time>
      </trkpt>
      <trkpt lat="48.94421" lon="2.00041">
        <ele>9.9</ele>
        <time>2022-06-21T10:07:08Z</time>
      </trkpt>
      <trkpt lat="48.94416" lon="2.00044">
        <ele>10.6</ele>
        <time>2022-06-21T10:07:13Z</time>
      </trkpt>
      <trkpt lat="48.94412" lon="2.00045">
        <ele>10.5</ele>
        <time>2022-06-21T10:07:17Z</time>
      </trkpt>
      <trkpt lat="48.94407" lon="2.00048">
        <ele>9.2</ele>
        <time>2022-06-21T10:07:22Z</time>
      </trkpt>
      <trkpt lat="48.94402" lon="2.0005">
        <ele>8.3</ele>
        <time>2022-06-21T10:07:26Z</time>
      </trkpt>
      <trkpt lat="48.94397" lon="2.00052">
        <ele>8.9</ele>
        <time>2022-06-21T10:07:31Z</time>
      </trkpt>
      <trkpt lat="48.94393" lon="2.00053">
        <ele>10</ele>
        <time>2022-06-21T10:07:35Z</time>
      </trkpt>
      <trkpt lat="48.94388" lon="2.00055">
        <ele>9.6</ele>
        <time>2022-06-21T10:07:39Z</time>
      </trkpt>
      <trkpt lat="48.94383" lon="2.00057">
        <ele>10.7</ele>
        <time>2022-06-21T10:07:44Z</time>
      </trkpt>
      <trkpt lat="48.94378" lon="2.00058">
        <ele>9.7</ele>
        <time>2022-06-21T10:07:48Z</time>
      </trkpt>
      <trkpt lat="48.94373" lon="2.00061">
        <ele>9.9</ele>
        <time>2022-06-21T10:07:52Z</time>
      </trkpt>
      <trkpt lat="48.94369" lon="2.00063">
        <ele>9.9</ele>
        <time>2022-06-21T10:07:56Z</time>
      </trkpt>
      <trkpt lat="48.94364" lon="2.00064">
        <ele>10.2</ele>
        <time>2022-06-21T10:08:00Z</time>
      </trkpt>
      <trkpt lat="48.94358" lon="2.00066">
        <ele>11.1</ele>
        <time>2022-06-21T10:08:04Z</time>
      </trkpt>
      <trkpt lat="48.94352" lon="2.00067">
        <ele>11.6</ele>
        <time>2022-06-21T10:08:09Z</time>
      </trkpt>
      <trkpt lat="48.94347" lon="2.00069">
        <ele>11</ele>
        <time>2022-06-21T10:08:13Z</time>
      </trkpt>
      <trkpt lat="48.94343" lon="2.00071">
        <ele>10.8</ele>
        <time>2022-06-21T10:08:17Z</time>
      </trkpt>
      <trkpt lat="48.94338" lon="2.00072">
        <ele>10.5</ele>
        <time>2022-06-21T10:08:21Z</time>
      </trkpt>
      <trkpt lat="48.94333" lon="2.00074">
        <ele>12.3</ele>
        <time>2022-06-21T10:08:26Z</time>
      </trkpt>
      <trkpt lat="48.94328" lon="2.00075">
        <ele>10.9</ele>
        <time>2022-06-21T10:08:31Z</time>
      </trkpt>
      <trkpt lat="48.94322" lon="2.00077">
        <ele>9.9</ele>
        <time>2022-06-21T10:08:36Z</time>
      </trkpt>
      <trkpt lat="48.94317" lon="2.0008">
        <ele>10.2</ele>
        <time>2022-06-21T10:08:40Z</time>
      </trkpt>
      <trkpt lat="48.94313" lon="2.00082">
        <ele>8.3</ele>
        <time>2022-06-21T10:08:44Z</time>
      </trkpt>
      <trkpt lat="48.94308" lon="2.00084">
        <ele>7.6</ele>
        <time>2022-06-21T10:08:48Z</time>
      </trkpt>
      <trkpt lat="48.94302" lon="2.00085">
        <ele>7.7</ele>
        <time>2022-06-21T10:08:52Z</time>
      </trkpt>
      <trkpt lat="48.94297" lon="2.00086">
        <ele>7.3</ele>
        <time>2022-06-21T10:08:56Z</time>
      </trkpt>
      <trkpt lat="48.94291" lon="2.00088">
        <ele>6.7</ele>
        <time>2022-06-21T10:09:00Z</time>
      </trkpt>
      <trkpt lat="48.94286" lon="2.00091">
        <ele>7.2</ele>
        <time>2022-06-21T10:09:05Z</time>
      </trkpt>
      <trkpt lat="48.94281" lon="2.00093">
        <ele>7.3</ele>
        <time>2022-06-21T10:09:09Z</time>
      </trkpt>
      <trkpt lat="48.94277" lon="2.00094">
        <ele>6.2</ele>
        <time>2022-06-21T10:09:13Z</time>
      </trkpt>
      <trkpt lat="48.94272" lon="2.00095">
        <ele>6.5</ele>
        <time>2022-06-21T10:09:17Z</time>
      </trkpt>
      <trkpt lat="48.94266" lon="2.00096">
        <ele>7.3</ele>
        <time>2022-06-21T10:09:21Z</time>
      </trkpt>
      <trkpt lat="48.94261" lon="2.00098">
        <ele>8</ele>
        <time>2022-06-21T10:09:25Z</time>
      </trkpt>
      <trkpt lat="48.94255" lon="2.00099">
        <ele>8.4</ele>
        <time>2022-06-21T10:09:29Z</time>
      </trkpt>
      <trkpt lat="48.94249" lon="2.00098">
        <ele>8</ele>
        <time>2022-06-21T10:09:34Z</time>
      </trkpt>
      <trkpt lat="48.94243" lon="2.00099">
        <ele>8.4</ele>
        <time>2022-06-21T10:09:39Z</time>
      </trkpt>
      <trkpt lat="48.94238" lon="2.00102">
        <ele>8.5</ele>
        <time>2022-06-21T10:09:42Z</time>
      </trkpt>
      <trkpt lat="48.94233" lon="2.00104">
        <ele>8.9</ele>
        <time>2022-06-21T10:09:46Z</time>
      </trkpt>
      <trkpt lat="48.94228" lon="2.00107">
        <ele>8</ele>
        <time>2022-06-21T10:09:50Z</time>
      </trkpt>
      <trkpt lat="48.94223" lon="2.00109">
        <ele>8.1</ele>
        <time>2022-06-21T10:09:54Z</time>
      </trkpt>
      <trkpt lat="48.94218" lon="2.00111">
        <ele>8.5</ele>
        <time>2022-06-21T10:09:59Z</time>
      </trkpt>
      <trkpt lat="48.94213" lon="2.00112">
        <ele>7.9</ele>
        <time>2022-06-21T10:10:03Z</time>
      </trkpt>
      <trkpt lat="48.94208" lon="2.00111">
        <ele>8.2</ele>
        <time>2022-06-21T10:10:08Z</time>
      </trkpt>
      <trkpt lat="48.94203" lon="2.00112">
        <ele>13.2</ele>
        <time>2022-06-21T10:10:16Z</time>
      </trkpt>
      <trkpt lat="48.94198" lon="2.00114">
        <ele>13.1</ele>
        <time>2022-06-21T10:10:20Z</time>
      </trkpt>
      <trkpt lat="48.94192" lon="2.00116">
        <ele>13.8</ele>
        <time>2022-06-21T10:10:25Z</time>
      </trkpt>
      <trkpt lat="48.94187" lon="2.00118">
        <ele>13.5</ele>
        <time>2022-06-21T10:10:29Z</time>
      </trkpt>
      <trkpt lat="48.94182" lon="2.0012">
        <ele>13.9</ele>
        <time>2022-06-21T10:10:34Z</time>
      </trkpt>
      <trkpt lat="48.94178" lon="2.00122">
        <ele>12.4</ele>
        <time>2022-06-21T10:10:38Z</time>
      </trkpt>
      <trkpt lat="48.94173" lon="2.00124">
        <ele>13.5</ele>
        <time>2022-06-21T10:10:43Z</time>
      </trkpt>
      <trkpt lat="48.94167" lon="2.00125">
        <ele>12.8</ele>
        <time>2022-06-21T10:10:48Z</time>
      </trkpt>
      <trkpt lat="48.94162" lon="2.00126">
        <ele>13.3</ele>
        <time>2022-06-21T10:10:52Z</time>
      </trkpt>
      <trkpt lat="48.94157" lon="2.00128">
        <ele>11.2</ele>
        <time>2022-06-21T10:10:57Z</time>
      </trkpt>
      <trkpt lat="48.94151" lon="2.0013">
        <ele>12.4</ele>
        <time>2022-06-21T10:11:02Z</time>
      </trkpt>
      <trkpt lat="48.94146" lon="2.00131">
        <ele>10.5</ele>
        <time>2022-06-21T10:11:07Z</time>
      </trkpt>
      <trkpt lat="48.94141" lon="2.00132">
        <ele>10</ele>
        <time>2022-06-21T10:11:11Z</time>
      </trkpt>
      <trkpt lat="48.94136" lon="2.00136">
        <ele>9.2</ele>
        <time>2022-06-21T10:11:15Z</time>
      </trkpt>
      <trkpt lat="48.94132" lon="2.00141">
        <ele>10.8</ele>
        <time>2022-06-21T10:11:19Z</time>
      </trkpt>
      <trkpt lat="48.94128" lon="2.00143">
        <ele>10.4</ele>
        <time>2022-06-21T10:11:24Z</time>
      </trkpt>
      <trkpt lat="48.94123" lon="2.00143">
        <ele>9.9</ele>
        <time>2022-06-21T10:11:28Z</time>
      </trkpt>
      <trkpt lat="48.94118" lon="2.00145">
        <ele>7.2</ele>
        <time>2022-06-21T10:11:32Z</time>
      </trkpt>
      <trkpt lat="48.94114" lon="2.00147">
        <ele>7.5</ele>
        <time>2022-06-21T10:11:36Z</time>
      </trkpt>
      <trkpt lat="48.9411" lon="2.00151">
        <ele>7.3</ele>
        <time>2022-06-21T10:11:41Z</time>
      </trkpt>
      <trkpt lat="48.94105" lon="2.00151">
        <ele>6.4</ele>
        <time>2022-06-21T10:11:46Z</time>
      </trkpt>
      <trkpt lat="48.941" lon="2.00151">
        <ele>6.5</ele>
        <time>2022-06-21T10:11:50Z</time>
      </trkpt>
      <trkpt lat="48.94095" lon="2.00153">
        <ele>4.6</ele>
        <time>2022-06-21T10:11:54Z</time>
      </trkpt>
      <trkpt lat="48.9409" lon="2.00157">
        <ele>4</ele>
        <time>2022-06-21T10:11:59Z</time>
      </trkpt>
      <trkpt lat="48.94085" lon="2.00158">
        <ele>5.1</ele>
        <time>2022-06-21T10:12:03Z</time>
      </trkpt>
      <trkpt lat="48.94079" lon="2.00159">
        <ele>3.5</ele>
        <time>2022-06-21T10:12:08Z</time>
      </trkpt>
      <trkpt lat="48.94075" lon="2.00162">
        <ele>3.5</ele>
        <time>2022-06-21T10:12:12Z</time>
      </trkpt>
      <trkpt lat="48.94069" lon="2.00164">
        <ele>5</ele>
        <time>2022-06-21T10:12:16Z</time>
      </trkpt>
      <trkpt lat="48.94065" lon="2.00166">
        <ele>4.5</ele>
        <time>2022-06-21T10:12:20Z</time>
      </trkpt>
      <trkpt lat="48.9406" lon="2.00168">
        <ele>5</ele>
        <time>2022-06-21T10:12:24Z</time>
      </trkpt>
      <trkpt lat="48.94055" lon="2.00169">
        <ele>4.5</ele>
        <time>2022-06-21T10:12:28Z</time>
      </trkpt>
      <trkpt lat="48.9405" lon="2.0017">
        <ele>4.3</ele>
        <time>2022-06-21T10:12:32Z</time>
      </trkpt>
      <trkpt lat="48.94045" lon="2.0017">
        <ele>4.1</ele>
        <time>2022-06-21T10:12:36Z</time>
      </trkpt>
      <trkpt lat="48.94041" lon="2.00171">
        <ele>3.8</ele>
        <time>2022-06-21T10:12:40Z</time>
      </trkpt>
      <trkpt lat="48.94036" lon="2.00172">
        <ele>5.9</ele>
        <time>2022-06-21T10:12:44Z</time>
      </trkpt>
      <trkpt lat="48.94031" lon="2.00172">
        <ele>7.2</ele>
        <time>2022-06-21T10:12:48Z</time>
      </trkpt>
      <trkpt lat="48.94025" lon="2.00173">
        <ele>7.8</ele>
        <time>2022-06-21T10:12:52Z</time>
      </trkpt>
      <trkpt lat="48.94021" lon="2.00174">
        <ele>8.1</ele>
        <time>2022-06-21T10:12:56Z</time>
      </trkpt>
      <trkpt lat="48.94016" lon="2.00172">
        <ele>8.8</ele>
        <time>2022-06-21T10:13:00Z</time>
      </trkpt>
      <trkpt lat="48.94011" lon="2.00172">
        <ele>10</ele>
        <time>2022-06-21T10:13:04Z</time>
      </trkpt>
      <trkpt lat="48.94006" lon="2.00172">
        <ele>10.8</ele>
        <time>2022-06-21T10:13:07Z</time>
      </trkpt>
      <trkpt lat="48.94001" lon="2.00174">
        <ele>13.4</ele>
        <time>2022-06-21T10:13:11Z</time>
      </trkpt>
      <trkpt lat="48.93997" lon="2.00177">
        <ele>15</ele>
        <time>2022-06-21T10:13:15Z</time>
      </trkpt>
      <trkpt lat="48.93994" lon="2.00171">
        <ele>18</ele>
        <time>2022-06-21T10:13:20Z</time>
      </trkpt>
      <trkpt lat="48.93992" lon="2.00164">
        <ele>18.1</ele>
        <time>2022-06-21T10:13:24Z</time>
      </trkpt>
      <trkpt lat="48.93988" lon="2.00159">
        <ele>18.1</ele>
        <time>2022-06-21T10:13:28Z</time>
      </trkpt>
      <trkpt lat="48.93984" lon="2.00154">
        <ele>15.6</ele>
        <time>2022-06-21T10:13:32Z</time>
      </trkpt>
      <trkpt lat="48.93979" lon="2.00151">
        <ele>14.8</ele>
        <time>2022-06-21T10:13:37Z</time>
      </trkpt>
      <trkpt lat="48.93974" lon="2.00149">
        <ele>14.2</ele>
        <time>2022-06-21T10:13:42Z</time>
      </trkpt>
      <trkpt lat="48.9397" lon="2.00147">
        <ele>11.8</ele>
        <time>2022-06-21T10:13:46Z</time>
      </trkpt>
      <trkpt lat="48.93965" lon="2.00143">
        <ele>11.5</ele>
        <time>2022-06-21T10:13:51Z</time>
      </trkpt>
      <trkpt lat="48.93963" lon="2.00136">
        <ele>10.9</ele>
        <time>2022-06-21T10:13:56Z</time>
      </trkpt>
      <trkpt lat="48.93965" lon="2.0013">
        <ele>12</ele>
        <time>2022-06-21T10:14:02Z</time>
      </trkpt>
      <trkpt lat="48.93963" lon="2.00123">
        <ele>11.9</ele>
        <time>2022-06-21T10:14:06Z</time>
      </trkpt>
      <trkpt lat="48.93962" lon="2.00116">
        <ele>12.3</ele>
        <time>2022-06-21T10:14:10Z</time>
      </trkpt>
      <trkpt lat="48.93961" lon="2.00108">
        <ele>13.1</ele>
        <time>2022-06-21T10:14:15Z</time>
      </trkpt>
      <trkpt lat="48.93963" lon="2.00101">
        <ele>14.4</ele>
        <time>2022-06-21T10:14:20Z</time>
      </trkpt>
      <trkpt lat="48.93964" lon="2.00094">
        <ele>15.2</ele>
        <time>2022-06-21T10:14:24Z</time>
      </trkpt>
      <trkpt lat="48.93964" lon="2.00087">
        <ele>16.2</ele>
        <time>2022-06-21T10:14:28Z</time>
      </trkpt>
      <trkpt lat="48.93962" lon="2.00079">
        <ele>18.1</ele>
        <time>2022-06-21T10:14:34Z</time>
      </trkpt>
      <trkpt lat="48.93962" lon="2.00071">
        <ele>24.8</ele>
        <time>2022-06-21T10:14:45Z</time>
      </trkpt>
      <trkpt lat="48.93965" lon="2.00065">
        <ele>23.9</ele>
        <time>2022-06-21T10:15:04Z</time>
      </trkpt>
      <trkpt lat="48.93967" lon="2.00071">
        <ele>23.8</ele>
        <time>2022-06-21T10:15:26Z</time>
      </trkpt>
      <trkpt lat="48.93967" lon="2.00078">
        <ele>21.8</ele>
        <time>2022-06-21T10:15:44Z</time>
      </trkpt>
      <trkpt lat="48.93967" lon="2.00087">
        <ele>18.9</ele>
        <time>2022-06-21T10:15:53Z</time>
      </trkpt>
      <trkpt lat="48.93967" lon="2.00094">
        <ele>17.8</ele>
        <time>2022-06-21T10:15:57Z</time>
      </trkpt>
      <trkpt lat="48.93969" lon="2.00088">
        <ele>14.4</ele>
        <time>2022-06-21T10:16:10Z</time>
      </trkpt>
      <trkpt lat="48.93971" lon="2.0008">
        <ele>14.1</ele>
        <time>2022-06-21T10:16:13Z</time>
      </trkpt>
      <trkpt lat="48.93971" lon="2.00071">
        <ele>14</ele>
        <time>2022-06-21T10:16:16Z</time>
      </trkpt>
      <trkpt lat="48.9397" lon="2.00063">
        <ele>14.2</ele>
        <time>2022-06-21T10:16:20Z</time>
      </trkpt>
      <trkpt lat="48.93969" lon="2.00055">
        <ele>14.6</ele>
        <time>2022-06-21T10:16:23Z</time>
      </trkpt>
      <trkpt lat="48.93967" lon="2.00049">
        <ele>15</ele>
        <time>2022-06-21T10:16:27Z</time>
      </trkpt>
      <trkpt lat="48.93965" lon="2.00041">
        <ele>14.8</ele>
        <time>2022-06-21T10:16:31Z</time>
      </trkpt>
      <trkpt lat="48.93965" lon="2.00034">
        <ele>15.1</ele>
        <time>2022-06-21T10:16:35Z</time>
      </trkpt>
      <trkpt lat="48.93965" lon="2.00028">
        <ele>16.2</ele>
        <time>2022-06-21T10:17:16Z</time>
      </trkpt>
      <trkpt lat="48.93965" lon="2.00021">
        <ele>17.3</ele>
        <time>2022-06-21T10:17:33Z</time>
      </trkpt>
      <trkpt lat="48.93963" lon="2.00012">
        <ele>17.6</ele>
        <time>2022-06-21T10:17:38Z</time>
      </trkpt>
      <trkpt lat="48.93963" lon="2.00005">
        <ele>17.6</ele>
        <time>2022-06-21T10:17:42Z</time>
      </trkpt>
      <trkpt lat="48.93963" lon="1.99997">
        <ele>15.3</ele>
        <time>2022-06-21T10:17:51Z</time>
      </trkpt>
      <trkpt lat="48.93963" lon="1.9999">
        <ele>14.1</ele>
        <time>2022-06-21T10:17:56Z</time>
      </trkpt>
      <trkpt lat="48.93963" lon="1.99983">
        <ele>14.9</ele>
        <time>2022-06-21T10:18:01Z</time>
      </trkpt>
      <trkpt lat="48.93963" lon="1.99974">
        <ele>16.8</ele>
        <time>2022-06-21T10:18:06Z</time>
      </trkpt>
      <trkpt lat="48.93964" lon="1.99967">
        <ele>15.5</ele>
        <time>2022-06-21T10:18:12Z</time>
      </trkpt>
      <trkpt lat="48.93969" lon="1.99966">
        <ele>15.6</ele>
        <time>2022-06-21T10:18:19Z</time>
      </trkpt>
      <trkpt lat="48.93974" lon="1.99966">
        <ele>16.1</ele>
        <time>2022-06-21T10:18:26Z</time>
      </trkpt>
      <trkpt lat="48.9398" lon="1.99967">
        <ele>17.8</ele>
        <time>2022-06-21T10:18:32Z</time>
      </trkpt>
      <trkpt lat="48.93985" lon="1.99964">
        <ele>17.4</ele>
        <time>2022-06-21T10:19:25Z</time>
      </trkpt>
      <trkpt lat="48.93989" lon="1.99964">
        <ele>21.5</ele>
        <time>2022-06-21T10:19:32Z</time>
      </trkpt>
      <trkpt lat="48.93995" lon="1.99962">
        <ele>23.9</ele>
        <time>2022-06-21T10:19:38Z</time>
      </trkpt>
      <trkpt lat="48.94" lon="1.99963">
        <ele>22.2</ele>
        <time>2022-06-21T10:19:42Z</time>
      </trkpt>
      <trkpt lat="48.94004" lon="1.99963">
        <ele>21.6</ele>
        <time>2022-06-21T10:19:46Z</time>
      </trkpt>
      <trkpt lat="48.94009" lon="1.99963">
        <ele>22.7</ele>
        <time>2022-06-21T10:19:51Z</time>
      </trkpt>
      <trkpt lat="48.94014" lon="1.99961">
        <ele>21.7</ele>
        <time>2022-06-21T10:19:56Z</time>
      </trkpt>
      <trkpt lat="48.94019" lon="1.9996">
        <ele>22.7</ele>
        <time>2022-06-21T10:20:01Z</time>
      </trkpt>
      <trkpt lat="48.94024" lon="1.99959">
        <ele>23.7</ele>
        <time>2022-06-21T10:20:06Z</time>
      </trkpt>
      <trkpt lat="48.94028" lon="1.99958">
        <ele>22.2</ele>
        <time>2022-06-21T10:20:10Z</time>
      </trkpt>
      <trkpt lat="48.94035" lon="1.99956">
        <ele>25.7</ele>
        <time>2022-06-21T10:20:16Z</time>
      </trkpt>
      <trkpt lat="48.94039" lon="1.99955">
        <ele>27.5</ele>
        <time>2022-06-21T10:20:20Z</time>
      </trkpt>
      <trkpt lat="48.94045" lon="1.99954">
        <ele>24.7</ele>
        <time>2022-06-21T10:20:26Z</time>
      </trkpt>
      <trkpt lat="48.9405" lon="1.99954">
        <ele>26.4</ele>
        <time>2022-06-21T10:20:33Z</time>
      </trkpt>
      <trkpt lat="48.94055" lon="1.99954">
        <ele>26.4</ele>
        <time>2022-06-21T10:20:39Z</time>
      </trkpt>
      <trkpt lat="48.9406" lon="1.99953">
        <ele>26.2</ele>
        <time>2022-06-21T10:20:44Z</time>
      </trkpt>
      <trkpt lat="48.94064" lon="1.99952">
        <ele>25.9</ele>
        <time>2022-06-21T10:20:48Z</time>
      </trkpt>
      <trkpt lat="48.94069" lon="1.99952">
        <ele>26.8</ele>
        <time>2022-06-21T10:20:54Z</time>
      </trkpt>
      <trkpt lat="48.94074" lon="1.99951">
        <ele>25.5</ele>
        <time>2022-06-21T10:21:01Z</time>
      </trkpt>
      <trkpt lat="48.94079" lon="1.9995">
        <ele>25.1</ele>
        <time>2022-06-21T10:21:06Z</time>
      </trkpt>
      <trkpt lat="48.94084" lon="1.99947">
        <ele>22.6</ele>
        <time>2022-06-21T10:21:11Z</time>
      </trkpt>
      <trkpt lat="48.9409" lon="1.99947">
        <ele>22.4</ele>
        <time>2022-06-21T10:21:16Z</time>
      </trkpt>
      <trkpt lat="48.94095" lon="1.99944">
        <ele>20.9</ele>
        <time>2022-06-21T10:21:21Z</time>
      </trkpt>
      <trkpt lat="48.94099" lon="1.9994">
        <ele>16.8</ele>
        <time>2022-06-21T10:21:26Z</time>
      </trkpt>
      <trkpt lat="48.94104" lon="1.9994">
        <ele>16.9</ele>
        <time>2022-06-21T10:21:32Z</time>
      </trkpt>
      <trkpt lat="48.9411" lon="1.9994">
        <ele>15.7</ele>
        <time>2022-06-21T10:21:36Z</time>
      </trkpt>
      <trkpt lat="48.94114" lon="1.9994">
        <ele>17.3</ele>
        <time>2022-06-21T10:21:41Z</time>
      </trkpt>
      <trkpt lat="48.9412" lon="1.9994">
        <ele>18.6</ele>
        <time>2022-06-21T10:21:47Z</time>
      </trkpt>
      <trkpt lat="48.94125" lon="1.99939">
        <ele>16</ele>
        <time>2022-06-21T10:21:51Z</time>
      </trkpt>
      <trkpt lat="48.9413" lon="1.99936">
        <ele>17</ele>
        <time>2022-06-21T10:21:56Z</time>
      </trkpt>
      <trkpt lat="48.94135" lon="1.99934">
        <ele>16.4</ele>
        <time>2022-06-21T10:22:01Z</time>
      </trkpt>
      <trkpt lat="48.9414" lon="1.99933">
        <ele>17.4</ele>
        <time>2022-06-21T10:22:05Z</time>
      </trkpt>
      <trkpt lat="48.94144" lon="1.99931">
        <ele>19</ele>
        <time>2022-06-21T10:22:10Z</time>
      </trkpt>
      <trkpt lat="48.94149" lon="1.99932">
        <ele>17.8</ele>
        <time>2022-06-21T10:22:14Z</time>
      </trkpt>
      <trkpt lat="48.94154" lon="1.99931">
        <ele>19.5</ele>
        <time>2022-06-21T10:22:19Z</time>
      </trkpt>
      <trkpt lat="48.94158" lon="1.99929">
        <ele>22.3</ele>
        <time>2022-06-21T10:22:25Z</time>
      </trkpt>
      <trkpt lat="48.94164" lon="1.9993">
        <ele>21.1</ele>
        <time>2022-06-21T10:22:29Z</time>
      </trkpt>
      <trkpt lat="48.94169" lon="1.99931">
        <ele>19.8</ele>
        <time>2022-06-21T10:22:34Z</time>
      </trkpt>
      <trkpt lat="48.94174" lon="1.9993">
        <ele>19.7</ele>
        <time>2022-06-21T10:22:38Z</time>
      </trkpt>
      <trkpt lat="48.94179" lon="1.99928">
        <ele>20.9</ele>
        <time>2022-06-21T10:22:43Z</time>
      </trkpt>
      <trkpt lat="48.94185" lon="1.99925">
        <ele>19.6</ele>
        <time>2022-06-21T10:22:49Z</time>
      </trkpt>
      <trkpt lat="48.9419" lon="1.99924">
        <ele>18.7</ele>
        <time>2022-06-21T10:22:54Z</time>
      </trkpt>
      <trkpt lat="48.94196" lon="1.99924">
        <ele>20.4</ele>
        <time>2022-06-21T10:22:59Z</time>
      </trkpt>
      <trkpt lat="48.942" lon="1.99925">
        <ele>23.4</ele>
        <time>2022-06-21T10:23:03Z</time>
      </trkpt>
      <trkpt lat="48.94206" lon="1.99927">
        <ele>22.9</ele>
        <time>2022-06-21T10:23:08Z</time>
      </trkpt>
      <trkpt lat="48.94211" lon="1.99928">
        <ele>22.4</ele>
        <time>2022-06-21T10:23:12Z</time>
      </trkpt>
      <trkpt lat="48.94216" lon="1.99924">
        <ele>22.6</ele>
        <time>2022-06-21T10:23:17Z</time>
      </trkpt>
      <trkpt lat="48.9422" lon="1.99922">
        <ele>21.1</ele>
        <time>2022-06-21T10:23:21Z</time>
      </trkpt>
      <trkpt lat="48.94225" lon="1.99922">
        <ele>20.8</ele>
        <time>2022-06-21T10:23:25Z</time>
      </trkpt>
      <trkpt lat="48.9423" lon="1.9992">
        <ele>22.6</ele>
        <time>2022-06-21T10:23:30Z</time>
      </trkpt>
      <trkpt lat="48.94235" lon="1.99919">
        <ele>22</ele>
        <time>2022-06-21T10:23:34Z</time>
      </trkpt>
      <trkpt lat="48.9424" lon="1.99919">
        <ele>22.2</ele>
        <time>2022-06-21T10:23:38Z</time>
      </trkpt>
      <trkpt lat="48.94245" lon="1.9992">
        <ele>24.8</ele>
        <time>2022-06-21T10:23:42Z</time>
      </trkpt>
      <trkpt lat="48.94249" lon="1.99919">
        <ele>22.6</ele>
        <time>2022-06-21T10:23:47Z</time>
      </trkpt>
      <trkpt lat="48.94255" lon="1.99916">
        <ele>24.8</ele>
        <time>2022-06-21T10:23:51Z</time>
      </trkpt>
      <trkpt lat="48.9426" lon="1.99914">
        <ele>24.6</ele>
        <time>2022-06-21T10:23:55Z</time>
      </trkpt>
      <trkpt lat="48.94265" lon="1.99913">
        <ele>22.2</ele>
        <time>2022-06-21T10:23:59Z</time>
      </trkpt>
      <trkpt lat="48.9427" lon="1.99912">
        <ele>20.3</ele>
        <time>2022-06-21T10:24:03Z</time>
      </trkpt>
      <trkpt lat="48.94275" lon="1.9991">
        <ele>19.6</ele>
        <time>2022-06-21T10:24:08Z</time>
      </trkpt>
      <trkpt lat="48.94281" lon="1.99909">
        <ele>21.1</ele>
        <time>2022-06-21T10:24:12Z</time>
      </trkpt>
      <trkpt lat="48.94286" lon="1.99909">
        <ele>19.2</ele>
        <time>2022-06-21T10:24:16Z</time>
      </trkpt>
      <trkpt lat="48.94291" lon="1.9991">
        <ele>21.8</ele>
        <time>2022-06-21T10:24:20Z</time>
      </trkpt>
      <trkpt lat="48.94295" lon="1.99909">
        <ele>21.8</ele>
        <time>2022-06-21T10:24:24Z</time>
      </trkpt>
      <trkpt lat="48.94301" lon="1.99908">
        <ele>23.4</ele>
        <time>2022-06-21T10:24:28Z</time>
      </trkpt>
      <trkpt lat="48.94306" lon="1.99907">
        <ele>23.1</ele>
        <time>2022-06-21T10:24:33Z</time>
      </trkpt>
      <trkpt lat="48.94311" lon="1.99905">
        <ele>24.2</ele>
        <time>2022-06-21T10:24:39Z</time>
      </trkpt>
      <trkpt lat="48.94316" lon="1.99904">
        <ele>24.3</ele>
        <time>2022-06-21T10:24:43Z</time>
      </trkpt>
      <trkpt lat="48.94321" lon="1.99903">
        <ele>25.6</ele>
        <time>2022-06-21T10:24:47Z</time>
      </trkpt>
      <trkpt lat="48.94326" lon="1.99902">
        <ele>23</ele>
        <time>2022-06-21T10:24:52Z</time>
      </trkpt>
      <trkpt lat="48.94332" lon="1.99902">
        <ele>21.5</ele>
        <time>2022-06-21T10:24:57Z</time>
      </trkpt>
      <trkpt lat="48.94337" lon="1.999">
        <ele>22.6</ele>
        <time>2022-06-21T10:25:02Z</time>
      </trkpt>
      <trkpt lat="48.94343" lon="1.99899">
        <ele>20.9</ele>
        <time>2022-06-21T10:25:07Z</time>
      </trkpt>
      <trkpt lat="48.94348" lon="1.99897">
        <ele>20.7</ele>
        <time>2022-06-21T10:25:11Z</time>
      </trkpt>
      <trkpt lat="48.94353" lon="1.99894">
        <ele>18.9</ele>
        <time>2022-06-21T10:25:16Z</time>
      </trkpt>
      <trkpt lat="48.94358" lon="1.99893">
        <ele>18.8</ele>
        <time>2022-06-21T10:25:21Z</time>
      </trkpt>
      <trkpt lat="48.94362" lon="1.99892">
        <ele>19.8</ele>
        <time>2022-06-21T10:25:25Z</time>
      </trkpt>
      <trkpt lat="48.94368" lon="1.99893">
        <ele>20.3</ele>
        <time>2022-06-21T10:25:29Z</time>
      </trkpt>
      <trkpt lat="48.94372" lon="1.99893">
        <ele>20.7</ele>
        <time>2022-06-21T10:25:33Z</time>
      </trkpt>
      <trkpt lat="48.94377" lon="1.99892">
        <ele>21.4</ele>
        <time>2022-06-21T10:25:38Z</time>
      </trkpt>
      <trkpt lat="48.94381" lon="1.99891">
        <ele>18.7</ele>
        <time>2022-06-21T10:25:42Z</time>
      </trkpt>
      <trkpt lat="48.94386" lon="1.9989">
        <ele>17.5</ele>
        <time>2022-06-21T10:25:46Z</time>
      </trkpt>
      <trkpt lat="48.94391" lon="1.99888">
        <ele>18.8</ele>
        <time>2022-06-21T10:25:50Z</time>
      </trkpt>
      <trkpt lat="48.94395" lon="1.99888">
        <ele>19.7</ele>
        <time>2022-06-21T10:25:55Z</time>
      </trkpt>
      <trkpt lat="48.94401" lon="1.99888">
        <ele>21.7</ele>
        <time>2022-06-21T10:26:05Z</time>
      </trkpt>
      <trkpt lat="48.94407" lon="1.99887">
        <ele>23.2</ele>
        <time>2022-06-21T10:26:11Z</time>
      </trkpt>
      <trkpt lat="48.94413" lon="1.99885">
        <ele>22.4</ele>
        <time>2022-06-21T10:26:18Z</time>
      </trkpt>
      <trkpt lat="48.94418" lon="1.99885">
        <ele>22.2</ele>
        <time>2022-06-21T10:26:22Z</time>
      </trkpt>
      <trkpt lat="48.94423" lon="1.99884">
        <ele>22.1</ele>
        <time>2022-06-21T10:26:26Z</time>
      </trkpt>
      <trkpt lat="48.94429" lon="1.99881">
        <ele>22.9</ele>
        <time>2022-06-21T10:26:31Z</time>
      </trkpt>
      <trkpt lat="48.94434" lon="1.99877">
        <ele>22.5</ele>
        <time>2022-06-21T10:26:36Z</time>
      </trkpt>
      <trkpt lat="48.9444" lon="1.99874">
        <ele>22.6</ele>
        <time>2022-06-21T10:26:41Z</time>
      </trkpt>
      <trkpt lat="48.94445" lon="1.99875">
        <ele>21.8</ele>
        <time>2022-06-21T10:26:46Z</time>
      </trkpt>
      <trkpt lat="48.94451" lon="1.99874">
        <ele>22.2</ele>
        <time>2022-06-21T10:26:51Z</time>
      </trkpt>
      <trkpt lat="48.94456" lon="1.99873">
        <ele>20</ele>
        <time>2022-06-21T10:26:56Z</time>
      </trkpt>
      <trkpt lat="48.94462" lon="1.99872">
        <ele>18.6</ele>
        <time>2022-06-21T10:27:01Z</time>
      </trkpt>
      <trkpt lat="48.94467" lon="1.99869">
        <ele>19.9</ele>
        <time>2022-06-21T10:27:05Z</time>
      </trkpt>
      <trkpt lat="48.94472" lon="1.99868">
        <ele>18.6</ele>
        <time>2022-06-21T10:27:10Z</time>
      </trkpt>
      <trkpt lat="48.94477" lon="1.99867">
        <ele>19.3</ele>
        <time>2022-06-21T10:27:14Z</time>
      </trkpt>
      <trkpt lat="48.94482" lon="1.99867">
        <ele>21.2</ele>
        <time>2022-06-21T10:27:18Z</time>
      </trkpt>
      <trkpt lat="48.94488" lon="1.99867">
        <ele>19.3</ele>
        <time>2022-06-21T10:27:23Z</time>
      </trkpt>
      <trkpt lat="48.94493" lon="1.99865">
        <ele>19.2</ele>
        <time>2022-06-21T10:27:27Z</time>
      </trkpt>
      <trkpt lat="48.94498" lon="1.99865">
        <ele>17.7</ele>
        <time>2022-06-21T10:27:32Z</time>
      </trkpt>
      <trkpt lat="48.94503" lon="1.99867">
        <ele>16.8</ele>
        <time>2022-06-21T10:27:36Z</time>
      </trkpt>
      <trkpt lat="48.94509" lon="1.99867">
        <ele>16.5</ele>
        <time>2022-06-21T10:27:41Z</time>
      </trkpt>
      <trkpt lat="48.94514" lon="1.99867">
        <ele>18.3</ele>
        <time>2022-06-21T10:27:45Z</time>
      </trkpt>
      <trkpt lat="48.94518" lon="1.99868">
        <ele>15.9</ele>
        <time>2022-06-21T10:27:49Z</time>
      </trkpt>
      <trkpt lat="48.94524" lon="1.99868">
        <ele>18</ele>
        <time>2022-06-21T10:27:53Z</time>
      </trkpt>
      <trkpt lat="48.94529" lon="1.99866">
        <ele>19.2</ele>
        <time>2022-06-21T10:27:58Z</time>
      </trkpt>
      <trkpt lat="48.94534" lon="1.99864">
        <ele>18.4</ele>
        <time>2022-06-21T10:28:02Z</time>
      </trkpt>
      <trkpt lat="48.94539" lon="1.99863">
        <ele>19.6</ele>
        <time>2022-06-21T10:28:06Z</time>
      </trkpt>
      <trkpt lat="48.94544" lon="1.99861">
        <ele>19.2</ele>
        <time>2022-06-21T10:28:10Z</time>
      </trkpt>
      <trkpt lat="48.94549" lon="1.99859">
        <ele>19.5</ele>
        <time>2022-06-21T10:28:14Z</time>
      </trkpt>
      <trkpt lat="48.94554" lon="1.99857">
        <ele>20.7</ele>
        <time>2022-06-21T10:28:18Z</time>
      </trkpt>
      <trkpt lat="48.9456" lon="1.99855">
        <ele>19.3</ele>
        <time>2022-06-21T10:28:23Z</time>
      </trkpt>
      <trkpt lat="48.94566" lon="1.99854">
        <ele>19.4</ele>
        <time>2022-06-21T10:28:28Z</time>
      </trkpt>
      <trkpt lat="48.94572" lon="1.99854">
        <ele>19.5</ele>
        <time>2022-06-21T10:28:32Z</time>
      </trkpt>
      <trkpt lat="48.94577" lon="1.99854">
        <ele>21.1</ele>
        <time>2022-06-21T10:28:36Z</time>
      </trkpt>
      <trkpt lat="48.94582" lon="1.99853">
        <ele>23</ele>
        <time>2022-06-21T10:28:40Z</time>
      </trkpt>
      <trkpt lat="48.94586" lon="1.9985">
        <ele>23.4</ele>
        <time>2022-06-21T10:28:44Z</time>
      </trkpt>
      <trkpt lat="48.94591" lon="1.99849">
        <ele>21.3</ele>
        <time>2022-06-21T10:28:48Z</time>
      </trkpt>
      <trkpt lat="48.94596" lon="1.99848">
        <ele>22.8</ele>
        <time>2022-06-21T10:28:52Z</time>
      </trkpt>
      <trkpt lat="48.946" lon="1.99849">
        <ele>20.9</ele>
        <time>2022-06-21T10:28:55Z</time>
      </trkpt>
      <trkpt lat="48.94605" lon="1.99849">
        <ele>19.9</ele>
        <time>2022-06-21T10:28:58Z</time>
      </trkpt>
      <trkpt lat="48.9461" lon="1.99848">
        <ele>21.3</ele>
        <time>2022-06-21T10:29:02Z</time>
      </trkpt>
      <trkpt lat="48.94616" lon="1.99849">
        <ele>20.5</ele>
        <time>2022-06-21T10:29:07Z</time>
      </trkpt>
      <trkpt lat="48.94621" lon="1.99848">
        <ele>20</ele>
        <time>2022-06-21T10:29:11Z</time>
      </trkpt>
      <trkpt lat="48.94626" lon="1.99847">
        <ele>18.1</ele>
        <time>2022-06-21T10:29:15Z</time>
      </trkpt>
      <trkpt lat="48.94631" lon="1.99845">
        <ele>18.5</ele>
        <time>2022-06-21T10:29:19Z</time>
      </trkpt>
      <trkpt lat="48.94636" lon="1.99844">
        <ele>23.1</ele>
        <time>2022-06-21T10:29:23Z</time>
      </trkpt>
      <trkpt lat="48.94641" lon="1.99843">
        <ele>24.1</ele>
        <time>2022-06-21T10:29:27Z</time>
      </trkpt>
      <trkpt lat="48.94647" lon="1.99842">
        <ele>25.5</ele>
        <time>2022-06-21T10:29:31Z</time>
      </trkpt>
      <trkpt lat="48.94652" lon="1.99841">
        <ele>26.8</ele>
        <time>2022-06-21T10:29:34Z</time>
      </trkpt>
      <trkpt lat="48.94657" lon="1.9984">
        <ele>25.7</ele>
        <time>2022-06-21T10:29:38Z</time>
      </trkpt>
      <trkpt lat="48.94662" lon="1.99837">
        <ele>26.9</ele>
        <time>2022-06-21T10:29:43Z</time>
      </trkpt>
      <trkpt lat="48.94669" lon="1.99835">
        <ele>23</ele>
        <time>2022-06-21T10:29:48Z</time>
      </trkpt>
      <trkpt lat="48.94674" lon="1.99838">
        <ele>24.2</ele>
        <time>2022-06-21T10:29:53Z</time>
      </trkpt>
      <trkpt lat="48.94678" lon="1.99836">
        <ele>25</ele>
        <time>2022-06-21T10:30:06Z</time>
      </trkpt>
      <trkpt lat="48.94683" lon="1.99835">
        <ele>23.9</ele>
        <time>2022-06-21T10:30:10Z</time>
      </trkpt>
      <trkpt lat="48.94689" lon="1.99833">
        <ele>23.6</ele>
        <time>2022-06-21T10:30:14Z</time>
      </trkpt>
      <trkpt lat="48.94694" lon="1.99831">
        <ele>23.3</ele>
        <time>2022-06-21T10:30:17Z</time>
      </trkpt>
      <trkpt lat="48.947" lon="1.9983">
        <ele>27</ele>
        <time>2022-06-21T10:30:22Z</time>
      </trkpt>
      <trkpt lat="48.94705" lon="1.99828">
        <ele>27.5</ele>
        <time>2022-06-21T10:30:26Z</time>
      </trkpt>
      <trkpt lat="48.9471" lon="1.99828">
        <ele>25.6</ele>
        <time>2022-06-21T10:30:31Z</time>
      </trkpt>
      <trkpt lat="48.94715" lon="1.99827">
        <ele>25.1</ele>
        <time>2022-06-21T10:30:35Z</time>
      </trkpt>
      <trkpt lat="48.94721" lon="1.99825">
        <ele>23.6</ele>
        <time>2022-06-21T10:30:39Z</time>
      </trkpt>
      <trkpt lat="48.94724" lon="1.99832">
        <ele>23.2</ele>
        <time>2022-06-21T10:30:44Z</time>
      </trkpt>
      <trkpt lat="48.94723" lon="1.9984">
        <ele>21.2</ele>
        <time>2022-06-21T10:30:49Z</time>
      </trkpt>
      <trkpt lat="48.94723" lon="1.99848">
        <ele>19.6</ele>
        <time>2022-06-21T10:30:54Z</time>
      </trkpt>
      <trkpt lat="48.94723" lon="1.99856">
        <ele>20.2</ele>
        <time>2022-06-21T10:30:58Z</time>
      </trkpt>
      <trkpt lat="48.94724" lon="1.99863">
        <ele>20.3</ele>
        <time>2022-06-21T10:31:02Z</time>
      </trkpt>
      <trkpt lat="48.94726" lon="1.9987">
        <ele>19.8</ele>
        <time>2022-06-21T10:31:07Z</time>
      </trkpt>
      <trkpt lat="48.94731" lon="1.99873">
        <ele>18.7</ele>
        <time>2022-06-21T10:31:11Z</time>
      </trkpt>
      <trkpt lat="48.94734" lon="1.99865">
        <ele>19.6</ele>
        <time>2022-06-21T10:31:16Z</time>
      </trkpt>
      <trkpt lat="48.94737" lon="1.9986">
        <ele>21.6</ele>
        <time>2022-06-21T10:31:24Z</time>
      </trkpt>
      <trkpt lat="48.94743" lon="1.99859">
        <ele>21.9</ele>
        <time>2022-06-21T10:31:27Z</time>
      </trkpt>
      <trkpt lat="48.94748" lon="1.9986">
        <ele>22.3</ele>
        <time>2022-06-21T10:31:31Z</time>
      </trkpt>
      <trkpt lat="48.94752" lon="1.99866">
        <ele>24.1</ele>
        <time>2022-06-21T10:31:55Z</time>
      </trkpt>
      <trkpt lat="48.94757" lon="1.99868">
        <ele>23.4</ele>
        <time>2022-06-21T10:32:00Z</time>
      </trkpt>
      <trkpt lat="48.94761" lon="1.99865">
        <ele>24</ele>
        <time>2022-06-21T10:32:04Z</time>
      </trkpt>
      <trkpt lat="48.94766" lon="1.99863">
        <ele>23.9</ele>
        <time>2022-06-21T10:32:09Z</time>
      </trkpt>
      <trkpt lat="48.94771" lon="1.9986">
        <ele>23</ele>
        <time>2022-06-21T10:32:15Z</time>
      </trkpt>
      <trkpt lat="48.94776" lon="1.99856">
        <ele>23.1</ele>
        <time>2022-06-21T10:32:21Z</time>
      </trkpt>
      <trkpt lat="48.94773" lon="1.99862">
        <ele>15.3</ele>
        <time>2022-06-21T10:32:34Z</time>
      </trkpt>
      <trkpt lat="48.94777" lon="1.99859">
        <ele>17.3</ele>
        <time>2022-06-21T10:32:46Z</time>
      </trkpt>
      <trkpt lat="48.94782" lon="1.99857">
        <ele>19.5</ele>
        <time>2022-06-21T10:32:51Z</time>
      </trkpt>
      <trkpt lat="48.94787" lon="1.99854">
        <ele>20.6</ele>
        <time>2022-06-21T10:32:57Z</time>
      </trkpt>
      <trkpt lat="48.94792" lon="1.99851">
        <ele>20.4</ele>
        <time>2022-06-21T10:33:02Z</time>
      </trkpt>
      <trkpt lat="48.94797" lon="1.99847">
        <ele>18.6</ele>
        <time>2022-06-21T10:33:09Z</time>
      </trkpt>
      <trkpt lat="48.94802" lon="1.99845">
        <ele>19.2</ele>
        <time>2022-06-21T10:33:13Z</time>
      </trkpt>
      <trkpt lat="48.94806" lon="1.99842">
        <ele>18.2</ele>
        <time>2022-06-21T10:33:17Z</time>
      </trkpt>
      <trkpt lat="48.94811" lon="1.99841">
        <ele>19.9</ele>
        <time>2022-06-21T10:33:22Z</time>
      </trkpt>
      <trkpt lat="48.94816" lon="1.99839">
        <ele>19.4</ele>
        <time>2022-06-21T10:33:27Z</time>
      </trkpt>
      <trkpt lat="48.94821" lon="1.99837">
        <ele>18.5</ele>
        <time>2022-06-21T10:33:32Z</time>
      </trkpt>
      <trkpt lat="48.94826" lon="1.99834">
        <ele>19.4</ele>
        <time>2022-06-21T10:33:38Z</time>
      </trkpt>
      <trkpt lat="48.94831" lon="1.99832">
        <ele>22.5</ele>
        <time>2022-06-21T10:33:44Z</time>
      </trkpt>
      <trkpt lat="48.94836" lon="1.9983">
        <ele>23.7</ele>
        <time>2022-06-21T10:33:49Z</time>
      </trkpt>
      <trkpt lat="48.94841" lon="1.99828">
        <ele>20.6</ele>
        <time>2022-06-21T10:33:54Z</time>
      </trkpt>
      <trkpt lat="48.94846" lon="1.99826">
        <ele>22.4</ele>
        <time>2022-06-21T10:33:59Z</time>
      </trkpt>
      <trkpt lat="48.94851" lon="1.99823">
        <ele>21</ele>
        <time>2022-06-21T10:34:04Z</time>
      </trkpt>
      <trkpt lat="48.94856" lon="1.99822">
        <ele>19</ele>
        <time>2022-06-21T10:34:09Z</time>
      </trkpt>
      <trkpt lat="48.94861" lon="1.9982">
        <ele>20.1</ele>
        <time>2022-06-21T10:34:14Z</time>
      </trkpt>
      <trkpt lat="48.94867" lon="1.99817">
        <ele>18.5</ele>
        <time>2022-06-21T10:34:20Z</time>
      </trkpt>
      <trkpt lat="48.94872" lon="1.99816">
        <ele>17.7</ele>
        <time>2022-06-21T10:34:24Z</time>
      </trkpt>
      <trkpt lat="48.94876" lon="1.99815">
        <ele>16.9</ele>
        <time>2022-06-21T10:34:28Z</time>
      </trkpt>
      <trkpt lat="48.94881" lon="1.99813">
        <ele>15.7</ele>
        <time>2022-06-21T10:34:33Z</time>
      </trkpt>
      <trkpt lat="48.94886" lon="1.99812">
        <ele>14.6</ele>
        <time>2022-06-21T10:34:38Z</time>
      </trkpt>
      <trkpt lat="48.9489" lon="1.99811">
        <ele>13.2</ele>
        <time>2022-06-21T10:34:43Z</time>
      </trkpt>
      <trkpt lat="48.94895" lon="1.99813">
        <ele>15</ele>
        <time>2022-06-21T10:35:08Z</time>
      </trkpt>
      <trkpt lat="48.94899" lon="1.99813">
        <ele>17.3</ele>
        <time>2022-06-21T10:35:17Z</time>
      </trkpt>
      <trkpt lat="48.94904" lon="1.99813">
        <ele>16.3</ele>
        <time>2022-06-21T10:35:20Z</time>
      </trkpt>
      <trkpt lat="48.94909" lon="1.99812">
        <ele>17.2</ele>
        <time>2022-06-21T10:35:23Z</time>
      </trkpt>
      <trkpt lat="48.94915" lon="1.99811">
        <ele>17</ele>
        <time>2022-06-21T10:35:27Z</time>
      </trkpt>
      <trkpt lat="48.94919" lon="1.99811">
        <ele>16</ele>
        <time>2022-06-21T10:35:31Z</time>
      </trkpt>
      <trkpt lat="48.94924" lon="1.99809">
        <ele>15.7</ele>
        <time>2022-06-21T10:35:35Z</time>
      </trkpt>
      <trkpt lat="48.9493" lon="1.99807">
        <ele>15.1</ele>
        <time>2022-06-21T10:35:39Z</time>
      </trkpt>
      <trkpt lat="48.94935" lon="1.99806">
        <ele>16.2</ele>
        <time>2022-06-21T10:35:44Z</time>
      </trkpt>
      <trkpt lat="48.94941" lon="1.99806">
        <ele>17.1</ele>
        <time>2022-06-21T10:35:48Z</time>
      </trkpt>
      <trkpt lat="48.94946" lon="1.99806">
        <ele>16.4</ele>
        <time>2022-06-21T10:35:52Z</time>
      </trkpt>
      <trkpt lat="48.94951" lon="1.99805">
        <ele>16.4</ele>
        <time>2022-06-21T10:35:56Z</time>
      </trkpt>
      <trkpt lat="48.94957" lon="1.99804">
        <ele>16.6</ele>
        <time>2022-06-21T10:36:01Z</time>
      </trkpt>
      <trkpt lat="48.94962" lon="1.99803">
        <ele>16.8</ele>
        <time>2022-06-21T10:36:05Z</time>
      </trkpt>
      <trkpt lat="48.94967" lon="1.99803">
        <ele>19.8</ele>
        <time>2022-06-21T10:36:11Z</time>
      </trkpt>
      <trkpt lat="48.94973" lon="1.99803">
        <ele>22.1</ele>
        <time>2022-06-21T10:36:18Z</time>
      </trkpt>
      <trkpt lat="48.94978" lon="1.99804">
        <ele>20.9</ele>
        <time>2022-06-21T10:36:22Z</time>
      </trkpt>
      <trkpt lat="48.94982" lon="1.99805">
        <ele>20.6</ele>
        <time>2022-06-21T10:36:26Z</time>
      </trkpt>
      <trkpt lat="48.94987" lon="1.99806">
        <ele>20.7</ele>
        <time>2022-06-21T10:36:30Z</time>
      </trkpt>
      <trkpt lat="48.94992" lon="1.99806">
        <ele>20.5</ele>
        <time>2022-06-21T10:36:34Z</time>
      </trkpt>
      <trkpt lat="48.94997" lon="1.99805">
        <ele>18.7</ele>
        <time>2022-06-21T10:36:38Z</time>
      </trkpt>
      <trkpt lat="48.95002" lon="1.99803">
        <ele>17.4</ele>
        <time>2022-06-21T10:36:43Z</time>
      </trkpt>
      <trkpt lat="48.95007" lon="1.99802">
        <ele>17.1</ele>
        <time>2022-06-21T10:36:48Z</time>
      </trkpt>
      <trkpt lat="48.95012" lon="1.99802">
        <ele>17.2</ele>
        <time>2022-06-21T10:36:52Z</time>
      </trkpt>
      <trkpt lat="48.95017" lon="1.99803">
        <ele>18.9</ele>
        <time>2022-06-21T10:36:56Z</time>
      </trkpt>
      <trkpt lat="48.95023" lon="1.99804">
        <ele>19.4</ele>
        <time>2022-06-21T10:37:01Z</time>
      </trkpt>
      <trkpt lat="48.95028" lon="1.99806">
        <ele>19.3</ele>
        <time>2022-06-21T10:37:05Z</time>
      </trkpt>
      <trkpt lat="48.95033" lon="1.99806">
        <ele>19.1</ele>
        <time>2022-06-21T10:37:09Z</time>
      </trkpt>
      <trkpt lat="48.95038" lon="1.99807">
        <ele>19.3</ele>
        <time>2022-06-21T10:37:14Z</time>
      </trkpt>
      <trkpt lat="48.95044" lon="1.99806">
        <ele>18.6</ele>
        <time>2022-06-21T10:37:19Z</time>
      </trkpt>
      <trkpt lat="48.95049" lon="1.99807">
        <ele>19.2</ele>
        <time>2022-06-21T10:37:24Z</time>
      </trkpt>
      <trkpt lat="48.95055" lon="1.99809">
        <ele>20.2</ele>
        <time>2022-06-21T10:37:29Z</time>
      </trkpt>
      <trkpt lat="48.9506" lon="1.9981">
        <ele>20</ele>
        <time>2022-06-21T10:37:34Z</time>
      </trkpt>
      <trkpt lat="48.95065" lon="1.99811">
        <ele>18.6</ele>
        <time>2022-06-21T10:37:39Z</time>
      </trkpt>
      <trkpt lat="48.9507" lon="1.99811">
        <ele>17.9</ele>
        <time>2022-06-21T10:37:43Z</time>
      </trkpt>
      <trkpt lat="48.95075" lon="1.99811">
        <ele>15.4</ele>
        <time>2022-06-21T10:37:49Z</time>
      </trkpt>
      <trkpt lat="48.95081" lon="1.99811">
        <ele>13.8</ele>
        <time>2022-06-21T10:37:55Z</time>
      </trkpt>
      <trkpt lat="48.95076" lon="1.99808">
        <ele>13</ele>
        <time>2022-06-21T10:38:07Z</time>
      </trkpt>
      <trkpt lat="48.95072" lon="1.99806">
        <ele>16.5</ele>
        <time>2022-06-21T10:38:16Z</time>
      </trkpt>
      <trkpt lat="48.95066" lon="1.99804">
        <ele>17.8</ele>
        <time>2022-06-21T10:38:20Z</time>
      </trkpt>
      <trkpt lat="48.95061" lon="1.99802">
        <ele>17.7</ele>
        <time>2022-06-21T10:38:23Z</time>
      </trkpt>
      <trkpt lat="48.95056" lon="1.99801">
        <ele>17.8</ele>
        <time>2022-06-21T10:38:26Z</time>
      </trkpt>
      <trkpt lat="48.95051" lon="1.998">
        <ele>16.4</ele>
        <time>2022-06-21T10:38:29Z</time>
      </trkpt>
      <trkpt lat="48.95046" lon="1.99799">
        <ele>15.5</ele>
        <time>2022-06-21T10:38:33Z</time>
      </trkpt>
      <trkpt lat="48.95041" lon="1.99799">
        <ele>15</ele>
        <time>2022-06-21T10:38:37Z</time>
      </trkpt>
      <trkpt lat="48.95035" lon="1.99799">
        <ele>16.8</ele>
        <time>2022-06-21T10:38:42Z</time>
      </trkpt>
      <trkpt lat="48.95031" lon="1.998">
        <ele>19</ele>
        <time>2022-06-21T10:38:46Z</time>
      </trkpt>
      <trkpt lat="48.95027" lon="1.99803">
        <ele>18.6</ele>
        <time>2022-06-21T10:38:50Z</time>
      </trkpt>
      <trkpt lat="48.95022" lon="1.99804">
        <ele>18.1</ele>
        <time>2022-06-21T10:38:54Z</time>
      </trkpt>
      <trkpt lat="48.95017" lon="1.99804">
        <ele>18</ele>
        <time>2022-06-21T10:38:58Z</time>
      </trkpt>
      <trkpt lat="48.95012" lon="1.99803">
        <ele>17.4</ele>
        <time>2022-06-21T10:39:03Z</time>
      </trkpt>
      <trkpt lat="48.95007" lon="1.99801">
        <ele>18.3</ele>
        <time>2022-06-21T10:39:08Z</time>
      </trkpt>
      <trkpt lat="48.95002" lon="1.998">
        <ele>17</ele>
        <time>2022-06-21T10:39:12Z</time>
      </trkpt>
      <trkpt lat="48.94998" lon="1.998">
        <ele>17.5</ele>
        <time>2022-06-21T10:39:16Z</time>
      </trkpt>
      <trkpt lat="48.94992" lon="1.998">
        <ele>19.5</ele>
        <time>2022-06-21T10:39:21Z</time>
      </trkpt>
      <trkpt lat="48.94986" lon="1.998">
        <ele>20.1</ele>
        <time>2022-06-21T10:39:26Z</time>
      </trkpt>
      <trkpt lat="48.94982" lon="1.99801">
        <ele>19.8</ele>
        <time>2022-06-21T10:39:29Z</time>
      </trkpt>
      <trkpt lat="48.94977" lon="1.99802">
        <ele>19.1</ele>
        <time>2022-06-21T10:39:33Z</time>
      </trkpt>
      <trkpt lat="48.94971" lon="1.99803">
        <ele>18.2</ele>
        <time>2022-06-21T10:39:37Z</time>
      </trkpt>
      <trkpt lat="48.94966" lon="1.99804">
        <ele>16.9</ele>
        <time>2022-06-21T10:39:41Z</time>
      </trkpt>
      <trkpt lat="48.94961" lon="1.99804">
        <ele>18.8</ele>
        <time>2022-06-21T10:39:45Z</time>
      </trkpt>
      <trkpt lat="48.94956" lon="1.99805">
        <ele>18</ele>
        <time>2022-06-21T10:39:49Z</time>
      </trkpt>
      <trkpt lat="48.94951" lon="1.99806">
        <ele>18</ele>
        <time>2022-06-21T10:39:53Z</time>
      </trkpt>
      <trkpt lat="48.94945" lon="1.99806">
        <ele>19.5</ele>
        <time>2022-06-21T10:39:58Z</time>
      </trkpt>
      <trkpt lat="48.9494" lon="1.99806">
        <ele>19.2</ele>
        <time>2022-06-21T10:40:02Z</time>
      </trkpt>
      <trkpt lat="48.94935" lon="1.99805">
        <ele>18.6</ele>
        <time>2022-06-21T10:40:06Z</time>
      </trkpt>
      <trkpt lat="48.9493" lon="1.99806">
        <ele>17.8</ele>
        <time>2022-06-21T10:40:10Z</time>
      </trkpt>
      <trkpt lat="48.94925" lon="1.99807">
        <ele>17.6</ele>
        <time>2022-06-21T10:40:14Z</time>
      </trkpt>
      <trkpt lat="48.9492" lon="1.99809">
        <ele>18.2</ele>
        <time>2022-06-21T10:40:19Z</time>
      </trkpt>
      <trkpt lat="48.94913" lon="1.9981">
        <ele>17.3</ele>
        <time>2022-06-21T10:40:25Z</time>
      </trkpt>
      <trkpt lat="48.94908" lon="1.99811">
        <ele>17.9</ele>
        <time>2022-06-21T10:40:30Z</time>
      </trkpt>
      <trkpt lat="48.94902" lon="1.99813">
        <ele>17</ele>
        <time>2022-06-21T10:40:35Z</time>
      </trkpt>
      <trkpt lat="48.94897" lon="1.99816">
        <ele>15.9</ele>
        <time>2022-06-21T10:40:40Z</time>
      </trkpt>
      <trkpt lat="48.94893" lon="1.99817">
        <ele>16.2</ele>
        <time>2022-06-21T10:40:44Z</time>
      </trkpt>
      <trkpt lat="48.94888" lon="1.99817">
        <ele>15.4</ele>
        <time>2022-06-21T10:40:49Z</time>
      </trkpt>
      <trkpt lat="48.94883" lon="1.99816">
        <ele>15</ele>
        <time>2022-06-21T10:40:54Z</time>
      </trkpt>
      <trkpt lat="48.94877" lon="1.99817">
        <ele>15</ele>
        <time>2022-06-21T10:40:59Z</time>
      </trkpt>
      <trkpt lat="48.94872" lon="1.99818">
        <ele>17.2</ele>
        <time>2022-06-21T10:41:03Z</time>
      </trkpt>
      <trkpt lat="48.94868" lon="1.99818">
        <ele>16</ele>
        <time>2022-06-21T10:41:08Z</time>
      </trkpt>
      <trkpt lat="48.94862" lon="1.99819">
        <ele>15.6</ele>
        <time>2022-06-21T10:41:13Z</time>
      </trkpt>
      <trkpt lat="48.94858" lon="1.99821">
        <ele>16.5</ele>
        <time>2022-06-21T10:41:17Z</time>
      </trkpt>
      <trkpt lat="48.94853" lon="1.99822">
        <ele>17.4</ele>
        <time>2022-06-21T10:41:22Z</time>
      </trkpt>
      <trkpt lat="48.94847" lon="1.99825">
        <ele>19.2</ele>
        <time>2022-06-21T10:41:27Z</time>
      </trkpt>
      <trkpt lat="48.94843" lon="1.99828">
        <ele>19.6</ele>
        <time>2022-06-21T10:41:31Z</time>
      </trkpt>
      <trkpt lat="48.94838" lon="1.99832">
        <ele>19.9</ele>
        <time>2022-06-21T10:41:36Z</time>
      </trkpt>
      <trkpt lat="48.94832" lon="1.99834">
        <ele>19.8</ele>
        <time>2022-06-21T10:41:41Z</time>
      </trkpt>
      <trkpt lat="48.94827" lon="1.99835">
        <ele>20.5</ele>
        <time>2022-06-21T10:41:45Z</time>
      </trkpt>
      <trkpt lat="48.94822" lon="1.99837">
        <ele>20.3</ele>
        <time>2022-06-21T10:41:49Z</time>
      </trkpt>
      <trkpt lat="48.94817" lon="1.99839">
        <ele>23.3</ele>
        <time>2022-06-21T10:41:53Z</time>
      </trkpt>
      <trkpt lat="48.94812" lon="1.99842">
        <ele>23.1</ele>
        <time>2022-06-21T10:41:58Z</time>
      </trkpt>
      <trkpt lat="48.94807" lon="1.99845">
        <ele>22.7</ele>
        <time>2022-06-21T10:42:02Z</time>
      </trkpt>
      <trkpt lat="48.94802" lon="1.99848">
        <ele>21.4</ele>
        <time>2022-06-21T10:42:07Z</time>
      </trkpt>
      <trkpt lat="48.94797" lon="1.99849">
        <ele>19</ele>
        <time>2022-06-21T10:42:11Z</time>
      </trkpt>
      <trkpt lat="48.94792" lon="1.9985">
        <ele>19.5</ele>
        <time>2022-06-21T10:42:16Z</time>
      </trkpt>
      <trkpt lat="48.94787" lon="1.99848">
        <ele>18.8</ele>
        <time>2022-06-21T10:42:21Z</time>
      </trkpt>
      <trkpt lat="48.94784" lon="1.99841">
        <ele>18.1</ele>
        <time>2022-06-21T10:42:25Z</time>
      </trkpt>
      <trkpt lat="48.94783" lon="1.99833">
        <ele>17.2</ele>
        <time>2022-06-21T10:42:29Z</time>
      </trkpt>
      <trkpt lat="48.94783" lon="1.99826">
        <ele>15.4</ele>
        <time>2022-06-21T10:42:33Z</time>
      </trkpt>
      <trkpt lat="48.94782" lon="1.99818">
        <ele>16</ele>
        <time>2022-06-21T10:42:38Z</time>
      </trkpt>
      <trkpt lat="48.94778" lon="1.99812">
        <ele>16.7</ele>
        <time>2022-06-21T10:42:42Z</time>
      </trkpt>
      <trkpt lat="48.94772" lon="1.99812">
        <ele>17</ele>
        <time>2022-06-21T10:42:46Z</time>
      </trkpt>
      <trkpt lat="48.94767" lon="1.99812">
        <ele>16.6</ele>
        <time>2022-06-21T10:42:50Z</time>
      </trkpt>
      <trkpt lat="48.94761" lon="1.99812">
        <ele>16.6</ele>
        <time>2022-06-21T10:42:54Z</time>
      </trkpt>
      <trkpt lat="48.94756" lon="1.99813">
        <ele>16.6</ele>
        <time>2022-06-21T10:42:58Z</time>
      </trkpt>
      <trkpt lat="48.94751" lon="1.99814">
        <ele>16</ele>
        <time>2022-06-21T10:43:03Z</time>
      </trkpt>
      <trkpt lat="48.94746" lon="1.99816">
        <ele>15.1</ele>
        <time>2022-06-21T10:43:08Z</time>
      </trkpt>
      <trkpt lat="48.94741" lon="1.99819">
        <ele>16.8</ele>
        <time>2022-06-21T10:43:12Z</time>
      </trkpt>
      <trkpt lat="48.94736" lon="1.99821">
        <ele>17.5</ele>
        <time>2022-06-21T10:43:17Z</time>
      </trkpt>
      <trkpt lat="48.9473" lon="1.99822">
        <ele>20.1</ele>
        <time>2022-06-21T10:43:23Z</time>
      </trkpt>
      <trkpt lat="48.94724" lon="1.99823">
        <ele>18.7</ele>
        <time>2022-06-21T10:43:28Z</time>
      </trkpt>
      <trkpt lat="48.94719" lon="1.99823">
        <ele>21.3</ele>
        <time>2022-06-21T10:43:33Z</time>
      </trkpt>
      <trkpt lat="48.94715" lon="1.99823">
        <ele>21.8</ele>
        <time>2022-06-21T10:43:36Z</time>
      </trkpt>
      <trkpt lat="48.9471" lon="1.99824">
        <ele>20.8</ele>
        <time>2022-06-21T10:43:40Z</time>
      </trkpt>
      <trkpt lat="48.94706" lon="1.99825">
        <ele>20.8</ele>
        <time>2022-06-21T10:43:43Z</time>
      </trkpt>
      <trkpt lat="48.94701" lon="1.99827">
        <ele>19.9</ele>
        <time>2022-06-21T10:43:47Z</time>
      </trkpt>
      <trkpt lat="48.94695" lon="1.99828">
        <ele>18.8</ele>
        <time>2022-06-21T10:43:51Z</time>
      </trkpt>
      <trkpt lat="48.94689" lon="1.99829">
        <ele>19.3</ele>
        <time>2022-06-21T10:43:56Z</time>
      </trkpt>
      <trkpt lat="48.94684" lon="1.99829">
        <ele>19.6</ele>
        <time>2022-06-21T10:44:00Z</time>
      </trkpt>
      <trkpt lat="48.94679" lon="1.99831">
        <ele>18.7</ele>
        <time>2022-06-21T10:44:05Z</time>
      </trkpt>
      <trkpt lat="48.94674" lon="1.99832">
        <ele>19.8</ele>
        <time>2022-06-21T10:44:10Z</time>
      </trkpt>
      <trkpt lat="48.94669" lon="1.99832">
        <ele>18.4</ele>
        <time>2022-06-21T10:44:14Z</time>
      </trkpt>
      <trkpt lat="48.94664" lon="1.99832">
        <ele>17.5</ele>
        <time>2022-06-21T10:44:18Z</time>
      </trkpt>
      <trkpt lat="48.94659" lon="1.99834">
        <ele>19</ele>
        <time>2022-06-21T10:44:22Z</time>
      </trkpt>
      <trkpt lat="48.94653" lon="1.99835">
        <ele>18.9</ele>
        <time>2022-06-21T10:44:27Z</time>
      </trkpt>
      <trkpt lat="48.94648" lon="1.99835">
        <ele>17.1</ele>
        <time>2022-06-21T10:44:31Z</time>
      </trkpt>
      <trkpt lat="48.94643" lon="1.99837">
        <ele>18.2</ele>
        <time>2022-06-21T10:44:35Z</time>
      </trkpt>
      <trkpt lat="48.94639" lon="1.99838">
        <ele>17.8</ele>
        <time>2022-06-21T10:44:38Z</time>
      </trkpt>
      <trkpt lat="48.94634" lon="1.99838">
        <ele>17.8</ele>
        <time>2022-06-21T10:44:42Z</time>
      </trkpt>
      <trkpt lat="48.94629" lon="1.99839">
        <ele>18.7</ele>
        <time>2022-06-21T10:44:46Z</time>
      </trkpt>
      <trkpt lat="48.94624" lon="1.9984">
        <ele>18.2</ele>
        <time>2022-06-21T10:44:51Z</time>
      </trkpt>
      <trkpt lat="48.94619" lon="1.99841">
        <ele>17</ele>
        <time>2022-06-21T10:44:55Z</time>
      </trkpt>
      <trkpt lat="48.94614" lon="1.99842">
        <ele>16.4</ele>
        <time>2022-06-21T10:44:59Z</time>
      </trkpt>
      <trkpt lat="48.94609" lon="1.99845">
        <ele>16.9</ele>
        <time>2022-06-21T10:45:03Z</time>
      </trkpt>
      <trkpt lat="48.94604" lon="1.99848">
        <ele>16.1</ele>
        <time>2022-06-21T10:45:08Z</time>
      </trkpt>
      <trkpt lat="48.94599" lon="1.99849">
        <ele>16.2</ele>
        <time>2022-06-21T10:45:12Z</time>
      </trkpt>
      <trkpt lat="48.94594" lon="1.99849">
        <ele>14.5</ele>
        <time>2022-06-21T10:45:17Z</time>
      </trkpt>
      <trkpt lat="48.94588" lon="1.99849">
        <ele>15.6</ele>
        <time>2022-06-21T10:45:22Z</time>
      </trkpt>
      <trkpt lat="48.94582" lon="1.99849">
        <ele>17</ele>
        <time>2022-06-21T10:45:27Z</time>
      </trkpt>
      <trkpt lat="48.94579" lon="1.99843">
        <ele>15.6</ele>
        <time>2022-06-21T10:45:32Z</time>
      </trkpt>
      <trkpt lat="48.94578" lon="1.99835">
        <ele>15.5</ele>
        <time>2022-06-21T10:45:36Z</time>
      </trkpt>
      <trkpt lat="48.94578" lon="1.99828">
        <ele>15.3</ele>
        <time>2022-06-21T10:45:39Z</time>
      </trkpt>
      <trkpt lat="48.94577" lon="1.99821">
        <ele>16.9</ele>
        <time>2022-06-21T10:45:43Z</time>
      </trkpt>
      <trkpt lat="48.94576" lon="1.99812">
        <ele>16.2</ele>
        <time>2022-06-21T10:45:47Z</time>
      </trkpt>
      <trkpt lat="48.94574" lon="1.99804">
        <ele>18.4</ele>
        <time>2022-06-21T10:45:52Z</time>
      </trkpt>
      <trkpt lat="48.94574" lon="1.99795">
        <ele>19.7</ele>
        <time>2022-06-21T10:45:56Z</time>
      </trkpt>
      <trkpt lat="48.94573" lon="1.99788">
        <ele>20.2</ele>
        <time>2022-06-21T10:46:00Z</time>
      </trkpt>
      <trkpt lat="48.94573" lon="1.99781">
        <ele>21.1</ele>
        <time>2022-06-21T10:46:03Z</time>
      </trkpt>
      <trkpt lat="48.94575" lon="1.99773">
        <ele>21.6</ele>
        <time>2022-06-21T10:46:07Z</time>
      </trkpt>
      <trkpt lat="48.9458" lon="1.99771">
        <ele>21.6</ele>
        <time>2022-06-21T10:46:11Z</time>
      </trkpt>
      <trkpt lat="48.94585" lon="1.99773">
        <ele>23.2</ele>
        <time>2022-06-21T10:46:15Z</time>
      </trkpt>
      <trkpt lat="48.94591" lon="1.99775">
        <ele>24.7</ele>
        <time>2022-06-21T10:46:19Z</time>
      </trkpt>
      <trkpt lat="48.94596" lon="1.99776">
        <ele>25.6</ele>
        <time>2022-06-21T10:46:23Z</time>
      </trkpt>
      <trkpt lat="48.94601" lon="1.99777">
        <ele>24.9</ele>
        <time>2022-06-21T10:46:27Z</time>
      </trkpt>
      <trkpt lat="48.94607" lon="1.99776">
        <ele>24.1</ele>
        <time>2022-06-21T10:46:32Z</time>
      </trkpt>
      <trkpt lat="48.94611" lon="1.99773">
        <ele>19.1</ele>
        <time>2022-06-21T10:46:36Z</time>
      </trkpt>
      <trkpt lat="48.94616" lon="1.99774">
        <ele>17</ele>
        <time>2022-06-21T10:46:40Z</time>
      </trkpt>
      <trkpt lat="48.94621" lon="1.99774">
        <ele>16.9</ele>
        <time>2022-06-21T10:46:45Z</time>
      </trkpt>
      <trkpt lat="48.94627" lon="1.99772">
        <ele>18.4</ele>
        <time>2022-06-21T10:46:49Z</time>
      </trkpt>
      <trkpt lat="48.94632" lon="1.99771">
        <ele>18.5</ele>
        <time>2022-06-21T10:46:53Z</time>
      </trkpt>
      <trkpt lat="48.94638" lon="1.99769">
        <ele>21.8</ele>
        <time>2022-06-21T10:46:58Z</time>
      </trkpt>
      <trkpt lat="48.94643" lon="1.99767">
        <ele>20.4</ele>
        <time>2022-06-21T10:47:02Z</time>
      </trkpt>
      <trkpt lat="48.94649" lon="1.99766">
        <ele>21.4</ele>
        <time>2022-06-21T10:47:07Z</time>
      </trkpt>
      <trkpt lat="48.94654" lon="1.99764">
        <ele>19.9</ele>
        <time>2022-06-21T10:47:12Z</time>
      </trkpt>
      <trkpt lat="48.94659" lon="1.99764">
        <ele>18.5</ele>
        <time>2022-06-21T10:47:17Z</time>
      </trkpt>
      <trkpt lat="48.94664" lon="1.9976">
        <ele>20.1</ele>
        <time>2022-06-21T10:47:23Z</time>
      </trkpt>
      <trkpt lat="48.94669" lon="1.99758">
        <ele>19.8</ele>
        <time>2022-06-21T10:47:28Z</time>
      </trkpt>
      <trkpt lat="48.94674" lon="1.99757">
        <ele>19.3</ele>
        <time>2022-06-21T10:47:32Z</time>
      </trkpt>
      <trkpt lat="48.9468" lon="1.99757">
        <ele>18.4</ele>
        <time>2022-06-21T10:47:37Z</time>
      </trkpt>
      <trkpt lat="48.94685" lon="1.99756">
        <ele>19.5</ele>
        <time>2022-06-21T10:47:41Z</time>
      </trkpt>
      <trkpt lat="48.94691" lon="1.99755">
        <ele>21.6</ele>
        <time>2022-06-21T10:47:45Z</time>
      </trkpt>
      <trkpt lat="48.94696" lon="1.99753">
        <ele>20.8</ele>
        <time>2022-06-21T10:47:50Z</time>
      </trkpt>
      <trkpt lat="48.94701" lon="1.99751">
        <ele>21.7</ele>
        <time>2022-06-21T10:47:53Z</time>
      </trkpt>
      <trkpt lat="48.94706" lon="1.99749">
        <ele>21.2</ele>
        <time>2022-06-21T10:47:58Z</time>
      </trkpt>
      <trkpt lat="48.94712" lon="1.99749">
        <ele>23.3</ele>
        <time>2022-06-21T10:48:03Z</time>
      </trkpt>
      <trkpt lat="48.94717" lon="1.9975">
        <ele>25.1</ele>
        <time>2022-06-21T10:48:07Z</time>
      </trkpt>
      <trkpt lat="48.94722" lon="1.99748">
        <ele>26.9</ele>
        <time>2022-06-21T10:48:11Z</time>
      </trkpt>
      <trkpt lat="48.94727" lon="1.99746">
        <ele>26.2</ele>
        <time>2022-06-21T10:48:15Z</time>
      </trkpt>
      <trkpt lat="48.94732" lon="1.99743">
        <ele>23.8</ele>
        <time>2022-06-21T10:48:19Z</time>
      </trkpt>
      <trkpt lat="48.94738" lon="1.99741">
        <ele>26</ele>
        <time>2022-06-21T10:48:24Z</time>
      </trkpt>
      <trkpt lat="48.94741" lon="1.99735">
        <ele>23.7</ele>
        <time>2022-06-21T10:48:28Z</time>
      </trkpt>
      <trkpt lat="48.94746" lon="1.99735">
        <ele>24.9</ele>
        <time>2022-06-21T10:48:32Z</time>
      </trkpt>
      <trkpt lat="48.94751" lon="1.99736">
        <ele>24.6</ele>
        <time>2022-06-21T10:48:37Z</time>
      </trkpt>
      <trkpt lat="48.94755" lon="1.99736">
        <ele>24.9</ele>
        <time>2022-06-21T10:48:41Z</time>
      </trkpt>
      <trkpt lat="48.94759" lon="1.99731">
        <ele>24.5</ele>
        <time>2022-06-21T10:48:48Z</time>
      </trkpt>
      <trkpt lat="48.94764" lon="1.99731">
        <ele>24.7</ele>
        <time>2022-06-21T10:48:53Z</time>
      </trkpt>
      <trkpt lat="48.94769" lon="1.99731">
        <ele>25.6</ele>
        <time>2022-06-21T10:48:57Z</time>
      </trkpt>
      <trkpt lat="48.94774" lon="1.99732">
        <ele>24.8</ele>
        <time>2022-06-21T10:49:02Z</time>
      </trkpt>
      <trkpt lat="48.94779" lon="1.99732">
        <ele>25.9</ele>
        <time>2022-06-21T10:49:06Z</time>
      </trkpt>
      <trkpt lat="48.94784" lon="1.99732">
        <ele>23.3</ele>
        <time>2022-06-21T10:49:11Z</time>
      </trkpt>
      <trkpt lat="48.94789" lon="1.99731">
        <ele>22</ele>
        <time>2022-06-21T10:49:16Z</time>
      </trkpt>
      <trkpt lat="48.94794" lon="1.99731">
        <ele>22.7</ele>
        <time>2022-06-21T10:49:23Z</time>
      </trkpt>
      <trkpt lat="48.94799" lon="1.99731">
        <ele>22.7</ele>
      </trkpt>
      <trkpt lat="48.94812" lon="1.9973">
        <ele>22.7</ele>
        <time>2022-06-21T10:53:41Z</time>
      </trkpt>
      <trkpt lat="48.94825" lon="1.99729">
        <ele>22.8</ele>
        <time>2022-06-21T10:53:57Z</time>
      </trkpt>
      <trkpt lat="48.9485" lon="1.99726">
        <ele>22.3</ele>
        <time>2022-06-21T10:54:01Z</time>
      </trkpt>
      <trkpt lat="48.94875" lon="1.99724">
        <ele>22.5</ele>
        <time>2022-06-21T10:54:05Z</time>
      </trkpt>
      <trkpt lat="48.94892" lon="1.99724">
        <ele>22.9</ele>
        <time>2022-06-21T10:54:20Z</time>
      </trkpt>
      <trkpt lat="48.94942" lon="1.99723">
        <ele>22</ele>
        <time>2022-06-21T10:54:36Z</time>
      </trkpt>
    </trkseg>
  </trk>
</gpx>